[[{"header":{"parameterUnit":"m.s-1","parameterCategory":1,"la1":31.0,"la2":29.5877,"lo1":-88.7671,"lo2":-86.6584,"dy":0.0162,"dx":0.0185,"nx":115,"ny":88,"refTime":"2023-04-30T06:00:00:Z","depth":0,"parameterNumber":2,"parameterNumberName":"U-component_of_WINDS"},"data":[0.0,0.0,0.0,0.0,0.0,0.0,0.0,0.0,0.0,0.0,0.0,0.0,0.0,0.0,0.0,0.0,0.0,0.0,0.0,0.0,0.0,0.0,0.0,0.0,0.0,0.0,0.0,0.0,0.0,0.0,0.0,0.0,0.0,0.0,0.0,0.0,0.0,0.0,0.0,0.0,0.0,0.0,0.0,0.0,0.0,0.0,0.0,0.0,0.0,0.0,0.0,0.0,0.0,0.0,0.0,0.0,0.0,0.0,0.0,0.0,0.0,0.0,0.0,0.0,0.0,0.0,0.0,0.0,0.0,0.0,0.0,0.0,0.0,0.0,0.0,0.0,0.0,0.0,0.0,0.0,0.0,0.0,0.0,0.0,0.0,0.0,0.0,0.0,0.0,0.0,0.0,0.0,0.0,0.0,0.0,0.0,0.0,0.0,0.0,0.0,0.0,0.0,0.0,0.0,0.0,0.0,0.0,0.0,0.0,0.0,0.0,0.0,0.0,0.0,0.0,0.0,0.0,0.0,0.0,0.0,0.0,0.0,0.0,0.0,0.0,0.0,0.0,0.0,0.0,0.0,0.0,0.0,0.0,0.0,0.0,0.0,0.0,0.0,0.0,0.0,0.0,0.0,0.0,0.0,0.0,0.0,0.0,0.0,0.0,0.0,0.0,0.0,0.0,0.0,0.0,0.0,0.0,0.0,0.0,0.0,0.0,0.0,0.0,0.0,0.0,0.0,0.0,0.0,0.0,0.0,0.0,0.0,0.0,0.0,0.0,0.0,0.0,0.0,0.0,0.0,0.0,0.0,0.0,0.0,0.0,0.0,0.0,0.0,0.0,0.0,0.0,0.0,0.0,0.0,0.0,0.0,0.0,0.0,0.0,0.0,0.0,0.0,0.0,0.0,0.0,0.0,0.0,0.0,0.0,0.0,0.0,0.0,0.0,0.0,0.0,0.0,0.0,0.0,0.0,0.0,0.0,0.0,0.0,0.0,0.0,0.0,0.0,0.0,0.0,0.0,0.0,0.0,0.0,0.0,0.0,0.0,0.0,0.0,0.0,0.0,0.0,0.0,0.0,0.0,0.0,0.0,0.0,0.0,0.0,0.0,0.0,0.0,0.0,0.0,0.0,0.0,0.0,0.0,0.0,0.0,0.0,0.0,0.0,0.0,0.0,0.0,0.0,0.0,0.0,0.0,0.0,0.0,0.0,0.0,0.0,0.0,0.0,0.0,0.0,0.0,0.0,0.0,0.0,0.0,0.0,0.0,0.0,0.0,0.0,0.0,0.0,0.0,0.0,0.0,0.0,0.0,0.0,0.0,0.0,0.0,0.0,0.0,0.0,0.0,0.0,0.0,0.0,0.0,0.0,0.0,0.0,0.0,0.0,0.0,0.0,0.0,0.0,0.0,0.0,0.0,0.0,0.0,0.0,0.0,0.0,0.0,0.0,0.0,0.0,0.0,0.0,0.0,0.0,0.0,0.0,0.0,0.0,0.0,0.0,0.0,0.0,0.0,0.0,0.0,0.0,0.0,0.0,0.0,0.0,0.0,0.0,0.0,0.0,0.0,0.0,0.0,0.0,0.0,0.0,0.0,0.0,0.0,0.0,0.0,0.0,0.0,0.0,0.0,0.0,0.0,0.0,0.0,0.0,0.0,0.0,0.0,0.0,0.0,0.0,0.0,0.0,0.0,0.0,0.0,0.0,0.0,0.0,0.0,0.0,0.0,0.0,0.0,0.0,0.0,0.0,0.0,0.0,0.0,0.0,0.0,0.0,0.0,0.0,0.0,0.0,0.0,0.0,0.0,0.0,0.0,0.0,0.0,0.0,0.0,0.0,0.0,0.0,0.0,0.0,0.0,0.0,0.0,0.0,0.0,0.0,0.0,0.0,0.0,0.0,0.0,0.0,0.0,0.0,0.0,0.0,0.0,0.0,0.0,0.0,0.0,0.0,0.0,0.0,0.0,0.0,0.0,0.0,0.0,0.0,0.0,0.0,0.0,0.0,0.0,0.0,0.0,0.0,0.0,0.0,0.0,0.0,0.0,0.0,0.0,0.0,0.0,0.0,0.0,0.0,0.0,0.0,0.0,0.0,0.0,0.0,0.0,0.0,0.0,0.0,0.0,0.0,0.0,0.0,0.0,0.0,0.0,0.0,0.0,0.0,0.0,0.0,0.0,0.0,0.0,0.0,0.0,0.0,0.0,0.0,0.0,0.0,0.0,0.0,0.0,0.0,0.0,0.0,0.0,0.0,0.0,0.0,0.0,0.0,0.0,0.0,0.0,0.0,0.0,0.0,0.0,0.0,0.0,0.0,0.0,0.0,0.0,0.0,0.0,0.0,0.0,0.0,0.0,0.0,0.0,0.0,0.0,0.0,0.0,0.0,0.0,0.0,0.0,0.0,0.0,0.0,0.0,0.0,0.0,0.0,0.0,0.0,0.0,0.0,0.0,0.0,0.0,0.0,0.0,0.0,0.0,0.0,0.0,0.0,0.0,0.0,0.0,0.0,0.0,0.0,0.0,0.0,0.0,0.0,0.0,0.0,0.0,0.0,0.0,0.0,0.0,0.0,0.0,0.0,0.0,0.0,0.0,0.0,0.0,0.0,0.0,0.0,0.0,0.0,0.0,0.0,0.0,0.0,0.0,0.0,0.0,0.0,0.0,0.0,0.0,0.0,0.0,0.0,0.0,0.0,0.0,0.0,0.0,0.0,0.0,0.0,0.0,0.0,0.0,0.0,0.0,0.0,0.0,0.0,0.0,0.0,0.0,0.0,0.0,0.0,0.0,0.0,0.0,0.0,0.0,0.0,0.0,0.0,0.0,0.0,0.0,0.0,0.0,0.0,0.0,0.0,0.0,0.0,0.0,0.0,0.0,0.0,0.0,0.0,0.0,0.0,0.0,0.0,0.0,0.0,0.0,0.0,0.0,0.0,0.0,0.0,0.0,0.0,0.0,0.0,0.0,0.0,0.0,0.0,0.0,0.0,0.0,0.0,0.0,0.0,0.0,0.0,0.0,0.0,0.0,0.0,0.0,0.0,0.0,0.0,0.0,0.0,0.0,0.0,0.0,0.0,0.0,0.0,0.0,0.0,0.0,0.0,0.0,0.0,0.0,0.0,0.0,0.0,0.0,0.0,0.0,0.0,0.0,0.0,0.0,0.0,0.0,0.0,0.0,0.0,0.0,0.0,0.0,0.0,0.0,0.0,0.0,0.0,0.0,0.0,0.0,0.0,0.0,0.0,0.0,0.0,0.0,0.0,0.0,0.0,0.0,0.0,0.0,0.0,0.0,0.0,0.0,0.0,0.0,0.0,0.0,0.0,0.0,0.0,0.0,0.0,0.0,0.0,0.0,0.0,0.0,0.0,0.0,0.0,0.0,0.0,0.0,0.0,0.0,0.0,0.0,0.0,0.0,0.0,0.0,0.0,0.0,0.0,0.0,0.0,0.0,0.0,0.0,0.0,0.0,0.0,0.0,0.0,0.0,0.0,0.0,0.0,0.0,0.0,0.0,0.0,0.0,0.0,0.0,0.0,0.0,0.0,0.0,0.0,0.0,0.0,0.0,0.0,0.0,0.0,0.0,0.0,0.0,0.0,0.0,0.0,0.0,0.0,0.0,0.0,0.0,0.0,0.0,0.0,0.0,0.0,0.0,0.0,0.0,0.0,0.0,0.0,0.0,0.0,0.0,0.0,0.0,0.0,0.0,0.0,0.0,0.0,0.0,0.0,0.0,0.0,0.0,0.0,0.0,0.0,0.0,0.0,0.0,0.0,0.0,0.0,0.0,0.0,0.0,0.0,0.0,0.0,0.0,0.0,0.0,0.0,0.0,0.0,0.0,0.0,0.0,0.0,0.0,0.0,0.0,0.0,0.0,0.0,0.0,0.0,0.0,0.0,0.0,0.0,0.0,0.0,0.0,0.0,0.0,0.0,0.0,0.0,0.0,0.0,0.0,0.0,0.0,0.0,0.0,0.0,0.0,0.0,0.0,0.0,0.0,0.0,0.0,0.0,0.0,0.0,0.0,0.0,0.0,0.0,0.0,0.0,0.0,0.0,0.0,0.0,0.0,0.0,0.0,0.0,0.0,0.0,0.0,0.0,0.0,0.0,0.0,0.0,0.0,0.0,0.0,0.0,0.0,0.0,0.0,0.0,0.0,0.0,0.0,0.0,0.0,0.0,0.0,0.0,0.0,0.0,0.0,0.0,0.0,0.0,0.0,0.0,0.0,0.0,0.0,0.0,0.0,0.0,0.0,0.0,0.0,0.0,0.0,2.2487,0.0,0.0,0.0,0.0,0.0,0.0,0.0,0.0,0.0,0.0,0.0,0.0,0.0,0.0,0.0,0.0,0.0,0.0,0.0,0.0,0.0,0.0,0.0,0.0,0.0,0.0,0.0,0.0,0.0,0.0,0.0,0.0,0.0,0.0,0.0,0.0,0.0,0.0,0.0,0.0,0.0,0.0,0.0,0.0,0.0,0.0,0.0,0.0,0.0,0.0,0.0,0.0,0.0,0.0,0.0,0.0,0.0,0.0,0.0,0.0,0.0,0.0,0.0,0.0,0.0,0.0,0.0,0.0,0.0,0.0,0.0,0.0,0.0,0.0,0.0,0.0,0.0,0.0,0.0,0.0,0.0,0.0,0.0,0.0,0.0,0.0,0.0,0.0,0.0,0.0,0.0,0.0,0.0,0.0,0.0,0.0,0.0,0.0,0.0,0.0,0.0,0.0,0.0,0.0,0.0,0.0,0.0,0.0,0.0,0.0,2.2569,2.2497,2.2487,2.2515,2.2569,0.0,0.0,0.0,0.0,0.0,0.0,0.0,0.0,0.0,0.0,0.0,0.0,0.0,0.0,0.0,0.0,0.0,0.0,0.0,0.0,0.0,0.0,0.0,0.0,0.0,0.0,0.0,0.0,0.0,0.0,0.0,0.0,0.0,0.0,0.0,0.0,0.0,0.0,0.0,0.0,0.0,0.0,0.0,0.0,0.0,0.0,0.0,0.0,0.0,0.0,0.0,0.0,0.0,0.0,0.0,0.0,0.0,0.0,0.0,0.0,0.0,0.0,0.0,0.0,0.0,0.0,0.0,0.0,0.0,0.0,0.0,0.0,0.0,0.0,0.0,0.0,0.0,0.0,0.0,0.0,0.0,0.0,0.0,0.0,0.0,0.0,0.0,0.0,0.0,0.0,0.0,0.0,0.0,0.0,0.0,0.0,0.0,0.0,0.0,0.0,0.0,0.0,0.0,0.0,0.0,0.0,0.0,0.0,0.0,0.0,0.0,0.0,2.2525,2.2552,2.2623,0.0,0.0,0.0,0.0,0.0,0.0,0.0,0.0,0.0,0.0,0.0,0.0,0.0,0.0,0.0,0.0,0.0,0.0,0.0,0.0,0.0,0.0,0.0,0.0,0.0,0.0,0.0,0.0,0.0,0.0,0.0,0.0,0.0,0.0,0.0,0.0,0.0,0.0,0.0,0.0,0.0,0.0,0.0,0.0,0.0,0.0,0.0,0.0,0.0,0.0,0.0,0.0,0.0,0.0,0.0,0.0,0.0,0.0,0.0,0.0,0.0,0.0,0.0,0.0,0.0,0.0,0.0,0.0,0.0,0.0,0.0,0.0,0.0,0.0,0.0,0.0,0.0,0.0,0.0,0.0,0.0,0.0,0.0,0.0,0.0,0.0,0.0,0.0,0.0,0.0,0.0,0.0,0.0,0.0,0.0,0.0,0.0,0.0,0.0,0.0,0.0,0.0,0.0,0.0,0.0,0.0,0.0,0.0,0.0,0.0,2.2703,2.2703,2.2685,0.0,2.2685,0.0,0.0,0.0,0.0,0.0,0.0,0.0,0.0,0.0,0.0,0.0,0.0,0.0,0.0,0.0,0.0,0.0,0.0,0.0,0.0,0.0,0.0,0.0,0.0,0.0,0.0,0.0,0.0,0.0,0.0,0.0,0.0,0.0,0.0,0.0,0.0,0.0,0.0,0.0,0.0,0.0,0.0,0.0,0.0,0.0,0.0,0.0,0.0,0.0,0.0,0.0,0.0,0.0,0.0,0.0,0.0,0.0,0.0,0.0,0.0,0.0,0.0,0.0,0.0,0.0,0.0,0.0,0.0,0.0,0.0,0.0,0.0,0.0,0.0,0.0,0.0,0.0,0.0,0.0,0.0,0.0,0.0,0.0,0.0,0.0,0.0,0.0,0.0,0.0,0.0,0.0,0.0,0.0,0.0,0.0,0.0,0.0,0.0,0.0,0.0,0.0,0.0,0.0,0.0,0.0,0.0,0.0,0.0,0.0,0.0,2.2712,2.2712,2.2712,2.2712,0.0,0.0,0.0,0.0,0.0,0.0,0.0,0.0,0.0,0.0,0.0,0.0,0.0,0.0,0.0,0.0,0.0,0.0,0.0,0.0,0.0,0.0,0.0,0.0,0.0,0.0,0.0,0.0,0.0,0.0,0.0,0.0,0.0,0.0,0.0,0.0,0.0,0.0,0.0,0.0,0.0,0.0,0.0,0.0,0.0,0.0,0.0,0.0,0.0,0.0,0.0,0.0,0.0,0.0,0.0,0.0,0.0,0.0,0.0,0.0,0.0,0.0,0.0,0.0,0.0,0.0,0.0,0.0,0.0,0.0,0.0,0.0,0.0,0.0,0.0,0.0,0.0,0.0,0.0,0.0,0.0,0.0,0.0,0.0,0.0,0.0,0.0,0.0,0.0,0.0,0.0,0.0,0.0,0.0,0.0,0.0,0.0,0.0,0.0,0.0,0.0,0.0,0.0,0.0,0.0,0.0,0.0,0.0,0.0,0.0,2.2712,2.2712,2.2712,2.2712,2.2712,2.2712,0.0,0.0,0.0,0.0,0.0,0.0,0.0,0.0,0.0,0.0,0.0,0.0,0.0,0.0,0.0,0.0,0.0,0.0,0.0,0.0,0.0,0.0,0.0,0.0,0.0,0.0,0.0,0.0,0.0,0.0,0.0,0.0,0.0,0.0,0.0,0.0,0.0,0.0,0.0,0.0,0.0,0.0,0.0,0.0,0.0,0.0,0.0,0.0,0.0,0.0,0.0,0.0,0.0,0.0,0.0,0.0,0.0,0.0,0.0,0.0,0.0,0.0,0.0,0.0,0.0,0.0,0.0,0.0,0.0,0.0,0.0,0.0,0.0,0.0,0.0,0.0,0.0,0.0,0.0,0.0,0.0,0.0,0.0,0.0,0.0,0.0,0.0,0.0,0.0,0.0,0.0,0.0,0.0,0.0,0.0,0.0,0.0,0.0,0.0,0.0,0.0,0.0,0.0,0.0,0.0,0.0,0.0,0.0,2.2712,2.2712,2.2712,2.2712,2.2712,2.2712,0.0,0.0,0.0,0.0,0.0,0.0,0.0,0.0,0.0,0.0,0.0,0.0,0.0,0.0,0.0,0.0,0.0,0.0,0.0,0.0,0.0,0.0,0.0,0.0,0.0,0.0,0.0,0.0,0.0,0.0,0.0,0.0,0.0,0.0,0.0,0.0,0.0,0.0,0.0,0.0,0.0,0.0,0.0,0.0,0.0,0.0,0.0,0.0,0.0,0.0,0.0,0.0,0.0,0.0,0.0,0.0,0.0,0.0,0.0,0.0,0.0,0.0,0.0,0.0,0.0,0.0,0.0,0.0,0.0,0.0,0.0,0.0,0.0,0.0,0.0,0.0,0.0,0.0,0.0,0.0,0.0,0.0,0.0,0.0,0.0,0.0,0.0,0.0,0.0,0.0,0.0,0.0,0.0,0.0,0.0,0.0,0.0,0.0,0.0,0.0,0.0,0.0,0.0,0.0,0.0,0.0,0.0,0.0,0.0,2.2712,2.2712,2.2738,2.2816,2.2764,2.2738,0.0,0.0,0.0,0.0,0.0,0.0,0.0,0.0,0.0,0.0,0.0,0.0,0.0,0.0,0.0,0.0,0.0,0.0,0.0,0.0,0.0,0.0,0.0,0.0,0.0,0.0,0.0,0.0,0.0,0.0,0.0,0.0,0.0,0.0,0.0,0.0,0.0,0.0,0.0,0.0,0.0,0.0,0.0,0.0,0.0,0.0,0.0,0.0,0.0,0.0,0.0,0.0,0.0,0.0,0.0,0.0,0.0,0.0,0.0,0.0,0.0,0.0,0.0,0.0,0.0,0.0,0.0,0.0,0.0,0.0,0.0,0.0,0.0,0.0,0.0,0.0,0.0,0.0,0.0,0.0,0.0,0.0,0.0,0.0,0.0,0.0,0.0,0.0,0.0,0.0,0.0,0.0,0.0,0.0,0.0,0.0,0.0,0.0,0.0,0.0,0.0,0.0,0.0,0.0,0.0,0.0,0.0,0.0,0.0,2.2816,0.0,2.2917,2.3017,2.2833,2.2816,0.0,0.0,0.0,0.0,0.0,0.0,0.0,0.0,0.0,0.0,0.0,0.0,0.0,0.0,0.0,0.0,0.0,0.0,0.0,0.0,0.0,0.0,0.0,0.0,0.0,0.0,0.0,0.0,0.0,0.0,0.0,0.0,0.0,0.0,0.0,0.0,0.0,0.0,0.0,0.0,0.0,0.0,0.0,0.0,0.0,0.0,0.0,0.0,0.0,0.0,0.0,0.0,0.0,0.0,0.0,0.0,0.0,0.0,0.0,0.0,0.0,0.0,0.0,0.0,0.0,0.0,0.0,0.0,0.0,0.0,0.0,0.0,0.0,0.0,0.0,0.0,0.0,0.0,0.0,0.0,0.0,0.0,0.0,0.0,0.0,0.0,0.0,0.0,0.0,0.0,0.0,0.0,0.0,0.0,0.0,0.0,0.0,0.0,0.0,0.0,0.0,0.0,0.0,0.0,0.0,0.0,0.0,0.0,2.2841,2.3069,2.323,2.3318,2.33,2.306,2.2919,0.0,0.0,0.0,0.0,0.0,0.0,0.0,0.0,0.0,0.0,0.0,0.0,0.0,0.0,0.0,0.0,0.0,0.0,0.0,0.0,0.0,0.0,0.0,0.0,0.0,0.0,0.0,0.0,0.0,0.0,0.0,0.0,0.0,0.0,0.0,0.0,0.0,0.0,0.0,0.0,0.0,0.0,0.0,0.0,0.0,0.0,0.0,0.0,0.0,0.0,0.0,0.0,0.0,0.0,0.0,0.0,0.0,0.0,0.0,0.0,0.0,0.0,0.0,0.0,0.0,0.0,0.0,0.0,0.0,0.0,0.0,0.0,0.0,0.0,0.0,0.0,0.0,0.0,0.0,0.0,0.0,0.0,0.0,0.0,0.0,0.0,0.0,0.0,0.0,0.0,0.0,0.0,0.0,0.0,0.0,0.0,0.0,0.0,0.0,0.0,0.0,0.0,0.0,0.0,0.0,0.0,0.0,0.0,0.0,2.3109,2.3364,2.3768,2.4283,2.3596,2.349,0.0,0.0,0.0,0.0,0.0,0.0,0.0,0.0,0.0,0.0,0.0,0.0,0.0,0.0,0.0,0.0,0.0,0.0,0.0,0.0,0.0,0.0,0.0,0.0,0.0,0.0,0.0,0.0,0.0,0.0,0.0,0.0,0.0,0.0,0.0,0.0,0.0,0.0,0.0,0.0,0.0,0.0,0.0,0.0,0.0,0.0,0.0,0.0,0.0,0.0,0.0,0.0,0.0,0.0,0.0,0.0,0.0,0.0,0.0,0.0,0.0,0.0,0.0,0.0,0.0,0.0,0.0,0.0,0.0,0.0,0.0,0.0,0.0,0.0,0.0,0.0,0.0,0.0,0.0,0.0,0.0,0.0,0.0,0.0,0.0,0.0,0.0,0.0,0.0,0.0,0.0,0.0,0.0,0.0,0.0,0.0,0.0,0.0,0.0,0.0,0.0,0.0,0.0,0.0,0.0,0.0,0.0,0.0,0.0,2.4325,2.424,2.4378,2.4828,2.4123,2.391,2.4218,0.0,0.0,0.0,0.0,0.0,0.0,0.0,0.0,0.0,0.0,0.0,0.0,0.0,0.0,0.0,0.0,0.0,0.0,0.0,0.0,0.0,0.0,0.0,0.0,0.0,0.0,0.0,0.0,0.0,0.0,0.0,0.0,0.0,0.0,0.0,0.0,0.0,0.0,0.0,0.0,0.0,0.0,0.0,0.0,0.0,0.0,0.0,0.0,0.0,0.0,0.0,0.0,0.0,0.0,0.0,0.0,0.0,0.0,0.0,0.0,0.0,0.0,0.0,0.0,0.0,0.0,0.0,0.0,0.0,0.0,0.0,0.0,0.0,0.0,0.0,0.0,0.0,0.0,0.0,0.0,0.0,0.0,0.0,0.0,0.0,0.0,0.0,0.0,0.0,0.0,0.0,0.0,0.0,0.0,0.0,0.0,0.0,0.0,0.0,0.0,0.0,0.0,0.0,0.0,0.0,0.0,0.0,0.0,2.6538,2.5841,2.5387,2.5195,2.4807,2.4229,0.0,0.0,0.0,0.0,0.0,0.0,0.0,0.0,0.0,0.0,0.0,0.0,0.0,0.0,0.0,0.0,0.0,0.0,0.0,0.0,0.0,0.0,0.0,0.0,0.0,0.0,0.0,0.0,0.0,0.0,0.0,0.0,0.0,0.0,0.0,0.0,0.0,0.0,0.0,0.0,0.0,0.0,0.0,0.0,0.0,0.0,0.0,0.0,0.0,0.0,0.0,0.0,0.0,0.0,0.0,0.0,0.0,0.0,0.0,0.0,0.0,0.0,0.0,0.0,0.0,0.0,0.0,0.0,0.0,0.0,0.0,0.0,0.0,0.0,0.0,0.0,0.0,0.0,0.0,0.0,0.0,0.0,0.0,0.0,0.0,0.0,0.0,0.0,0.0,0.0,0.0,0.0,0.0,0.0,0.0,0.0,0.0,0.0,0.0,0.0,0.0,0.0,0.0,0.0,0.0,0.0,0.0,0.0,0.0,2.8127,2.87,2.8654,2.8003,2.6631,2.5792,0.0,0.0,0.0,0.0,0.0,0.0,0.0,0.0,0.0,0.0,0.0,0.0,0.0,0.0,0.0,0.0,0.0,0.0,0.0,0.0,0.0,0.0,0.0,0.0,0.0,0.0,0.0,0.0,0.0,0.0,0.0,0.0,0.0,0.0,0.0,0.0,0.0,0.0,0.0,0.0,0.0,0.0,0.0,0.0,0.0,0.0,0.0,0.0,0.0,0.0,0.0,0.0,0.0,0.0,0.0,0.0,0.0,0.0,0.0,0.0,0.0,0.0,0.0,0.0,0.0,0.0,0.0,0.0,0.0,0.0,0.0,0.0,0.0,0.0,0.0,0.0,0.0,0.0,0.0,0.0,0.0,0.0,0.0,0.0,0.0,0.0,0.0,0.0,0.0,0.0,0.0,0.0,0.0,0.0,0.0,0.0,0.0,0.0,0.0,0.0,0.0,0.0,0.0,0.0,0.0,0.0,0.0,0.0,2.794,2.903,3.0618,3.1219,3.0738,2.8906,2.7387,0.0,0.0,0.0,0.0,0.0,0.0,0.0,0.0,0.0,0.0,0.0,0.0,0.0,0.0,0.0,0.0,0.0,0.0,0.0,0.0,0.0,0.0,0.0,0.0,0.0,0.0,0.0,0.0,0.0,0.0,0.0,0.0,0.0,0.0,0.0,0.0,0.0,0.0,0.0,0.0,0.0,0.0,0.0,0.0,0.0,0.0,0.0,0.0,0.0,0.0,0.0,0.0,0.0,0.0,0.0,0.0,0.0,0.0,0.0,0.0,0.0,0.0,0.0,0.0,0.0,0.0,0.0,0.0,0.0,0.0,0.0,0.0,0.0,0.0,0.0,0.0,0.0,0.0,0.0,0.0,0.0,0.0,0.0,0.0,0.0,0.0,0.0,0.0,0.0,0.0,0.0,0.0,0.0,0.0,0.0,0.0,0.0,0.0,0.0,0.0,0.0,0.0,0.0,0.0,0.0,0.0,0.0,0.0,2.9081,2.9665,3.1912,3.3064,3.2934,3.1054,2.8901,0.0,0.0,0.0,0.0,0.0,0.0,0.0,0.0,0.0,0.0,0.0,0.0,0.0,0.0,0.0,0.0,0.0,0.0,0.0,0.0,0.0,0.0,0.0,0.0,0.0,0.0,0.0,0.0,0.0,0.0,0.0,0.0,0.0,0.0,0.0,0.0,0.0,0.0,0.0,0.0,0.0,0.0,0.0,0.0,0.0,0.0,0.0,0.0,0.0,0.0,0.0,0.0,0.0,0.0,0.0,0.0,0.0,0.0,0.0,0.0,0.0,0.0,0.0,0.0,0.0,0.0,0.0,0.0,0.0,0.0,0.0,0.0,0.0,0.0,0.0,0.0,0.0,0.0,0.0,0.0,0.0,0.0,0.0,0.0,0.0,0.0,0.0,0.0,0.0,0.0,0.0,0.0,0.0,0.0,0.0,0.0,0.0,0.0,0.0,0.0,0.0,0.0,0.0,0.0,0.0,0.0,0.0,0.0,2.9769,3.1262,3.3027,3.364,3.3008,3.1191,2.9622,0.0,0.0,0.0,0.0,0.0,0.0,0.0,0.0,0.0,0.0,0.0,0.0,0.0,0.0,0.0,0.0,0.0,0.0,0.0,0.0,0.0,0.0,0.0,0.0,0.0,0.0,0.0,0.0,0.0,0.0,0.0,0.0,0.0,0.0,0.0,0.0,0.0,0.0,0.0,0.0,0.0,0.0,0.0,0.0,0.0,0.0,0.0,0.0,2.6823,0.0,0.0,0.0,0.0,0.0,0.0,0.0,0.0,0.0,0.0,0.0,0.0,0.0,0.0,0.0,0.0,0.0,0.0,0.0,0.0,0.0,0.0,0.0,0.0,0.0,0.0,0.0,0.0,0.0,0.0,0.0,0.0,0.0,0.0,0.0,0.0,0.0,0.0,0.0,0.0,0.0,0.0,0.0,0.0,0.0,0.0,0.0,0.0,0.0,0.0,0.0,0.0,0.0,0.0,0.0,0.0,0.0,0.0,0.0,2.924,3.0716,3.2318,3.2993,3.2552,3.1294,3.0017,0.0,0.0,0.0,0.0,0.0,0.0,0.0,0.0,0.0,0.0,0.0,0.0,0.0,0.0,0.0,0.0,0.0,0.0,0.0,0.0,0.0,0.0,0.0,0.0,0.0,0.0,0.0,0.0,0.0,0.0,0.0,0.0,0.0,0.0,0.0,0.0,0.0,0.0,0.0,0.0,0.0,0.0,0.0,0.0,0.0,0.0,0.0,0.0,0.0,0.0,0.0,0.0,0.0,0.0,0.0,0.0,0.0,0.0,0.0,0.0,0.0,0.0,0.0,0.0,0.0,0.0,0.0,0.0,0.0,0.0,0.0,0.0,0.0,0.0,0.0,0.0,0.0,0.0,0.0,0.0,0.0,0.0,0.0,0.0,0.0,0.0,0.0,0.0,0.0,0.0,0.0,0.0,0.0,0.0,0.0,0.0,0.0,0.0,0.0,0.0,0.0,0.0,0.0,0.0,0.0,0.0,0.0,2.708,2.8487,2.9698,3.1231,3.1984,3.1916,3.126,3.0271,2.89,0.0,0.0,0.0,0.0,0.0,0.0,0.0,0.0,0.0,0.0,0.0,0.0,0.0,0.0,0.0,0.0,0.0,0.0,0.0,0.0,0.0,0.0,0.0,0.0,0.0,0.0,0.0,0.0,0.0,0.0,0.0,0.0,0.0,0.0,0.0,0.0,0.0,0.0,2.506,2.6742,0.0,0.0,0.0,0.0,0.0,0.0,0.0,0.0,2.8412,0.0,0.0,0.0,0.0,0.0,0.0,0.0,0.0,0.0,0.0,0.0,0.0,0.0,0.0,0.0,0.0,0.0,0.0,0.0,0.0,0.0,0.0,0.0,0.0,0.0,0.0,0.0,0.0,0.0,0.0,0.0,0.0,0.0,0.0,0.0,0.0,0.0,0.0,0.0,0.0,0.0,0.0,0.0,0.0,0.0,0.0,0.0,0.0,0.0,0.0,0.0,0.0,0.0,0.0,0.0,0.0,2.6436,2.7481,2.8792,3.0463,3.1555,3.1783,3.1128,3.1036,3.0317,2.8984,0.0,0.0,0.0,0.0,0.0,0.0,0.0,0.0,0.0,0.0,0.0,0.0,0.0,0.0,0.0,0.0,0.0,0.0,0.0,0.0,0.0,0.0,0.0,0.0,0.0,0.0,0.0,0.0,0.0,0.0,0.0,0.0,0.0,0.0,0.0,0.0,0.0,0.0,0.0,2.7032,2.8083,0.0,0.0,0.0,0.0,0.0,0.0,0.0,0.0,2.8864,0.0,0.0,0.0,0.0,0.0,0.0,0.0,0.0,0.0,0.0,0.0,0.0,0.0,0.0,0.0,0.0,0.0,0.0,0.0,0.0,0.0,0.0,0.0,0.0,0.0,0.0,0.0,0.0,0.0,0.0,0.0,0.0,0.0,0.0,0.0,0.0,0.0,0.0,0.0,0.0,0.0,0.0,0.0,0.0,0.0,0.0,0.0,0.0,0.0,0.0,0.0,0.0,0.0,0.0,0.0,2.6377,2.7052,2.8236,3.0015,3.0504,3.0621,3.0394,3.0409,2.9983,0.0,0.0,0.0,0.0,0.0,0.0,0.0,0.0,0.0,0.0,0.0,0.0,0.0,0.0,0.0,0.0,0.0,0.0,0.0,0.0,0.0,0.0,0.0,0.0,0.0,0.0,0.0,0.0,0.0,0.0,0.0,0.0,0.0,0.0,0.0,0.0,0.0,0.0,0.0,0.0,2.7432,2.8355,2.8679,0.0,0.0,0.0,0.0,0.0,0.0,2.9178,2.9891,0.0,0.0,0.0,0.0,0.0,0.0,0.0,0.0,0.0,0.0,0.0,0.0,0.0,0.0,0.0,0.0,0.0,0.0,0.0,0.0,0.0,0.0,0.0,0.0,0.0,0.0,0.0,0.0,0.0,0.0,0.0,0.0,0.0,0.0,0.0,0.0,0.0,0.0,0.0,0.0,0.0,0.0,0.0,0.0,0.0,0.0,0.0,0.0,0.0,0.0,0.0,0.0,0.0,0.0,0.0,2.6159,2.6709,2.7768,2.9339,2.9453,2.9551,2.9787,2.9787,2.9551,0.0,0.0,0.0,0.0,0.0,0.0,0.0,0.0,0.0,0.0,0.0,0.0,0.0,0.0,0.0,0.0,0.0,0.0,0.0,0.0,0.0,0.0,0.0,0.0,0.0,0.0,0.0,0.0,0.0,0.0,0.0,0.0,0.0,0.0,0.0,0.0,0.0,0.0,0.0,0.0,0.0,2.8781,2.9653,3.0071,0.0,0.0,0.0,0.0,2.9545,3.0393,0.0,0.0,0.0,0.0,0.0,0.0,0.0,0.0,0.0,0.0,0.0,0.0,0.0,0.0,0.0,0.0,0.0,0.0,0.0,0.0,0.0,0.0,0.0,0.0,0.0,0.0,0.0,0.0,0.0,0.0,0.0,0.0,0.0,0.0,0.0,0.0,0.0,0.0,0.0,0.0,0.0,0.0,0.0,0.0,0.0,0.0,0.0,0.0,0.0,0.0,0.0,0.0,0.0,0.0,0.0,0.0,2.6191,2.7104,2.811,2.9092,2.9272,2.9334,2.9375,2.9375,2.9212,0.0,0.0,0.0,0.0,0.0,0.0,0.0,0.0,0.0,0.0,0.0,0.0,0.0,0.0,0.0,0.0,0.0,0.0,0.0,0.0,0.0,0.0,0.0,0.0,0.0,0.0,0.0,0.0,0.0,0.0,0.0,0.0,0.0,0.0,0.0,0.0,0.0,0.0,0.0,0.0,0.0,2.9379,2.9976,3.0192,3.0711,0.0,0.0,3.1053,3.1681,3.1832,0.0,0.0,0.0,0.0,0.0,0.0,0.0,0.0,0.0,0.0,0.0,0.0,0.0,0.0,0.0,0.0,0.0,0.0,0.0,0.0,0.0,0.0,0.0,0.0,0.0,0.0,0.0,0.0,0.0,0.0,0.0,0.0,0.0,0.0,0.0,0.0,0.0,0.0,0.0,0.0,0.0,0.0,0.0,0.0,0.0,0.0,0.0,0.0,0.0,0.0,0.0,0.0,0.0,0.0,0.0,2.5344,2.6152,2.7169,2.8154,2.9016,2.9097,2.9185,2.9293,2.9293,2.9148,0.0,0.0,0.0,0.0,0.0,0.0,0.0,0.0,0.0,0.0,0.0,0.0,0.0,0.0,0.0,0.0,0.0,0.0,0.0,0.0,0.0,0.0,0.0,0.0,0.0,0.0,0.0,0.0,0.0,0.0,0.0,0.0,0.0,0.0,0.0,0.0,0.0,0.0,0.0,0.0,0.0,0.0,3.0826,3.1183,0.0,0.0,0.0,3.1686,3.215,0.0,0.0,0.0,0.0,0.0,0.0,0.0,0.0,0.0,0.0,0.0,0.0,0.0,0.0,0.0,0.0,0.0,0.0,0.0,0.0,0.0,0.0,0.0,0.0,0.0,0.0,0.0,0.0,0.0,0.0,0.0,0.0,0.0,0.0,0.0,0.0,0.0,0.0,0.0,0.0,0.0,0.0,0.0,0.0,0.0,0.0,0.0,0.0,0.0,0.0,0.0,0.0,0.0,0.0,0.0,0.0,0.0,2.6405,2.7409,2.8242,2.8868,2.8905,2.8962,2.9123,2.9123,0.0,0.0,0.0,0.0,0.0,0.0,0.0,0.0,0.0,0.0,0.0,0.0,0.0,0.0,0.0,0.0,0.0,0.0,0.0,0.0,0.0,0.0,0.0,0.0,0.0,0.0,0.0,2.3967,0.0,0.0,0.0,0.0,0.0,0.0,0.0,0.0,0.0,0.0,0.0,0.0,0.0,0.0,3.0931,3.1946,3.2167,3.2498,0.0,0.0,3.2414,3.2735,3.3064,3.3356,0.0,0.0,0.0,0.0,0.0,0.0,0.0,0.0,0.0,0.0,0.0,0.0,0.0,0.0,0.0,0.0,0.0,0.0,0.0,0.0,0.0,0.0,0.0,0.0,0.0,0.0,0.0,0.0,0.0,0.0,0.0,0.0,0.0,0.0,0.0,0.0,0.0,0.0,0.0,0.0,0.0,0.0,0.0,0.0,0.0,0.0,0.0,0.0,0.0,0.0,0.0,0.0,0.0,0.0,0.0,2.7119,2.8073,2.8565,2.8619,2.8612,2.8637,2.8637,2.8662,2.8656,0.0,0.0,0.0,0.0,0.0,0.0,0.0,0.0,0.0,0.0,0.0,0.0,0.0,0.0,0.0,0.0,0.0,0.0,0.0,0.0,0.0,0.0,0.0,0.0,0.0,0.0,0.0,0.0,0.0,0.0,0.0,0.0,0.0,0.0,0.0,0.0,0.0,0.0,0.0,0.0,0.0,3.239,3.3357,3.2853,3.2952,0.0,0.0,3.342,3.4202,3.4137,3.402,3.4036,0.0,0.0,0.0,0.0,0.0,0.0,0.0,0.0,0.0,0.0,0.0,0.0,0.0,0.0,0.0,0.0,0.0,0.0,0.0,0.0,0.0,0.0,0.0,0.0,0.0,0.0,0.0,0.0,0.0,0.0,0.0,0.0,0.0,0.0,0.0,0.0,0.0,0.0,0.0,0.0,0.0,0.0,0.0,0.0,0.0,0.0,0.0,0.0,0.0,0.0,0.0,0.0,0.0,2.6903,2.7209,2.8121,2.8587,2.8587,2.8587,2.8848,2.9318,2.9337,2.9337,0.0,0.0,0.0,0.0,0.0,0.0,0.0,0.0,0.0,0.0,0.0,0.0,0.0,0.0,0.0,0.0,0.0,0.0,0.0,0.0,0.0,0.0,0.0,0.0,0.0,0.0,0.0,0.0,2.5517,2.6113,2.7187,0.0,0.0,0.0,0.0,0.0,0.0,0.0,0.0,0.0,0.0,3.3198,3.3554,3.3705,0.0,0.0,3.4412,3.4284,3.5054,3.4643,3.4509,3.5299,3.5072,0.0,0.0,0.0,0.0,0.0,0.0,0.0,0.0,0.0,0.0,0.0,0.0,0.0,0.0,0.0,0.0,0.0,0.0,0.0,0.0,0.0,0.0,0.0,0.0,0.0,0.0,0.0,0.0,0.0,0.0,0.0,0.0,0.0,0.0,0.0,0.0,0.0,0.0,0.0,0.0,0.0,0.0,0.0,0.0,0.0,0.0,0.0,0.0,0.0,0.0,0.0,0.0,2.7486,2.7936,2.8399,2.8848,2.93,2.9083,2.9337,3.0115,3.016,3.0152,0.0,0.0,0.0,0.0,0.0,0.0,0.0,0.0,0.0,0.0,0.0,0.0,0.0,0.0,0.0,0.0,0.0,0.0,0.0,0.0,0.0,0.0,0.0,0.0,0.0,0.0,0.0,0.0,2.6377,2.668,2.7466,0.0,0.0,0.0,0.0,0.0,0.0,0.0,0.0,0.0,0.0,3.3933,3.398,3.4624,3.5086,3.5182,3.512,3.5266,3.5773,3.5277,3.5207,3.6141,0.0,0.0,0.0,0.0,0.0,0.0,0.0,0.0,0.0,0.0,0.0,0.0,0.0,0.0,0.0,0.0,0.0,0.0,0.0,0.0,0.0,0.0,0.0,0.0,0.0,0.0,0.0,0.0,0.0,0.0,2.5854,0.0,0.0,0.0,0.0,0.0,0.0,0.0,0.0,0.0,0.0,0.0,0.0,0.0,0.0,0.0,0.0,0.0,0.0,0.0,0.0,0.0,0.0,2.8077,2.9593,2.8977,2.9391,3.084,3.017,3.0152,3.093,3.0966,3.0966,3.0966,0.0,0.0,0.0,0.0,0.0,0.0,0.0,0.0,0.0,0.0,0.0,0.0,0.0,0.0,0.0,0.0,0.0,0.0,0.0,0.0,0.0,0.0,0.0,0.0,0.0,0.0,2.7809,2.7902,2.7713,0.0,0.0,0.0,0.0,0.0,0.0,0.0,0.0,0.0,0.0,3.423,3.4723,3.4883,3.5398,3.5778,3.5762,3.61,3.6332,3.6381,3.6328,3.627,0.0,0.0,0.0,0.0,0.0,0.0,0.0,0.0,0.0,0.0,0.0,0.0,0.0,0.0,0.0,0.0,0.0,0.0,0.0,0.0,0.0,0.0,0.0,0.0,0.0,0.0,0.0,2.9054,2.8558,0.0,0.0,0.0,0.0,0.0,0.0,0.0,0.0,0.0,0.0,0.0,2.9737,3.0077,0.0,0.0,0.0,0.0,0.0,0.0,0.0,0.0,0.0,0.0,0.0,0.0,2.8826,2.9354,2.9927,3.0459,3.0966,3.0731,3.0985,3.1745,3.1799,3.1799,3.1781,0.0,0.0,0.0,0.0,0.0,0.0,0.0,0.0,0.0,0.0,0.0,0.0,0.0,0.0,0.0,0.0,0.0,0.0,0.0,0.0,0.0,0.0,0.0,0.0,0.0,2.8083,0.0,0.0,0.0,0.0,0.0,0.0,0.0,0.0,0.0,0.0,0.0,3.3778,3.4264,3.5068,3.5579,3.5628,3.6224,3.6687,0.0,0.0,0.0,0.0,0.0,0.0,0.0,0.0,0.0,0.0,0.0,0.0,0.0,0.0,3.7222,3.5689,3.4919,3.4306,3.39,0.0,0.0,0.0,0.0,0.0,0.0,0.0,0.0,0.0,0.0,0.0,0.0,0.0,0.0,0.0,0.0,3.041,0.0,0.0,0.0,0.0,0.0,0.0,0.0,0.0,3.029,3.0607,3.0976,3.1083,3.1029,0.0,3.0733,3.0184,0.0,0.0,0.0,0.0,0.0,0.0,0.0,0.0,2.984,3.0223,3.0748,3.1274,3.1781,3.1564,3.1781,3.2578,3.2614,3.2469,3.2198,3.1379,3.0731,0.0,0.0,0.0,0.0,0.0,0.0,0.0,0.0,0.0,0.0,0.0,0.0,0.0,0.0,0.0,0.0,0.0,0.0,0.0,0.0,0.0,0.0,0.0,2.8988,0.0,0.0,0.0,0.0,0.0,0.0,0.0,0.0,0.0,3.3232,3.4175,3.5034,3.5465,3.6026,3.639,3.639,0.0,0.0,0.0,0.0,0.0,0.0,0.0,3.7687,3.8564,3.8209,3.7991,3.8479,3.8448,3.8391,3.8391,0.0,0.0,3.6702,3.5943,3.5428,3.5179,3.5334,3.5428,3.5194,3.5509,3.5922,0.0,0.0,0.0,0.0,0.0,0.0,0.0,0.0,3.1709,3.1709,0.0,3.1366,0.0,0.0,0.0,0.0,0.0,3.0921,0.0,0.0,3.1283,3.1334,3.1364,3.1228,3.1075,3.1057,3.0772,3.0724,3.0964,3.0954,0.0,0.0,0.0,0.0,0.0,0.0,3.1076,3.205,3.1446,3.1789,3.3255,3.2586,3.2567,3.3309,3.3364,3.2984,3.2242,3.1858,3.1209,3.0088,2.9575,0.0,0.0,0.0,0.0,0.0,0.0,0.0,0.0,0.0,0.0,0.0,0.0,0.0,0.0,0.0,0.0,0.0,0.0,0.0,0.0,3.0563,0.0,0.0,0.0,0.0,0.0,0.0,0.0,0.0,0.0,0.0,3.4899,3.5961,3.6933,3.7018,0.0,0.0,0.0,0.0,3.8018,3.8035,3.8487,3.8788,3.8788,3.8694,3.86,3.8632,0.0,0.0,3.8391,3.8391,3.8391,3.8391,3.8335,3.8335,3.8246,3.769,3.7191,3.6632,3.6938,3.7117,3.6653,3.7326,3.7988,3.3934,0.0,0.0,0.0,0.0,3.3371,3.3515,3.3743,3.3743,3.3272,3.253,3.2434,0.0,0.0,0.0,0.0,0.0,0.0,3.1237,3.1836,3.1864,3.22,3.2783,3.2734,3.2705,3.2705,3.2325,3.2325,3.2665,3.217,3.1129,2.9702,0.0,0.0,0.0,0.0,3.1395,3.1515,3.2005,3.2398,3.2619,3.2373,3.2388,3.2619,3.2636,3.2479,3.2267,3.2183,3.1844,3.1254,3.1039,0.0,0.0,0.0,0.0,0.0,0.0,0.0,0.0,0.0,0.0,0.0,0.0,0.0,0.0,0.0,0.0,0.0,0.0,0.0,3.0062,3.0545,3.0809,0.0,0.0,0.0,0.0,0.0,0.0,0.0,0.0,0.0,3.6464,3.6771,3.683,0.0,0.0,3.7672,3.7075,3.8105,3.8904,3.892,3.9032,0.0,0.0,3.8914,3.8876,3.8876,3.886,3.8805,3.8821,3.8672,3.8375,3.7911,3.7754,3.7535,3.7131,3.7653,3.7969,3.789,3.8003,3.7895,3.7356,3.7831,3.8157,3.5814,3.5633,3.4735,3.4358,3.44,3.4699,3.4899,3.5071,3.5409,3.4913,3.3907,3.3765,3.3065,3.1954,3.1784,0.0,0.0,0.0,3.2379,3.2618,3.3298,3.3599,3.3669,3.3939,3.397,3.3791,3.3439,3.3491,3.3824,3.2967,3.2056,3.1098,0.0,0.0,3.0228,3.1194,3.1698,3.1683,3.2272,3.2502,3.2317,3.2299,3.2299,3.2299,3.2299,3.2299,3.2299,3.2299,3.2249,3.2162,3.1812,3.1534,0.0,0.0,0.0,0.0,0.0,0.0,0.0,0.0,0.0,0.0,0.0,2.8216,0.0,0.0,0.0,0.0,3.0701,3.0674,3.1166,3.1803,0.0,0.0,0.0,0.0,0.0,0.0,0.0,3.4998,3.6696,3.7775,3.7279,3.7665,3.7791,3.7318,3.8048,3.8467,3.7987,0.0,3.9288,3.9288,3.9288,3.9272,3.9148,3.9077,3.8985,3.886,3.8583,3.8399,3.8327,3.8042,3.7621,3.7235,3.7071,3.689,3.6508,3.7071,3.7578,3.7578,3.7578,3.746,3.7087,3.7326,3.746,3.739,3.7198,3.5515,3.4789,3.4864,3.5556,3.5814,3.5848,3.6597,3.6403,3.5458,3.5193,3.4669,3.3844,3.3478,0.0,3.3478,3.4199,3.4145,3.3539,3.502,3.5115,3.4086,3.4761,3.4854,3.4491,3.4181,3.4146,3.4368,3.3401,3.29,3.2838,3.2159,3.1669,3.1372,3.1689,3.2017,3.2424,3.2441,3.2441,3.2389,3.2389,3.2389,3.2406,3.2389,3.2406,3.2406,3.2336,3.2492,3.2882,3.2118,3.1816,3.2139,0.0,0.0,0.0,0.0,0.0,0.0,0.0,0.0,0.0,0.0,0.0,0.0,0.0,0.0,0.0,3.2878,0.0,3.3048,3.3743,0.0,0.0,0.0,3.5338,3.5338,3.6414,3.6958,3.6537,0.0,0.0,3.7546,3.8439,3.9164,3.9148,3.9202,3.9148,3.9094,3.9023,3.9148,3.9094,3.9094,3.9148,3.8969,3.8843,3.8678,3.8472,3.7886,3.746,3.746,3.6951,3.6508,3.6384,3.6384,3.6259,3.6259,3.6197,3.6259,3.6275,3.6368,3.643,3.6384,3.6446,3.6508,3.7286,3.7073,3.661,3.6419,3.6437,3.641,3.6403,3.6396,3.657,3.6396,3.5993,3.5936,3.5688,3.5302,3.5191,3.4965,3.4682,3.4878,3.4707,3.427,3.4641,3.4658,3.4409,3.455,3.4602,3.4491,3.4164,3.3887,3.3649,3.3402,3.3007,3.2493,3.2835,3.2838,3.2535,3.284,3.3186,3.3588,3.3606,3.3451,3.3157,3.3134,3.3134,3.3134,3.3117,3.3134,3.3117,3.2593,3.2622,3.3233,3.253,3.2429,3.3036,3.2756,0.0,0.0,0.0,0.0,0.0,0.0,0.0,0.0,0.0,3.0764,3.135,0.0,3.0959,0.0,3.4551,3.4693,3.3371,3.4703,0.0,0.0,3.6039,3.626,3.6669,3.7086,3.7266,3.7148,3.7567,3.7725,3.746,3.7679,3.7838,3.7838,3.8238,3.8124,3.7147,3.7488,3.7838,3.7895,3.7895,3.778,3.7706,3.7589,3.7605,3.7679,3.7504,3.737,3.737,3.7131,3.6753,3.615,3.5913,3.5608,3.5023,3.4905,3.4905,3.4971,3.5706,3.6259,3.577,3.6009,3.6259,3.8141,3.7879,3.7769,3.7689,3.7689,3.731,3.7054,3.698,3.7294,3.7103,3.6541,3.6158,3.5828,3.5504,3.549,3.5254,3.4872,3.5226,3.5046,3.4544,3.5265,3.5273,3.4783,3.5114,3.5191,3.499,3.4778,3.4614,3.4364,3.404,3.3673,3.3287,3.3383,3.3481,3.3624,3.3481,3.3515,3.3738,3.3721,3.3615,3.3389,3.3389,3.3389,3.3389,3.3389,3.3389,3.3389,3.3,3.3119,3.3829,3.3144,3.3068,3.3828,3.338,3.3001,0.0,0.0,0.0,0.0,0.0,0.0,0.0,0.0,0.0,0.0,0.0,3.2099,0.0,3.508,3.5532,3.434,3.5457,3.6371,3.6643,3.6757,3.6959,3.7262,3.7334,3.7304,3.6982,3.7212,3.7199,3.6631,3.7011,3.7191,3.6677,3.7071,3.731,3.6906,3.7131,3.7354,3.7354,3.7354,3.737,3.7251,3.7191,3.7115,3.7175,3.6935,3.6707,3.6646,3.629,3.5834,3.5365,3.5169,3.4986,3.4467,3.4414,3.4414,3.4467,3.4971,3.5335,3.5023,3.5285,3.54,3.9261,3.8943,3.8688,3.8585,3.8499,3.8069,3.7716,3.7534,3.823,3.8,3.7003,3.6335,3.5744,3.5314,3.5331,3.5119,3.4766,3.5469,3.536,3.4742,3.6073,3.6151,3.5229,3.5889,3.6002,3.5622,3.5639,3.5571,3.547,3.4912,3.4556,3.4336,3.3914,3.3964,3.4455,3.3964,3.3694,3.3694,3.3694,3.3694,3.3677,3.3694,3.3694,3.3694,3.3694,3.3677,3.3694,3.3592,3.388,3.4556,3.3828,3.3732,3.4594,3.3873,3.3401,0.0,3.2796,0.0,0.0,0.0,0.0,0.0,0.0,0.0,0.0,3.3362,3.3421,3.3501,3.5078,3.5925,3.5466,3.6058,3.6657,3.7166,3.7355,3.7354,3.7294,3.7251,3.7011,3.6368,3.6784,3.6738,3.5733,3.6492,3.6723,3.5861,3.6037,3.6477,3.6951,3.7071,3.7071,3.7131,3.7131,3.6966,3.7011,3.6951,3.6829,3.6768,3.6275,3.58,3.5688,3.5198,3.4698,3.4549,3.4534,3.4481,3.4414,3.4414,3.4414,3.4414,3.4467,3.4467,3.4467,3.4481,3.4414,3.8915,3.8658,3.8597,3.8496,3.8256,3.8158,3.8103,3.8056,3.8201,3.7946,3.7399,3.7256,3.695,3.6576,3.6576,3.6344,3.5976,3.6132,3.5889,3.5402,3.5691,3.5759,3.5491,3.5627,3.565,3.5622,3.5639,3.5301,3.4726,3.5182,3.4793,3.366,3.4675,3.4962,3.4539,0.0,0.0,0.0,3.5199,3.5199,3.5199,3.5199,3.5216,3.5199,3.5155,0.0,3.5182,3.4607,3.4624,3.5334,3.4692,0.0,0.0,0.0,0.0,0.0,0.0,0.0,0.0,0.0,0.0,0.0,3.4657,3.4713,3.4729,3.5188,3.5134,3.4257,3.5399,3.621,3.6153,3.6769,3.7239,3.7372,3.7408,3.7191,3.6662,3.6616,3.6383,3.5733,3.5797,3.5797,3.5619,3.5733,3.5797,3.5569,3.5619,3.5733,3.5846,3.591,3.5846,3.5861,3.5973,3.591,3.5861,3.5861,3.5831,3.5589,3.5444,3.5344,3.5264,3.5067,3.4868,3.4802,3.475,3.4563,3.4414,3.4414,3.4414,3.4414,3.4414,3.4414,3.4414,3.4414,3.4414,3.8658,0.0,3.8401,3.8322,0.0,3.8192,3.8192,3.8192,3.8192,3.7933,3.7487,3.7266,3.6978,3.6597,3.6597,3.635,3.5958,3.5958,3.5844,3.5622,3.5639,3.5639,3.5639,3.5639,3.547,3.5207,3.5224,3.4868,3.4303,3.4634,3.4452,3.371,3.4468,3.4634,3.4286,3.4634,3.5068,3.5622,3.5639,3.5639,3.5639,3.5639,3.5639,3.5639,0.0,0.0,0.0,0.0,0.0,0.0,0.0,0.0,0.0,0.0,0.0,3.4876,3.4824,3.4739,3.4731,3.4723,3.492,3.5212,3.56,3.5601,3.5182,3.5822,3.5833,3.4942,3.5783,3.6331,3.6347,3.6414,3.6538,3.6845,3.6662,3.6321,3.6037,3.5958,3.5861,3.5554,3.5489,3.5489,3.5489,3.5489,3.5489,3.5489,3.5489,3.5489,3.5489,3.5489,3.5489,3.5489,3.5489,3.5489,3.5489,3.5489,3.5504,3.5374,3.5359,3.5294,3.5228,3.5016,3.4868,3.4817,3.4683,3.4481,3.4414,3.4414,3.4414,3.4414,3.4414,3.4414,3.4414,3.4414,3.4414,3.8474,3.8373,3.828,3.8192,3.8192,3.8106,3.8038,3.7985,0.0,0.0,0.0,3.6939,3.6557,3.6174,3.6174,3.5975,3.5622,3.5639,3.5639,3.5639,3.5639,3.5577,3.547,3.547,3.5178,3.469,3.4673,3.4431,3.3986,3.3986,3.3986,3.3986,3.3986,3.3986,3.3986,3.4099,3.4611,3.5471,3.5383,3.5333,3.5316,3.545,3.5518,3.5501,3.5652,3.5673,3.5656,3.5673,3.5656,3.5609,3.5004,3.4917,3.5509,3.4974,3.4825,3.5369,3.5357,3.5347,3.5376,3.5392,3.5367,3.5436,3.5869,3.5911,3.5282,3.5902,3.6057,3.5355,3.5864,3.6258,3.6258,3.5797,3.5683,3.6196,3.5797,3.5489,3.5489,3.5489,3.5504,3.5489,3.5489,3.5489,3.5489,3.5489,3.5489,3.5489,3.5489,3.5489,3.5489,3.5489,3.5489,3.5489,3.5489,3.5489,3.5489,3.5489,3.5504,3.5439,3.5439,3.5359,3.5213,3.5016,3.4883,3.475,3.4549,3.4414,3.4414,3.4414,3.4414,3.4414,3.4414,3.4414,3.4414,3.4414,3.4414,3.8676,3.9152,3.8482,3.8192,3.8192,3.7756,3.7413,3.7094,3.745,3.717,3.6451,3.6409,3.6114,3.5711,3.5694,3.5667,3.5639,3.5639,3.5639,0.0,3.5639,3.5362,3.4927,3.4927,3.4642,3.4136,3.4119,3.407,3.3986,3.3986,3.3986,3.3986,3.3986,3.4002,3.4034,3.4568,3.491,3.508,3.4511,3.4235,3.4235,3.4805,3.5098,3.5131,3.5682,3.6023,3.6039,3.6007,3.5971,3.5796,3.5637,3.5604,3.5593,3.5387,3.5313,3.54,3.53,3.5512,3.6111,3.6143,3.6178,3.6199,3.5839,3.5548,3.5337,3.5937,3.6151,3.5554,3.5619,3.5619,3.5619,3.5554,3.5554,3.5619,3.5569,3.5489,3.5489,3.5489,3.5489,3.5489,3.5489,3.5489,3.5489,3.5489,3.5489,3.5489,3.5489,3.5489,3.5489,3.5489,3.5489,3.5489,3.5489,3.5489,3.5489,3.5489,3.5439,3.5294,3.5294,3.5294,3.5213,3.4949,3.4817,3.4868,3.4616,3.4414,3.4414,3.4414,3.4414,3.4414,3.4414,3.4414,3.4414,3.4414,3.4414,3.9659,3.9913,3.9301,3.9067,3.9031,3.8581,3.8146,3.7791,3.7958,3.7387,3.6318,3.6045,3.5783,3.5622,3.5639,3.5639,3.556,3.5333,3.5178,3.5115,3.488,3.4625,3.4415,3.4759,3.4426,3.3646,3.3946,3.3789,3.3193,3.3124,3.3108,3.314,3.3471,3.388,3.4274,3.4573,3.4731,3.4731,3.4995,3.5134,3.515,3.5441,3.5602,3.5602,3.5942,3.612,3.612,3.5997,3.5889,3.578,3.5379,3.5231,3.5498,3.513,3.5109,3.5445,3.5416,3.5477,3.5845,3.5876,3.589,3.5879,3.5668,3.5514,3.5407,3.5728,3.5797,3.5489,3.5489,3.5489,3.5489,3.5489,3.5489,3.5489,3.5489,3.5489,3.5489,3.5489,3.5489,3.5489,3.5489,3.5489,3.5489,3.5489,3.5489,3.5489,3.5489,3.5489,3.5489,3.5489,3.5489,3.5489,3.5489,3.5489,3.5489,3.5489,3.5439,3.5359,3.5359,3.5294,3.5213,3.4949,3.4802,3.475,3.4549,3.4414,3.4414,3.4414,3.4414,3.4414,3.4414,3.4414,3.4414,3.4414,3.4414,4.0456,4.0563,3.9914,3.9589,3.9469,3.9115,3.8747,3.8397,3.838,3.7727,3.6688,3.6265,3.5943,3.5639,3.5791,3.5785,3.5648,3.5224,3.5068,3.507,3.4673,3.4403,3.4349,3.4864,3.45,3.3675,3.4007,3.3786,3.2962,3.2859,3.2859,3.2906,3.3383,3.3937,3.4475,3.4688,3.4691,3.475,3.571,3.6062,3.5758,3.5902,3.5982,3.5998,3.6102,3.6222,3.6166,3.6055,3.5927,3.5855,3.521,3.5076,3.5447,3.5059,3.4951,3.5429,3.5489,3.5489,3.5489,3.5489,3.5489,3.5489,3.5489,3.5489,3.5489,3.5489,3.5489,3.5489,3.5489,3.5489,3.5489,3.5489,3.5489,3.5489,3.5489,3.5489,3.5489,3.5489,3.5489,3.5489,3.5489,3.5489,3.5489,3.5489,3.5489,3.5489,3.5489,3.5489,3.5489,3.5489,3.5489,3.5489,3.5489,3.5489,3.5489,3.5489,3.5504,3.5489,3.5489,3.5439,3.5294,3.5082,3.4935,3.4831,3.4616,3.4481,3.4481,3.4414,3.4414,3.4414,3.4414,3.4414,3.4414,3.4414,3.4414,4.031,4.0713,3.9741,3.8946,3.8684,3.8639,3.8357,3.8034,3.7953,3.7885,3.7699,3.7702,3.6878,3.5825,3.6366,3.6374,3.586,3.5827,3.5825,3.5918,3.5926,3.5658,3.5102,3.5245,3.498,3.4403,3.4438,3.4407,3.4226,3.4183,3.4318,3.4275,3.4352,3.4414,3.4552,3.5091,3.5383,3.5399,3.6106,3.5873,3.4759,3.5239,3.5564,3.5548,3.6136,3.6461,3.6445,3.6415,3.6338,3.6199,3.5966,3.5776,3.5695,3.5514,3.5429,3.5489,3.5489,3.5489,3.5489,3.5489,3.5489,3.5489,3.5489,3.5489,3.5489,3.5489,3.5489,3.5489,3.5489,3.5489,3.5489,3.5489,3.5489,3.5489,3.5489,3.5489,3.5489,3.5489,3.5489,3.5489,3.5489,3.5489,3.5489,3.5489,3.5489,3.5489,3.5489,3.5424,3.5359,3.5344,3.5279,3.5359,3.5424,3.5439,3.5439,3.5489,3.5489,3.5489,3.5489,3.5439,3.5374,3.5294,3.5148,3.4949,3.4831,3.4631,3.4481,3.4549,3.4346,3.4045,3.4128,3.4278,3.4346,3.4264,3.4196,4.0983,4.1205,4.0428,3.9871,3.9481,3.945,3.9353,3.9191,3.9191,3.8789,3.8137,3.8454,3.7836,3.6501,3.6768,3.6589,3.6013,3.5699,3.5578,3.5577,3.5331,3.5008,3.4883,3.5214,3.5097,3.4611,3.4876,3.486,3.458,3.446,3.466,3.5029,3.5076,3.5276,3.566,3.5938,3.6076,3.6091,3.6353,3.6215,3.5768,3.5938,3.6076,3.6107,3.6353,3.6492,3.6492,3.6414,3.6274,3.6211,3.5943,3.5752,3.5688,3.5539,3.5489,3.5489,3.5489,3.5489,3.5489,3.5489,3.5489,3.5489,3.5489,3.5489,3.5489,3.5489,3.5489,3.5489,3.5489,3.5489,3.5489,3.5489,3.5489,3.5489,3.5489,3.5489,3.5489,3.5489,3.5489,3.5489,3.5489,3.5489,3.5489,3.5489,3.5489,3.5489,3.5489,3.5279,3.4905,3.4758,3.4624,3.4288,3.4153,3.4572,3.5213,3.5489,3.5489,3.5489,3.5489,3.5504,3.5294,3.5294,3.5148,3.4949,3.4683,3.4332,3.3811,3.3742,3.3604,3.3381,3.303,3.303,3.303,3.303,3.303,4.1321,4.1213,4.0784,4.0385,4.0121,4.0087,4.002,3.9867,3.9867,3.9222,3.8266,3.8743,3.8307,3.7212,3.7055,3.6731,3.614,3.5768,3.5613,3.5598,3.5236,3.5029,3.5076,3.5507,3.5507,3.5183,3.5537,3.5507,3.5076,3.5029,3.5276,3.5691,3.5753,3.5999,3.6445,3.6492,3.6492,3.6492,3.6492,3.6492,3.6476,3.6492,3.6492,3.6492,3.6492,3.6492,3.6492,3.6352,3.6274,3.6211,3.5943,3.5767,3.5688,3.5604,3.5489,3.5489,3.5489,3.5489,3.5489,3.5489,3.5489,3.5489,3.5489,3.5489,3.5489,3.5489,3.5489,3.5489,3.5489,3.5489,3.5489,3.5489,3.5489,3.5489,3.5489,3.5489,3.5489,3.5359,3.5133,3.5148,3.4854,3.4868,3.4935,3.4986,3.5067,3.4787,3.4787,3.4706,3.4192,3.3959,3.3768,3.3283,3.3227,3.3644,3.4654,3.4721,3.4868,3.4868,3.4721,3.4706,3.4639,3.4639,3.4558,3.4002,3.4182,3.3977,3.3395,3.303,3.2791,3.2304,3.2087,3.2087,3.2304,3.216,3.216,4.0849,4.0754,4.0353,4.0121,4.007,4.0087,3.9747,3.9312,3.9259,3.8887,3.8309,3.8318,3.7978,3.7372,3.7191,3.6878,3.6327,3.6253,3.6232,3.6353,3.64,3.6384,3.6384,3.6445,3.6415,3.623,3.6292,3.6338,3.6307,3.6338,3.6415,3.643,3.6384,3.643,3.6429,3.6429,3.6492,3.6367,3.6352,3.6429,3.6429,3.6429,3.6429,3.6429,3.6492,3.6492,3.6492,3.6492,3.6414,3.6211,3.6022,3.5894,3.5688,3.5554,3.5504,3.5424,3.5504,3.5489,3.5424,3.5424,3.5424,3.5424,3.5294,3.5424,3.5294,3.5264,3.5249,3.5439,3.5309,3.5309,3.5344,3.5424,3.5439,3.5424,3.5504,3.5489,3.5424,3.4758,3.4394,3.4245,3.3851,3.3589,3.3437,3.3905,3.3973,3.3644,3.3367,3.3353,3.3297,3.3213,3.3143,3.3087,3.3003,3.3213,3.3297,3.3644,3.3575,3.3659,3.3796,3.3492,3.3367,3.3297,3.3199,3.3129,3.3171,3.3058,3.2761,3.2461,3.2087,3.1869,3.1723,3.1796,3.1502,3.1942,3.1869,4.0353,4.0353,4.0171,4.0087,4.007,3.9696,3.9418,3.9152,3.8794,3.8294,3.7796,3.7738,3.7401,3.6815,3.6747,3.6638,3.6473,3.6397,3.643,3.6538,3.6938,3.6907,3.6553,3.6923,3.6876,3.6538,3.6492,3.6492,3.6492,3.6492,3.6492,3.6492,3.6492,3.6352,3.6022,3.5958,3.5831,3.5494,3.5479,3.5479,3.5479,3.5479,3.5479,3.5479,3.6163,3.6492,3.6492,3.6492,3.6414,3.6211,3.61,3.5894,3.5688,3.5604,3.5279,3.4839,3.5213,3.5279,3.4839,3.4758,3.4491,3.407,3.4002,3.407,3.4056,3.4008,3.4018,3.4056,3.4037,3.4051,3.4249,3.4868,3.5294,3.4905,3.5133,3.5067,3.4356,3.4177,3.4105,3.3665,3.3297,3.3212,3.3227,3.3422,3.3478,3.3283,3.3227,3.2974,3.2577,3.2519,3.2403,3.1982,3.1823,3.1823,3.1823,3.2733,3.3213,3.3227,3.3227,3.3213,3.3157,3.3017,3.3003,3.2733,3.2618,3.2403,3.2101,3.1455,3.1233,3.1009,3.0947,3.0934,3.057,3.0934,3.0859,3.9969,3.9799,3.9799,3.9679,3.947,3.9082,3.881,3.859,3.8181,3.7679,3.7178,3.7134,3.6892,3.6554,3.6492,3.663,3.6799,3.683,3.6815,3.6846,3.7085,3.699,3.6654,3.6648,3.6413,3.6004,3.5958,3.6022,3.5943,3.5958,3.5958,3.5943,3.5958,3.5831,3.5479,3.5415,3.5219,3.4957,3.489,3.489,3.489,3.489,3.481,3.481,3.54,3.58,3.58,3.58,3.5657,3.54,3.5285,3.5073,3.4942,3.4839,3.4491,3.4056,3.4423,3.4572,3.4041,3.3959,3.3768,3.3297,3.3227,3.3227,3.3213,3.3184,3.3212,3.3227,3.3227,3.3184,3.3466,3.4326,3.4709,3.4182,3.4409,3.437,3.3367,3.3422,3.3199,3.2666,3.2684,3.2804,3.2777,3.298,3.298,3.2808,3.2887,3.2763,3.2219,3.2018,3.1977,3.1583,3.1346,3.132,3.1382,3.2098,3.2273,3.2245,3.239,3.2519,3.2662,3.2662,3.2519,3.2403,3.2128,3.1823,3.1307,3.0659,3.0305,3.0152,3.0152,3.0216,2.9998,2.9934,3.01,3.9747,3.9206,3.9189,3.8903,3.8518,3.8351,3.7953,3.7578,3.7417,3.7074,3.6662,3.6554,3.6554,3.6492,3.6429,3.6752,3.7167,3.721,3.7256,3.7272,3.6914,3.6637,3.6471,3.5672,3.5222,3.5088,3.4957,3.4957,3.5023,3.5088,3.5088,3.5008,3.5088,3.5008,3.489,3.489,3.4876,3.4758,3.4691,3.4758,3.4876,3.4677,3.4461,3.4245,3.423,3.4312,3.4312,3.4298,3.423,3.3782,3.3644,3.3437,3.3353,3.3353,3.3227,3.3255,3.3227,3.3297,3.3213,3.3213,3.3143,3.2946,3.3087,3.2946,3.2861,3.2989,3.2989,3.2946,3.296,3.3017,3.31,3.3577,3.3817,3.3354,3.3466,3.3593,3.31,3.2547,3.1896,3.1487,3.1827,3.2031,3.2051,3.2493,3.2616,3.2336,3.2473,3.2618,3.2146,3.1977,3.2162,3.2241,3.181,3.1352,3.1378,3.1392,3.1232,3.1123,3.1272,3.1408,3.1616,3.1616,3.1616,3.1482,3.1482,3.1185,3.1097,3.0444,3.0292,3.0152,2.9921,2.9792,2.9779,2.9804,2.9867,3.9135,3.8629,3.8574,3.8518,3.8238,3.7854,3.7578,3.7358,3.6952,3.6677,3.6492,3.6492,3.6492,3.6429,3.6148,3.608,3.6228,3.6375,3.6601,3.6799,3.6402,3.5911,3.5599,3.557,3.5385,3.4949,3.489,3.489,3.489,3.4905,3.489,3.489,3.489,3.4691,3.4341,3.4356,3.4221,3.3825,3.3534,3.3381,3.3381,3.3101,3.2946,3.2804,3.2804,3.2676,3.2519,3.3339,3.3754,3.3437,3.3506,3.3185,3.265,3.2904,3.2929,3.2573,3.2929,3.2946,3.2506,3.2434,3.2232,3.1823,3.169,3.1676,3.169,3.175,3.1763,3.169,3.169,3.169,3.1783,3.2212,3.2516,3.2458,3.3584,3.3657,3.2577,3.2374,3.219,3.1688,3.1774,3.1998,3.2227,3.2486,3.2381,3.2463,3.2633,3.2633,3.2489,3.2437,3.245,3.2581,3.198,3.1614,3.1705,3.1561,3.1209,3.1026,3.0986,3.0986,3.0986,3.0986,3.0911,3.0911,3.0911,3.0836,3.0609,3.0522,3.0407,3.0215,3.0009,2.9919,2.9792,2.9867,3.0005,3.8518,3.7953,3.7969,3.7838,3.7621,3.7238,3.7058,3.7013,3.6662,3.6492,3.6492,3.6289,3.6211,3.6085,3.5608,3.5564,3.5708,3.5465,3.5545,3.6022,3.5781,3.5444,3.5171,3.499,3.4791,3.4433,3.4535,3.4506,3.4317,3.452,3.452,3.4346,3.4303,3.407,3.3589,3.3534,3.3339,3.2874,3.2646,3.2489,3.2417,3.22,3.2055,3.1909,3.1909,3.1703,3.1482,3.2232,3.2648,3.2591,3.2605,3.2277,3.1802,3.2087,3.2136,3.1917,3.2058,3.2173,3.1736,3.1663,3.1529,3.1123,3.0986,3.0986,3.0986,3.0986,3.0986,3.0986,3.1061,3.1078,3.1326,3.1823,3.2159,3.231,3.3301,3.3351,3.2198,3.2332,3.2382,3.199,3.1993,3.2371,3.2751,3.2803,3.262,3.2973,3.3208,3.3182,3.3117,3.3025,3.3077,3.2908,3.2333,3.2136,3.211,3.1771,3.1287,3.1104,3.0986,3.0986,3.0986,3.0986,3.0986,3.0986,3.0986,3.0911,3.0773,3.0829,3.0714,3.047,3.0264,3.0221,3.0218,3.0181,3.0294,3.7895,3.7358,3.7405,3.7167,3.6724,3.6599,3.6615,3.6521,3.6352,3.6289,3.6226,3.5816,3.5672,3.5544,3.5088,3.5156,3.5516,3.4661,3.4433,3.4862,3.4893,3.4965,3.5209,3.4185,3.3649,3.3677,3.4001,3.393,3.372,3.3944,3.3872,3.348,3.3297,3.3086,3.2846,3.2704,3.2561,3.2286,3.2128,3.2055,3.2055,3.1982,3.185,3.1556,3.1556,3.1421,3.1123,3.1198,3.1198,3.1061,3.1198,3.1198,3.1048,3.0986,3.1136,3.1101,3.1061,3.1123,3.1061,3.1123,3.1061,3.1061,3.0986,3.0986,3.0986,3.0986,3.1039,3.113,3.1117,3.1313,3.1849,3.2411,3.2765,3.2777,3.3067,3.2752,3.2149,3.2518,3.2625,3.2319,3.2439,3.2995,3.3519,3.3535,3.3509,3.3679,3.3979,3.3927,3.377,3.3679,3.3888,3.3509,3.2908,3.2698,3.2698,3.228,3.1836,3.1718,3.1496,3.1313,3.1182,3.113,3.1339,3.13,3.1222,3.1156,3.1057,3.119,3.1177,3.0944,3.076,3.0662,3.057,3.0561,3.0595,3.7298,3.6831,3.7266,3.742,3.7167,3.6816,3.6607,3.6546,3.5674,3.5415,3.5285,3.5154,3.5154,3.5088,3.4543,3.4457,3.434,3.3856,3.3677,3.3884,3.3535,3.3593,3.3946,3.3593,3.348,3.3844,3.3793,3.3868,3.4104,3.3661,3.3353,3.3088,3.2736,3.2444,3.2273,3.2286,3.22,3.2055,3.185,3.1703,3.1703,3.1408,3.1272,3.1198,3.1198,3.1136,3.0986,3.0986,3.0986,3.0986,3.0986,3.0986,3.0986,3.0986,3.0986,3.0986,3.0986,3.0986,3.0986,3.0986,3.0986,3.0986,3.0986,3.0986,3.0986,3.0986,3.1196,3.1483,3.1627,3.1862,3.2424,3.2999,3.347,3.3822,3.3574,3.326,3.3171,3.3542,3.3766,3.3275,3.3273,3.3597,3.3866,3.3875,3.3783,3.4071,3.4254,3.4358,3.4123,3.4097,3.4201,3.4097,3.3692,3.3443,3.3182,3.2764,3.2489,3.2424,3.2189,3.1862,3.1653,3.1444,3.1823,3.215,3.2006,3.1927,3.1759,3.1694,3.1576,3.1562,3.1251,3.1064,3.0896,3.0833,3.1032,3.7204,3.6953,3.7338,3.7533,3.7395,3.6632,3.628,3.6171,3.5385,3.489,3.4876,3.4677,3.4543,3.4476,3.3796,3.352,3.3465,3.3002,3.2911,3.2928,3.2928,3.2849,3.2814,3.2816,3.2996,3.3356,3.3647,3.3731,3.3882,3.3723,3.3647,3.3335,3.2793,3.2374,3.2213,3.193,3.1776,3.1629,3.1421,3.1347,3.1347,3.1136,3.1061,3.0986,3.0986,3.0986,3.0986,3.0986,3.0986,3.0986,3.0986,3.0986,3.0986,3.0986,3.0986,3.0986,3.0986,3.0986,3.0986,3.0986,3.0986,3.0986,3.0986,3.0986,3.0986,3.0999,3.1235,3.1731,3.1785,3.2227,3.2932,3.36,3.4031,3.4241,3.4123,3.3849,3.3639,3.4043,3.4057,3.3839,3.3762,3.3978,3.4384,3.4097,3.4123,3.428,3.4358,3.4397,3.4358,3.4397,3.4384,3.4254,3.4045,3.3692,3.3535,3.3221,3.2921,3.2868,3.2803,3.2476,3.2293,3.2019,3.2254,3.262,3.2659,3.2659,3.241,3.2356,3.2429,3.2285,3.187,3.1675,3.158,3.136,3.1546,3.7256,3.7272,3.7333,3.7405,3.7308,3.6154,3.5733,3.5692,3.5014,3.4624,3.4476,3.4153,3.3865,3.3865,3.303,3.2632,3.2632,3.2417,3.2223,3.2394,3.2536,3.2617,3.2415,3.2636,3.2717,3.2948,3.3607,3.3693,3.3738,3.4319,3.4241,3.3651,3.3109,3.2648,3.2222,3.1761,3.1373,3.1123,3.1136,3.1061,3.1061,3.0986,3.0986,3.0986,3.0986,3.0986,3.0986,3.0986,3.0986,3.0986,3.0986,3.0986,3.0986,3.0986,3.0986,3.0986,3.0986,3.0986,3.0986,3.0986,3.0986,3.0999,3.1065,3.1065,3.1143,3.1196,3.1483,3.2202,3.1976,3.2546,3.3493,3.4123,3.4306,3.4384,3.4371,3.4149,3.3914,3.411,3.4214,3.3783,3.4149,3.4345,3.4397,3.4397,3.4397,3.4332,3.4397,3.4397,3.4397,3.4397,3.4397,3.4371,3.4097,3.377,3.3718,3.3679,3.3417,3.3247,3.326,3.3117,3.3077,3.2908,3.2855,3.2973,3.3287,3.3234,3.2934,3.2943,3.32,3.3014,3.2639,3.262,3.2692,3.2209,3.2166,3.5428,3.5472,3.603,3.6558,3.6754,3.579,3.5485,3.5739,3.4282,3.3479,3.3255,3.3044,3.2832,3.2547,3.2372,3.22,3.2268,3.2164,3.2212,3.2324,3.2114,3.2304,3.2603,3.3145,3.3707,3.3927,3.4017,3.4193,3.446,3.402,3.3778,3.3634,3.2815,3.2067,3.1937,3.1451,3.1136,3.0986,3.0986,3.0986,3.0986,3.0986,3.0986,3.0986,3.0986,3.0986,3.0986,3.0986,3.0986,3.0986,3.0986,3.0986,3.0986,3.0986,3.0986,3.0986,3.0986,3.0986,3.0986,3.0986,3.0986,3.1013,3.1365,3.1653,3.1589,3.1641,3.215,3.2828,3.2849,3.304,3.3949,3.4293,3.4384,3.4397,3.4397,3.4358,3.4254,3.4306,3.4293,3.428,3.4293,3.4397,3.4397,3.4397,3.4397,3.4397,3.4397,3.4397,3.4397,3.4397,3.4397,3.4397,3.428,3.4018,3.4018,3.4018,3.3875,3.3692,3.3692,3.3679,3.3652,3.3613,3.3496,3.3705,3.4071,3.3849,3.3443,3.3679,3.3949,3.3675,3.3359,3.3303,3.3209,3.289,3.2752,3.5598,3.5406,3.6026,3.6344,3.6195,3.4992,3.4569,3.4538,3.342,3.2646,3.2489,3.2417,3.2273,3.2096,3.2192,3.2267,3.2259,3.2337,3.2465,3.2579,3.2581,3.2842,3.3117,3.3688,3.4126,3.394,3.3913,3.4083,3.416,3.4183,3.4061,3.3875,3.2803,3.2319,3.2071,3.1444,3.1026,3.0986,3.0986,3.0986,3.0986,3.0986,3.0986,3.0986,3.0986,3.0986,3.0986,3.0986,3.0986,3.0986,3.0986,3.0986,3.0986,3.0986,3.0986,3.0986,3.0986,3.0986,3.0986,3.0986,3.0986,3.0999,3.1509,3.1744,3.1863,3.2032,3.2619,3.3258,3.3424,3.3454,3.4236,3.4397,3.4397,3.4397,3.4397,3.4397,3.4397,3.4397,3.4397,3.4397,3.4384,3.4397,3.4397,3.4397,3.4397,3.4397,3.4397,3.4397,3.4397,3.4397,3.4397,3.4397,3.4397,3.4345,3.4345,3.4332,3.4293,3.4188,3.4136,3.4136,3.4123,3.4084,3.4058,3.4228,3.4332,3.4306,3.4031,3.4319,3.4345,3.4123,3.3832,3.3766,3.3593,3.3338,3.3276,3.5842,3.5473,3.593,3.5854,3.5339,3.396,3.3421,3.3418,3.2532,3.2128,3.2055,3.2055,3.1982,3.1944,3.207,3.2213,3.2312,3.2593,3.2673,3.2935,3.3208,3.3496,3.3744,3.4048,3.397,3.3064,3.3603,3.3891,3.4022,3.4136,3.428,3.4188,3.3203,3.2709,3.2502,3.1539,3.0996,3.1172,3.1057,3.1003,3.0999,3.0986,3.0986,3.0986,3.0986,3.0986,3.0986,3.0986,3.0986,3.0986,3.0986,3.0986,3.0986,3.0986,3.0986,3.0986,3.0986,3.0986,3.0986,3.0986,3.0986,3.1013,3.1509,3.1875,3.2071,3.2397,3.2969,3.3493,3.3762,3.3874,3.4371,3.4397,3.4397,3.4397,3.4397,3.4397,3.4397,3.4397,3.4397,3.4397,3.4397,3.4397,3.4397,3.4397,3.4397,3.4397,3.4397,3.4397,3.4397,3.4397,3.4397,3.4397,3.4397,3.4397,3.4397,3.4397,3.4397,3.4314,3.4314,3.4314,3.4314,3.4332,3.4254,3.4319,3.4371,3.4345,3.4332,3.4371,3.4358,3.4319,3.4241,3.4084,3.3923,3.3706,3.3669,3.3353,3.3198,3.2938,3.3152,3.3408,3.2718,3.2673,3.3036,3.2372,3.1923,3.1703,3.1703,3.1482,3.1325,3.1202,3.1481,3.2096,3.262,3.2984,3.3284,3.3476,3.3632,3.3926,3.403,3.4061,3.4201,3.4105,3.4009,3.4131,3.4358,3.4301,3.4074,3.3186,3.2782,3.2603,3.1737,3.0972,3.1242,3.0996,3.0791,3.084,3.0849,3.0748,3.0748,3.0748,3.0823,3.0898,3.0898,3.0986,3.0986,3.0986,3.0973,3.096,3.096,3.0986,3.0986,3.0986,3.0986,3.0986,3.0986,3.0986,3.1117,3.1509,3.2084,3.2358,3.2688,3.3204,3.3853,3.4171,3.4275,3.4384,3.4397,3.4397,3.4397,3.4397,3.4397,3.4397,3.4314,3.4314,3.4314,3.4314,3.4397,3.4397,3.4397,3.4397,3.4397,3.4397,3.4397,3.4397,3.4397,3.4397,3.4397,3.4397,3.4397,3.4397,3.4314,3.4314,3.4147,3.4147,3.4063,3.4147,3.4314,3.4397,3.423,3.4314,3.4384,3.4384,3.4397,3.4384,3.4358,3.4319,3.428,3.4145,3.3926,3.3811,3.2704,3.2372,3.254,3.2589,3.2535,3.2044,3.2011,3.2213,3.1763,3.1421,3.1347,3.1272,3.1198,3.114,3.1339,3.1888,3.2593,3.292,3.3238,3.3412,3.3173,3.3068,3.3348,3.3348,3.3348,3.325,3.3335,3.353,3.3882,3.423,3.3953,3.3305,3.2718,3.2548,3.2256,3.1294,3.0865,3.1052,3.0641,3.0365,3.0365,3.0214,2.996,2.9781,2.9871,2.9871,2.9704,2.9947,3.0037,3.0037,3.019,3.0316,3.034,3.0581,3.0761,3.0911,3.0911,3.0986,3.0986,3.0986,3.0986,3.1039,3.1509,3.2084,3.2632,3.3027,3.3495,3.3998,3.4076,3.4147,3.4243,3.4243,3.4327,3.4314,3.4314,3.4217,3.4217,3.4121,3.4024,3.4037,3.423,3.4314,3.4397,3.4397,3.4397,3.4397,3.4397,3.4397,3.4314,3.4217,3.4134,3.3953,3.3869,3.3784,3.3771,3.3687,3.3687,3.37,3.3615,3.353,3.353,3.353,3.3713,3.3713,3.3979,3.405,3.4397,3.4397,3.4397,3.4314,3.4191,3.4082,3.4134,3.4076,3.3725,3.2515,3.2023,3.2523,3.2368,3.189,3.1629,3.1495,3.1421,3.0973,3.0823,3.0823,3.0672,3.0583,3.0764,3.1254,3.204,3.3049,3.298,3.3126,3.3054,3.2611,3.2289,3.2202,3.2127,3.2202,3.2103,3.2103,3.2389,3.3104,3.353,3.3177,3.266,3.2359,3.2112,3.154,3.0797,3.0544,3.0301,2.9854,2.9552,2.9363,2.909,2.8676,2.8347,2.8664,2.8664,2.8493,2.8743,2.8834,2.8991,2.911,2.9285,2.9404,2.9821,3.0203,3.0318,3.0533,3.0596,3.0596,3.0508,3.0572,3.102,3.1447,3.1941,3.254,3.2985,3.3585,3.3861,3.3874,3.3797,3.3979,3.3992,3.4063,3.4063,3.3894,3.3713,3.359,3.3467,3.3356,3.3551,3.394,3.4147,3.4147,3.4327,3.4243,3.423,3.4147,3.405,3.405,3.3615,3.3518,3.3237,3.3152,3.3079,3.2895,3.2698,3.271,3.2735,3.255,3.2451,3.2476,3.2389,3.2661,3.292,3.3091,3.325,3.3771,3.4134,3.3966,3.3797,3.3882,3.3602,3.298,3.2809,3.2649,3.1696,3.1643,3.1352,3.1189,3.1123,3.1048,3.1061,3.096,3.0432,3.0114,3.0114,2.9639,2.9406,2.9605,3.0344,3.0852,3.1323,3.1834,3.2253,3.2202,3.204,3.1677,3.1665,3.1677,3.1211,3.0932,3.092,3.1565,3.2115,3.2389,3.2389,3.1991,3.1541,3.1428,3.1109,3.0194,2.978,2.9834,2.9086,2.8391,2.8138,2.8007,2.7903,2.7844,2.7844,2.7844,2.7683,2.7775,2.7855,2.7936,2.8004,2.8023,2.8139,2.8839,2.8712,2.865,2.8785,2.9316,2.9316,2.9484,3.002,3.0713,3.1241,3.1601,3.2262,3.2838,3.3283,3.3687,3.3658,3.3543,3.3628,3.3713,3.3797,3.3445,3.3104,3.2747,3.2537,3.2401,3.2278,3.25,3.2735,3.336,3.3641,3.3907,3.416,3.4076,3.3979,3.3713,3.3518,3.298,3.2624,3.2339,3.2079,3.2003,3.2016,3.1816,3.1653,3.1677,3.1488,3.13,3.1223,3.1235,3.1765,3.2028,3.2103,3.2451,3.3139,3.3335,3.3275,3.2993,3.271,3.1979,3.1264,3.1288,3.1589,3.0165,3.0165,3.0037,2.9947,2.9947,3.0279,3.019,2.996,2.996,2.9793,2.9394,2.8912,2.8585,2.8595,2.9244,2.963,2.9929,3.0399,3.062,3.0765,3.0609,3.0249,2.9977,2.9977,2.9784,2.9772,2.959,2.9704,3.0429,3.0944,3.1199,3.0429,3.0362,3.0158,3.0158,2.936,2.9145,2.9037,2.85,2.7674,2.7004,2.6918,2.6869,2.6434,2.6599,2.6588,2.6494,2.6577,2.667,2.6753,2.6905,2.7105,2.7186,2.7532,2.7626,2.6805,2.7012,2.7602,2.8255,2.8755,2.9468,3.0303,3.0899,3.1603,3.2345,3.2877,3.2842,3.2744,3.3133,3.3154,3.3031,3.33,3.3189,3.2834,3.2215,3.1753,3.1388,3.1175,3.1151,3.1376,3.1601,3.204,3.2476,3.2649,3.2636,3.2451,3.2265,3.2079,3.1991,3.1716,3.1352,3.1163,3.1009,3.0932,3.0944,3.0855,3.0508,3.0441,3.0351,3.017,2.9977,3.0068,3.0508,3.0699,3.0687,3.13,3.2253,3.2253,3.1916,3.1641,3.1352,3.073,3.0293,3.0699,3.1074,2.8779,2.8621,2.8924,2.9081,2.916,2.9549,2.9561,2.916,2.9225,2.9081,2.8597,2.8039,2.7545,2.7557,2.7972,2.8538,2.8763,2.8944,2.9229,2.9168,2.9002,2.8806,2.8724,2.8631,2.8538,2.8362,2.8434,2.8445,2.8713,2.9235,2.9407,2.8713,2.936,2.9176,2.8713,2.8527,2.8451,2.8028,2.7769,2.7036,2.6249,2.6282,2.5947,2.5626,2.5466,2.5498,2.5147,2.538,2.5559,2.5633,2.5779,2.5946,2.599,2.6412,2.6345,2.5843,2.5931,2.6235,2.6883,2.7499,2.8578,2.9399,3.0089,3.0773,3.1893,3.2516,3.25,3.1603,3.2259,3.2189,3.1889,3.2152,3.2052,3.1689,3.1247,3.0699,3.0226,3.0022,3.0011,3.0135,3.0339,3.0328,3.0777,3.1045,3.1033,3.0831,3.0641,3.0551,3.0371,3.0371,3.0022,2.975,2.9498,2.9418,2.9429,2.9441,2.9279,2.9279,2.9198,2.9198,2.9084,2.8991,2.9176,2.9257,2.9441,2.9612,3.0203,3.0395,3.0485,3.0305,3.0124,2.9863,2.9692,3.0045,3.0514,2.7857,2.7464,2.8621,2.9003,2.9081,2.9147,2.916,2.8755,2.8119,2.7706,2.7395,2.6599,2.6207,2.6271,2.6951,2.7338,2.7536,2.8346,2.856,2.8669,2.8713,2.8362,2.8175,2.7987,2.7893,2.7536,2.7631,2.7536,2.7536,2.7904,2.8258,2.8631,2.8631,2.8445,2.8175,2.8081,2.7681,2.7294,2.7022,2.6647,2.6124,2.6009,2.5774,2.5363,2.5228,2.4995,2.4581,2.4721,2.4796,2.4796,2.4871,2.4956,2.5158,2.5527,2.5452,2.5136,2.5294,2.5421,2.5589,2.6113,2.6835,2.7862,2.8841,2.9687,3.0652,3.0919,3.0719,3.0601,3.1241,3.1181,3.0722,3.0441,3.08,3.0441,3.0079,2.9532,2.9165,2.898,2.8877,2.898,2.9073,2.9165,2.9154,2.9429,2.9692,2.9579,2.959,2.9407,2.9143,2.8969,2.8516,2.8164,2.7893,2.7715,2.7726,2.782,2.8186,2.8269,2.8175,2.8362,2.8538,2.8456,2.8269,2.8362,2.8538,2.8445,2.8341,2.8969,2.9235,2.9061,2.8899,2.8746,2.8871,2.9172,2.9814,2.729,2.6869,2.7325,2.7661,2.8007,2.8395,2.8143,2.7568,2.7476,2.6905,2.6091,2.5633,2.5466,2.5614,2.5781,2.6351,2.6816,2.7144,2.7617,2.7746,2.7809,2.7726,2.7536,2.7536,2.7441,2.7357,2.7272,2.7272,2.7357,2.7272,2.7452,2.7715,2.7904,2.7715,2.7631,2.761,2.7171,2.69,2.6775,2.6651,2.6061,2.6165,2.6082,2.5678,2.5306,2.5181,2.4954,2.4674,2.4592,2.455,2.455,2.455,2.455,2.4946,2.4861,2.454,2.4935,2.4861,2.4796,2.538,2.6468,2.7786,2.8717,2.9286,2.9676,3.0117,2.9886,2.9931,3.0182,3.0272,2.9532,2.9806,3.017,2.9452,2.891,2.8456,2.8175,2.8081,2.8081,2.8269,2.8175,2.8081,2.7987,2.7893,2.8164,2.8341,2.8341,2.8351,2.8175,2.7987,2.7726,2.7536,2.7357,2.7272,2.7272,2.7357,2.7357,2.7441,2.7441,2.7715,2.7998,2.782,2.7631,2.7726,2.7809,2.7809,2.7904,2.7987,2.8175,2.8175,2.8051,2.7841,2.803,2.8408,2.9194,2.6644,2.629,2.6279,2.6456,2.6891,2.729,2.7021,2.6445,2.667,2.6174,2.5041,2.4967,2.5039,2.5006,2.5388,2.5699,2.6381,2.6755,2.7066,2.7253,2.7357,2.7272,2.7272,2.7357,2.7357,2.7272,2.7272,2.7272,2.7272,2.7272,2.7357,2.7357,2.7272,2.7357,2.7357,2.7241,2.7086,2.6951,2.6972,2.7024,2.6413,2.6579,2.6548,2.6103,2.5699,2.5357,2.5119,2.4799,2.4571,2.455,2.455,2.455,2.455,2.455,2.455,2.455,2.455,2.455,2.4732,2.521,2.6173,2.7348,2.7977,2.8451,2.8962,2.9382,2.9231,2.8545,2.909,2.936,2.8445,2.8724,2.8899,2.8269,2.8269,2.7904,2.7726,2.7536,2.7547,2.7547,2.7452,2.7547,2.7547,2.7536,2.7631,2.7799,2.7809,2.7809,2.7726,2.7536,2.7452,2.7357,2.7367,2.7272,2.7272,2.7357,2.7357,2.7357,2.7357,2.7357,2.7452,2.7272,2.7272,2.7452,2.7452,2.7357,2.7514,2.7788,2.7641,2.7367,2.744,2.7513,2.8084,2.8588,2.8946,2.5906,2.5895,2.5895,2.5906,2.5895,2.5979,2.5968,2.5801,2.5538,2.5115,2.4625,2.454,2.4581,2.4819,2.5409,2.5823,2.6185,2.6796,2.7179,2.7231,2.7272,2.7272,2.7272,2.7262,2.7272,2.7262,2.7262,2.7262,2.7272,2.7272,2.7272,2.7177,2.7177,2.7262,2.7272,2.7272,2.7251,2.7251,2.7251,2.7169,2.7107,2.7107,2.6879,2.6568,2.6009,2.5606,2.5337,2.4809,2.4485,2.455,2.455,2.455,2.455,2.455,2.455,2.455,2.4581,2.4602,2.4633,2.5006,2.5821,2.6515,2.7099,2.7271,2.7568,2.807,2.8456,2.7831,2.829,2.8269,2.782,2.7441,2.7536,2.762,2.7631,2.7536,2.7357,2.7272,2.7272,2.7272,2.7272,2.7367,2.7367,2.7367,2.7357,2.7357,2.7357,2.7272,2.7272,2.7272,2.7272,2.7272,2.7272,2.7272,2.7272,2.7272,2.7367,2.7272,2.7272,2.7272,2.7272,2.7272,2.7272,2.7272,2.7376,2.7479,2.7552,2.7624,2.7676,2.7707,2.7427,2.7562,2.8173,2.8731,2.9145,2.5728,2.5454,2.5454,2.5211,2.5052,2.5644,2.5717,2.538,2.4956,2.4625,2.454,2.455,2.4747,2.5047,2.5295,2.5761,2.633,2.6486,2.6879,2.7251,2.7272,2.7272,2.7272,2.7081,2.7081,2.6986,2.6986,2.688,2.6784,2.6986,2.688,2.6784,2.688,2.6976,2.7167,2.7272,2.7262,2.7262,2.7262,2.7262,2.7272,2.7251,2.7179,2.6962,2.6289,2.5802,2.5575,2.4867,2.4485,2.4464,2.4464,2.4454,2.4464,2.4464,2.4454,2.4547,2.4757,2.5316,2.5678,2.6051,2.5896,2.6061,2.632,2.6672,2.69,2.739,2.7474,2.7441,2.7631,2.7631,2.7441,2.7357,2.7452,2.7452,2.7357,2.7357,2.7272,2.7272,2.7272,2.7272,2.7272,2.7272,2.7272,2.7272,2.7272,2.7272,2.7272,2.7272,2.7272,2.7272,2.7272,2.7272,2.7272,2.7272,2.7272,2.7272,2.7272,2.7272,2.7272,2.7272,2.7272,2.7272,2.7314,2.7345,2.7531,2.7717,2.7903,2.8079,2.8214,2.8183,2.7976,2.7935,2.8431,2.8938,2.9342,2.5211,2.4956,2.4946,2.4786,2.4625,2.5137,2.5221,2.4956,2.4625,2.455,2.455,2.455,2.4664,2.4954,2.5223,2.5564,2.631,2.6527,2.6744,2.7125,2.7177,2.7081,2.6986,2.689,2.6794,2.6709,2.6699,2.6699,2.6592,2.6699,2.6699,2.6592,2.6496,2.6688,2.688,2.6976,2.6976,2.6976,2.6976,2.6976,2.6976,2.6976,2.7071,2.6794,2.63,2.5684,2.5458,2.4975,2.4282,2.4282,2.4282,2.4282,2.4282,2.4282,2.4282,2.4405,2.4831,2.5314,2.5562,2.6239,2.5992,2.5604,2.627,2.6661,2.6837,2.7127,2.721,2.7262,2.7262,2.7262,2.7262,2.7262,2.7272,2.7272,2.7272,2.7272,2.7272,2.7272,2.7272,2.7272,2.7272,2.7272,2.7272,2.7272,2.7272,2.7272,2.7272,2.7272,2.7272,2.7272,2.7293,2.7324,2.7293,2.7282,2.7282,2.7272,2.7272,2.7272,2.7324,2.7396,2.7272,2.7272,2.7345,2.7458,2.7696,2.7976,2.8338,2.8556,2.8628,2.868,2.8649,2.868,2.8835,2.9125,2.9508,2.4454,2.4454,2.4454,2.4454,2.455,2.4625,2.454,2.454,2.455,2.455,2.455,2.455,2.4592,2.4664,2.5006,2.5372,2.5826,2.633,2.6609,2.6863,2.689,2.6794,2.6592,2.6506,2.6496,2.6496,2.6486,2.64,2.64,2.64,2.64,2.641,2.6314,2.641,2.64,2.6496,2.6496,2.6582,2.6688,2.6688,2.6688,2.6592,2.6638,2.6449,2.592,2.5473,2.5106,2.45,2.4038,2.3841,2.3841,2.3841,2.3841,2.3841,2.3841,2.4042,2.4679,2.4905,2.5239,2.6001,2.6144,2.5969,2.6344,2.6894,2.704,2.6935,2.6965,2.7071,2.7071,2.7167,2.7167,2.7167,2.7177,2.7177,2.7272,2.7272,2.7272,2.7272,2.7272,2.7272,2.7272,2.7272,2.7272,2.7272,2.7272,2.7272,2.7272,2.7272,2.7272,2.7272,2.7314,2.7427,2.7386,2.7314,2.7314,2.7417,2.7303,2.7324,2.7562,2.7645,2.7469,2.7417,2.7614,2.78,2.7945,2.8276,2.8876,2.9042,2.898,2.9052,2.9177,2.9094,2.9145,2.9301,2.9611,2.329,2.3754,2.3754,2.4024,2.4454,2.4464,2.455,2.455,2.455,2.455,2.455,2.455,2.4464,2.4571,2.4695,2.5046,2.5419,2.5839,2.6154,2.6405,2.6582,2.6592,2.6496,2.6304,2.6197,2.6197,2.6197,2.611,2.6014,2.5917,2.5917,2.5927,2.6024,2.6024,2.5927,2.5917,2.6207,2.6304,2.64,2.64,2.64,2.64,2.6355,2.5973,2.5531,2.5108,2.4655,2.4193,2.3794,2.3754,2.3754,2.3754,2.3841,2.3881,2.3981,2.4776,2.531,2.5694,2.5893,2.6249,2.6275,2.6149,2.633,2.6456,2.6592,2.6688,2.6699,2.6794,2.689,2.689,2.688,2.688,2.689,2.6986,2.6986,2.7071,2.7071,2.7167,2.7167,2.7272,2.7272,2.7272,2.7272,2.7272,2.7272,2.7272,2.7282,2.7293,2.7282,2.7293,2.7314,2.7427,2.7531,2.7469,2.7624,2.7748,2.7521,2.7407,2.7676,2.7893,2.7841,2.7852,2.8007,2.8245,2.8535,2.9032,2.9622,2.9611,2.9425,2.9601,2.9715,2.9559,2.9466,2.9591,2.9694,2.2668,2.3038,2.3038,2.3309,2.356,2.3464,2.3387,2.3474,2.4186,2.4464,2.4368,2.4378,2.4292,2.4196,2.4247,2.4496,2.5047,2.5331,2.5674,2.5969,2.6234,2.6187,2.611,2.6014,2.6014,2.5907,2.5917,2.5927,2.5732,2.5732,2.5732,2.5732,2.5732,2.5732,2.5732,2.5732,2.5927,2.6024,2.612,2.6217,2.6217,2.6197,2.5938,2.5644,2.5205,2.4776,2.4326,2.3887,2.361,2.3493,2.3484,2.3493,2.3493,2.3523,2.3829,2.4506,2.5035,2.5351,2.57,2.6124,2.6254,2.6207,2.611,2.6024,2.613,2.6247,2.643,2.6516,2.6506,2.6506,2.6496,2.6496,2.6602,2.6709,2.6794,2.6784,2.688,2.6976,2.6976,2.7081,2.7177,2.7177,2.7272,2.7272,2.7272,2.7272,2.7334,2.7427,2.7396,2.7365,2.7345,2.7386,2.7552,2.7655,2.7841,2.8007,2.7903,2.7779,2.7852,2.8028,2.81,2.8276,2.8442,2.8814,2.9239,2.9632,2.9922,2.9953,2.988,2.9994,2.9994,2.9839,2.9725,2.9798,2.9891,2.2129,2.2217,2.2306,2.2296,2.2217,2.1863,2.1774,2.1872,2.3377,2.411,2.4024,2.412,2.4024,2.3927,2.3947,2.4183,2.4716,2.5078,2.5325,2.5421,2.5537,2.5596,2.5518,2.5538,2.5323,2.5528,2.5732,2.5732,2.5732,2.5732,2.5732,2.5732,2.5732,2.5732,2.5732,2.5732,2.5732,2.583,2.583,2.583,2.583,2.5674,2.5604,2.5293,2.4785,2.4291,2.4019,2.3585,2.3144,2.3144,2.3144,2.3144,2.3242,2.3369,2.3712,2.4045,2.4769,2.5164,2.5464,2.5866,2.5877,2.582,2.5732,2.5732,2.5946,2.5956,2.614,2.6227,2.6227,2.6217,2.6217,2.6207,2.6314,2.64,2.6486,2.6582,2.6688,2.6688,2.6784,2.689,2.689,2.6986,2.6986,2.6986,2.6976,2.7167,2.7218,2.7246,2.7363,2.7311,2.75,2.7469,2.7479,2.7696,2.8048,2.8204,2.8286,2.8245,2.8286,2.839,2.8618,2.8763,2.8876,2.9177,2.9466,2.9746,2.9984,2.9994,2.9994,2.9994,2.9994,2.9994,2.9984,2.9973,2.9973,1.9994,2.052,2.1033,2.1203,2.1212,2.1123,2.1033,2.1123,2.1471,2.2208,2.2843,2.3474,2.3744,2.3484,2.3484,2.3742,2.4364,2.4316,2.5071,2.4957,2.4897,2.4506,2.4473,2.4426,2.4464,2.4805,2.5118,2.543,2.5333,2.543,2.5635,2.5635,2.5625,2.5528,2.5732,2.5732,2.5732,2.5732,2.5732,2.5732,2.5732,2.5615,2.542,2.4967,2.4394,2.4082,2.3761,2.3301,2.3164,2.3144,2.3144,2.331,2.3603,2.3896,2.4287,2.4678,2.4869,2.5173,2.5486,2.5722,2.5703,2.5723,2.5732,2.5732,2.5732,2.5752,2.5849,2.5936,2.5936,2.5936,2.5936,2.5927,2.6024,2.61,2.6187,2.6294,2.64,2.6496,2.6496,2.6592,2.6592,2.6592,2.6688,2.6688,2.6688,2.6688,2.6688,2.6749,2.6896,2.7013,2.7477,2.7544,2.7458,2.7645,2.8131,2.8504,2.8528,2.8856,2.8959,2.9052,2.9135,2.928,2.9394,2.9415,2.9601,2.9849,2.9994,2.9994,2.9994,2.9994,2.9994,2.9994,2.9994,2.9984,2.9994,1.8951,1.9438,1.9786,1.9968,1.9968,1.9778,1.9687,1.9687,1.9861,2.0314,2.0953,2.1854,2.2306,2.2217,2.2217,2.2476,2.3007,2.3131,2.3231,2.335,2.3581,2.3305,2.3126,2.3135,2.3099,2.3439,2.3835,2.4205,2.4421,2.4313,2.4304,2.4913,2.5011,2.5216,2.5528,2.5635,2.5635,2.5732,2.5635,2.5732,2.5732,2.5644,2.542,2.4873,2.458,2.4238,2.3994,2.3701,2.3711,2.3623,2.3584,2.335,2.3564,2.3789,2.4268,2.4639,2.4922,2.5254,2.5576,2.5732,2.5732,2.5732,2.5732,2.5732,2.5732,2.5742,2.5742,2.583,2.583,2.583,2.583,2.583,2.583,2.5917,2.5917,2.6024,2.6024,2.6024,2.6207,2.6294,2.639,2.64,2.6496,2.6592,2.6592,2.6592,2.6496,2.6657,2.6764,2.6703,2.7185,2.7557,2.7421,2.7873,2.8531,2.8788,2.887,2.9209,2.9415,2.9518,2.9508,2.9756,2.9911,2.9787,2.9756,2.9891,2.9994,2.9994,2.9994,2.9994,2.9994,2.9994,2.9994,2.9994,2.9994,1.8249,1.8556,1.8619,1.8643,1.855,1.8172,1.8079,1.8079,1.8427,1.8603,1.8788,1.9786,2.0051,2.0232,2.024,2.0266,2.0663,2.164,2.1656,2.1796,2.1739,2.1718,2.1786,2.182,2.203,2.2382,2.2772,2.2859,2.2894,2.2994,2.3294,2.3791,2.4097,2.4304,2.502,2.543,2.5333,2.5421,2.5421,2.5635,2.5732,2.5703,2.5361,2.5146,2.5,2.4795,2.4502,2.4316,2.4307,2.4277,2.4033,2.3767,2.3573,2.3767,2.4166,2.4555,2.4814,2.5205,2.5586,2.5732,2.5732,2.5732,2.5732,2.5732,2.5732,2.5732,2.5732,2.5732,2.5732,2.5732,2.5732,2.5732,2.5732,2.5742,2.5742,2.5742,2.5732,2.5732,2.5917,2.61,2.61,2.6207,2.6304,2.64,2.64,2.64,2.649,2.6768,2.6771,2.6573,2.6683,2.7202,2.7352,2.7955,2.8615,2.8901,2.8911,2.9156,2.9423,2.9569,2.9735,2.9817,2.9879,2.9869,2.9879,2.9889,2.9889,2.9889,2.9889,2.9889,2.9889,2.9879,2.9994,2.9994,2.9994,1.6914,1.7241,1.7502,1.7606,1.7606,1.752,1.7426,1.7426,1.7613,1.7606,1.7699,1.7878,1.8603,2.0141,2.0232,2.0135,2.0088,2.0619,2.1122,2.1466,2.0547,2.0289,2.0354,2.0475,2.1362,2.172,2.2004,2.2332,2.1787,2.2122,2.2484,2.2785,2.2785,2.2985,2.3194,2.3701,2.4402,2.4501,2.502,2.5333,2.5538,2.5489,2.5205,2.501,2.4883,2.4502,2.415,2.3926,2.4111,2.4268,2.4316,2.4147,2.3991,2.3874,2.4234,2.4604,2.4759,2.5176,2.5518,2.5693,2.5732,2.5732,2.5732,2.5732,2.5732,2.5732,2.5732,2.5732,2.5732,2.5732,2.5732,2.5732,2.5732,2.5732,2.5732,2.5732,2.5732,2.5732,2.5732,2.582,2.582,2.582,2.5917,2.5927,2.5917,2.5917,2.6014,2.6182,2.6396,2.6338,2.633,2.6744,2.7189,2.7481,2.7955,2.8581,2.8753,2.9005,2.9282,2.9377,2.9482,2.9523,2.9659,2.9669,2.9784,2.9784,2.9784,2.9669,2.9669,2.9659,2.9659,2.9659,2.9879,2.9889,2.9889]},{"header":{"parameterUnit":"m.s-1","parameterCategory":1,"la1":31.0,"la2":29.5877,"lo1":-88.7671,"lo2":-86.6584,"dy":0.0162,"dx":0.0185,"nx":115,"ny":88,"refTime":"2023-04-30T06:00:00:Z","depth":0,"parameterNumber":3,"parameterNumberName":"V-component_of_WINDS"},"data":[0.0,0.0,0.0,0.0,0.0,0.0,0.0,0.0,0.0,0.0,0.0,0.0,0.0,0.0,0.0,0.0,0.0,0.0,0.0,0.0,0.0,0.0,0.0,0.0,0.0,0.0,0.0,0.0,0.0,0.0,0.0,0.0,0.0,0.0,0.0,0.0,0.0,0.0,0.0,0.0,0.0,0.0,0.0,0.0,0.0,0.0,0.0,0.0,0.0,0.0,0.0,0.0,0.0,0.0,0.0,0.0,0.0,0.0,0.0,0.0,0.0,0.0,0.0,0.0,0.0,0.0,0.0,0.0,0.0,0.0,0.0,0.0,0.0,0.0,0.0,0.0,0.0,0.0,0.0,0.0,0.0,0.0,0.0,0.0,0.0,0.0,0.0,0.0,0.0,0.0,0.0,0.0,0.0,0.0,0.0,0.0,0.0,0.0,0.0,0.0,0.0,0.0,0.0,0.0,0.0,0.0,0.0,0.0,0.0,0.0,0.0,0.0,0.0,0.0,0.0,0.0,0.0,0.0,0.0,0.0,0.0,0.0,0.0,0.0,0.0,0.0,0.0,0.0,0.0,0.0,0.0,0.0,0.0,0.0,0.0,0.0,0.0,0.0,0.0,0.0,0.0,0.0,0.0,0.0,0.0,0.0,0.0,0.0,0.0,0.0,0.0,0.0,0.0,0.0,0.0,0.0,0.0,0.0,0.0,0.0,0.0,0.0,0.0,0.0,0.0,0.0,0.0,0.0,0.0,0.0,0.0,0.0,0.0,0.0,0.0,0.0,0.0,0.0,0.0,0.0,0.0,0.0,0.0,0.0,0.0,0.0,0.0,0.0,0.0,0.0,0.0,0.0,0.0,0.0,0.0,0.0,0.0,0.0,0.0,0.0,0.0,0.0,0.0,0.0,0.0,0.0,0.0,0.0,0.0,0.0,0.0,0.0,0.0,0.0,0.0,0.0,0.0,0.0,0.0,0.0,0.0,0.0,0.0,0.0,0.0,0.0,0.0,0.0,0.0,0.0,0.0,0.0,0.0,0.0,0.0,0.0,0.0,0.0,0.0,0.0,0.0,0.0,0.0,0.0,0.0,0.0,0.0,0.0,0.0,0.0,0.0,0.0,0.0,0.0,0.0,0.0,0.0,0.0,0.0,0.0,0.0,0.0,0.0,0.0,0.0,0.0,0.0,0.0,0.0,0.0,0.0,0.0,0.0,0.0,0.0,0.0,0.0,0.0,0.0,0.0,0.0,0.0,0.0,0.0,0.0,0.0,0.0,0.0,0.0,0.0,0.0,0.0,0.0,0.0,0.0,0.0,0.0,0.0,0.0,0.0,0.0,0.0,0.0,0.0,0.0,0.0,0.0,0.0,0.0,0.0,0.0,0.0,0.0,0.0,0.0,0.0,0.0,0.0,0.0,0.0,0.0,0.0,0.0,0.0,0.0,0.0,0.0,0.0,0.0,0.0,0.0,0.0,0.0,0.0,0.0,0.0,0.0,0.0,0.0,0.0,0.0,0.0,0.0,0.0,0.0,0.0,0.0,0.0,0.0,0.0,0.0,0.0,0.0,0.0,0.0,0.0,0.0,0.0,0.0,0.0,0.0,0.0,0.0,0.0,0.0,0.0,0.0,0.0,0.0,0.0,0.0,0.0,0.0,0.0,0.0,0.0,0.0,0.0,0.0,0.0,0.0,0.0,0.0,0.0,0.0,0.0,0.0,0.0,0.0,0.0,0.0,0.0,0.0,0.0,0.0,0.0,0.0,0.0,0.0,0.0,0.0,0.0,0.0,0.0,0.0,0.0,0.0,0.0,0.0,0.0,0.0,0.0,0.0,0.0,0.0,0.0,0.0,0.0,0.0,0.0,0.0,0.0,0.0,0.0,0.0,0.0,0.0,0.0,0.0,0.0,0.0,0.0,0.0,0.0,0.0,0.0,0.0,0.0,0.0,0.0,0.0,0.0,0.0,0.0,0.0,0.0,0.0,0.0,0.0,0.0,0.0,0.0,0.0,0.0,0.0,0.0,0.0,0.0,0.0,0.0,0.0,0.0,0.0,0.0,0.0,0.0,0.0,0.0,0.0,0.0,0.0,0.0,0.0,0.0,0.0,0.0,0.0,0.0,0.0,0.0,0.0,0.0,0.0,0.0,0.0,0.0,0.0,0.0,0.0,0.0,0.0,0.0,0.0,0.0,0.0,0.0,0.0,0.0,0.0,0.0,0.0,0.0,0.0,0.0,0.0,0.0,0.0,0.0,0.0,0.0,0.0,0.0,0.0,0.0,0.0,0.0,0.0,0.0,0.0,0.0,0.0,0.0,0.0,0.0,0.0,0.0,0.0,0.0,0.0,0.0,0.0,0.0,0.0,0.0,0.0,0.0,0.0,0.0,0.0,0.0,0.0,0.0,0.0,0.0,0.0,0.0,0.0,0.0,0.0,0.0,0.0,0.0,0.0,0.0,0.0,0.0,0.0,0.0,0.0,0.0,0.0,0.0,0.0,0.0,0.0,0.0,0.0,0.0,0.0,0.0,0.0,0.0,0.0,0.0,0.0,0.0,0.0,0.0,0.0,0.0,0.0,0.0,0.0,0.0,0.0,0.0,0.0,0.0,0.0,0.0,0.0,0.0,0.0,0.0,0.0,0.0,0.0,0.0,0.0,0.0,0.0,0.0,0.0,0.0,0.0,0.0,0.0,0.0,0.0,0.0,0.0,0.0,0.0,0.0,0.0,0.0,0.0,0.0,0.0,0.0,0.0,0.0,0.0,0.0,0.0,0.0,0.0,0.0,0.0,0.0,0.0,0.0,0.0,0.0,0.0,0.0,0.0,0.0,0.0,0.0,0.0,0.0,0.0,0.0,0.0,0.0,0.0,0.0,0.0,0.0,0.0,0.0,0.0,0.0,0.0,0.0,0.0,0.0,0.0,0.0,0.0,0.0,0.0,0.0,0.0,0.0,0.0,0.0,0.0,0.0,0.0,0.0,0.0,0.0,0.0,0.0,0.0,0.0,0.0,0.0,0.0,0.0,0.0,0.0,0.0,0.0,0.0,0.0,0.0,0.0,0.0,0.0,0.0,0.0,0.0,0.0,0.0,0.0,0.0,0.0,0.0,0.0,0.0,0.0,0.0,0.0,0.0,0.0,0.0,0.0,0.0,0.0,0.0,0.0,0.0,0.0,0.0,0.0,0.0,0.0,0.0,0.0,0.0,0.0,0.0,0.0,0.0,0.0,0.0,0.0,0.0,0.0,0.0,0.0,0.0,0.0,0.0,0.0,0.0,0.0,0.0,0.0,0.0,0.0,0.0,0.0,0.0,0.0,0.0,0.0,0.0,0.0,0.0,0.0,0.0,0.0,0.0,0.0,0.0,0.0,0.0,0.0,0.0,0.0,0.0,0.0,0.0,0.0,0.0,0.0,0.0,0.0,0.0,0.0,0.0,0.0,0.0,0.0,0.0,0.0,0.0,0.0,0.0,0.0,0.0,0.0,0.0,0.0,0.0,0.0,0.0,0.0,0.0,0.0,0.0,0.0,0.0,0.0,0.0,0.0,0.0,0.0,0.0,0.0,0.0,0.0,0.0,0.0,0.0,0.0,0.0,0.0,0.0,0.0,0.0,0.0,0.0,0.0,0.0,0.0,0.0,0.0,0.0,0.0,0.0,0.0,0.0,0.0,0.0,0.0,0.0,0.0,0.0,0.0,0.0,0.0,0.0,0.0,0.0,0.0,0.0,0.0,0.0,0.0,0.0,0.0,0.0,0.0,0.0,0.0,0.0,0.0,0.0,0.0,0.0,0.0,0.0,0.0,0.0,0.0,0.0,0.0,0.0,0.0,0.0,0.0,0.0,0.0,0.0,0.0,0.0,0.0,0.0,0.0,0.0,0.0,0.0,0.0,0.0,0.0,0.0,0.0,0.0,0.0,0.0,0.0,0.0,0.0,0.0,0.0,0.0,0.0,0.0,0.0,0.0,0.0,0.0,0.0,0.0,0.0,0.0,0.0,0.0,0.0,0.0,0.0,0.0,0.0,0.0,0.0,0.0,0.0,0.0,0.0,0.0,0.0,0.0,0.0,0.0,0.0,0.0,0.0,0.0,0.0,0.0,0.0,0.0,0.0,0.0,0.0,0.0,0.0,0.0,0.0,0.0,0.0,0.0,0.0,0.0,0.0,0.0,0.0,0.0,0.0,0.0,0.0,0.0,0.0,0.0,0.0,0.0,0.0,0.0,0.0,0.0,0.0,0.0,0.0,0.0,0.0,0.0,0.0,0.0,0.0,0.0,0.0,-1.2529,0.0,0.0,0.0,0.0,0.0,0.0,0.0,0.0,0.0,0.0,0.0,0.0,0.0,0.0,0.0,0.0,0.0,0.0,0.0,0.0,0.0,0.0,0.0,0.0,0.0,0.0,0.0,0.0,0.0,0.0,0.0,0.0,0.0,0.0,0.0,0.0,0.0,0.0,0.0,0.0,0.0,0.0,0.0,0.0,0.0,0.0,0.0,0.0,0.0,0.0,0.0,0.0,0.0,0.0,0.0,0.0,0.0,0.0,0.0,0.0,0.0,0.0,0.0,0.0,0.0,0.0,0.0,0.0,0.0,0.0,0.0,0.0,0.0,0.0,0.0,0.0,0.0,0.0,0.0,0.0,0.0,0.0,0.0,0.0,0.0,0.0,0.0,0.0,0.0,0.0,0.0,0.0,0.0,0.0,0.0,0.0,0.0,0.0,0.0,0.0,0.0,0.0,0.0,0.0,0.0,0.0,0.0,0.0,0.0,0.0,-1.2382,-1.2471,-1.2529,-1.248,-1.2382,0.0,0.0,0.0,0.0,0.0,0.0,0.0,0.0,0.0,0.0,0.0,0.0,0.0,0.0,0.0,0.0,0.0,0.0,0.0,0.0,0.0,0.0,0.0,0.0,0.0,0.0,0.0,0.0,0.0,0.0,0.0,0.0,0.0,0.0,0.0,0.0,0.0,0.0,0.0,0.0,0.0,0.0,0.0,0.0,0.0,0.0,0.0,0.0,0.0,0.0,0.0,0.0,0.0,0.0,0.0,0.0,0.0,0.0,0.0,0.0,0.0,0.0,0.0,0.0,0.0,0.0,0.0,0.0,0.0,0.0,0.0,0.0,0.0,0.0,0.0,0.0,0.0,0.0,0.0,0.0,0.0,0.0,0.0,0.0,0.0,0.0,0.0,0.0,0.0,0.0,0.0,0.0,0.0,0.0,0.0,0.0,0.0,0.0,0.0,0.0,0.0,0.0,0.0,0.0,0.0,0.0,0.0,0.0,0.0,0.0,0.0,0.0,-1.2421,-1.2372,-1.2283,0.0,0.0,0.0,0.0,0.0,0.0,0.0,0.0,0.0,0.0,0.0,0.0,0.0,0.0,0.0,0.0,0.0,0.0,0.0,0.0,0.0,0.0,0.0,0.0,0.0,0.0,0.0,0.0,0.0,0.0,0.0,0.0,0.0,0.0,0.0,0.0,0.0,0.0,0.0,0.0,0.0,0.0,0.0,0.0,0.0,0.0,0.0,0.0,0.0,0.0,0.0,0.0,0.0,0.0,0.0,0.0,0.0,0.0,0.0,0.0,0.0,0.0,0.0,0.0,0.0,0.0,0.0,0.0,0.0,0.0,0.0,0.0,0.0,0.0,0.0,0.0,0.0,0.0,0.0,0.0,0.0,0.0,0.0,0.0,0.0,0.0,0.0,0.0,0.0,0.0,0.0,0.0,0.0,0.0,0.0,0.0,0.0,0.0,0.0,0.0,0.0,0.0,0.0,0.0,0.0,0.0,0.0,0.0,0.0,0.0,-1.2135,-1.2135,-1.2126,0.0,-1.2126,0.0,0.0,0.0,0.0,0.0,0.0,0.0,0.0,0.0,0.0,0.0,0.0,0.0,0.0,0.0,0.0,0.0,0.0,0.0,0.0,0.0,0.0,0.0,0.0,0.0,0.0,0.0,0.0,0.0,0.0,0.0,0.0,0.0,0.0,0.0,0.0,0.0,0.0,0.0,0.0,0.0,0.0,0.0,0.0,0.0,0.0,0.0,0.0,0.0,0.0,0.0,0.0,0.0,0.0,0.0,0.0,0.0,0.0,0.0,0.0,0.0,0.0,0.0,0.0,0.0,0.0,0.0,0.0,0.0,0.0,0.0,0.0,0.0,0.0,0.0,0.0,0.0,0.0,0.0,0.0,0.0,0.0,0.0,0.0,0.0,0.0,0.0,0.0,0.0,0.0,0.0,0.0,0.0,0.0,0.0,0.0,0.0,0.0,0.0,0.0,0.0,0.0,0.0,0.0,0.0,0.0,0.0,0.0,0.0,0.0,-1.2076,-1.2076,-1.2076,-1.2076,0.0,0.0,0.0,0.0,0.0,0.0,0.0,0.0,0.0,0.0,0.0,0.0,0.0,0.0,0.0,0.0,0.0,0.0,0.0,0.0,0.0,0.0,0.0,0.0,0.0,0.0,0.0,0.0,0.0,0.0,0.0,0.0,0.0,0.0,0.0,0.0,0.0,0.0,0.0,0.0,0.0,0.0,0.0,0.0,0.0,0.0,0.0,0.0,0.0,0.0,0.0,0.0,0.0,0.0,0.0,0.0,0.0,0.0,0.0,0.0,0.0,0.0,0.0,0.0,0.0,0.0,0.0,0.0,0.0,0.0,0.0,0.0,0.0,0.0,0.0,0.0,0.0,0.0,0.0,0.0,0.0,0.0,0.0,0.0,0.0,0.0,0.0,0.0,0.0,0.0,0.0,0.0,0.0,0.0,0.0,0.0,0.0,0.0,0.0,0.0,0.0,0.0,0.0,0.0,0.0,0.0,0.0,0.0,0.0,0.0,-1.2076,-1.2076,-1.2076,-1.2076,-1.2076,-1.2076,0.0,0.0,0.0,0.0,0.0,0.0,0.0,0.0,0.0,0.0,0.0,0.0,0.0,0.0,0.0,0.0,0.0,0.0,0.0,0.0,0.0,0.0,0.0,0.0,0.0,0.0,0.0,0.0,0.0,0.0,0.0,0.0,0.0,0.0,0.0,0.0,0.0,0.0,0.0,0.0,0.0,0.0,0.0,0.0,0.0,0.0,0.0,0.0,0.0,0.0,0.0,0.0,0.0,0.0,0.0,0.0,0.0,0.0,0.0,0.0,0.0,0.0,0.0,0.0,0.0,0.0,0.0,0.0,0.0,0.0,0.0,0.0,0.0,0.0,0.0,0.0,0.0,0.0,0.0,0.0,0.0,0.0,0.0,0.0,0.0,0.0,0.0,0.0,0.0,0.0,0.0,0.0,0.0,0.0,0.0,0.0,0.0,0.0,0.0,0.0,0.0,0.0,0.0,0.0,0.0,0.0,0.0,0.0,-1.2076,-1.2076,-1.2076,-1.2076,-1.2076,-1.2076,0.0,0.0,0.0,0.0,0.0,0.0,0.0,0.0,0.0,0.0,0.0,0.0,0.0,0.0,0.0,0.0,0.0,0.0,0.0,0.0,0.0,0.0,0.0,0.0,0.0,0.0,0.0,0.0,0.0,0.0,0.0,0.0,0.0,0.0,0.0,0.0,0.0,0.0,0.0,0.0,0.0,0.0,0.0,0.0,0.0,0.0,0.0,0.0,0.0,0.0,0.0,0.0,0.0,0.0,0.0,0.0,0.0,0.0,0.0,0.0,0.0,0.0,0.0,0.0,0.0,0.0,0.0,0.0,0.0,0.0,0.0,0.0,0.0,0.0,0.0,0.0,0.0,0.0,0.0,0.0,0.0,0.0,0.0,0.0,0.0,0.0,0.0,0.0,0.0,0.0,0.0,0.0,0.0,0.0,0.0,0.0,0.0,0.0,0.0,0.0,0.0,0.0,0.0,0.0,0.0,0.0,0.0,0.0,0.0,-1.2076,-1.2076,-1.2026,-1.1877,-1.1977,-1.2026,0.0,0.0,0.0,0.0,0.0,0.0,0.0,0.0,0.0,0.0,0.0,0.0,0.0,0.0,0.0,0.0,0.0,0.0,0.0,0.0,0.0,0.0,0.0,0.0,0.0,0.0,0.0,0.0,0.0,0.0,0.0,0.0,0.0,0.0,0.0,0.0,0.0,0.0,0.0,0.0,0.0,0.0,0.0,0.0,0.0,0.0,0.0,0.0,0.0,0.0,0.0,0.0,0.0,0.0,0.0,0.0,0.0,0.0,0.0,0.0,0.0,0.0,0.0,0.0,0.0,0.0,0.0,0.0,0.0,0.0,0.0,0.0,0.0,0.0,0.0,0.0,0.0,0.0,0.0,0.0,0.0,0.0,0.0,0.0,0.0,0.0,0.0,0.0,0.0,0.0,0.0,0.0,0.0,0.0,0.0,0.0,0.0,0.0,0.0,0.0,0.0,0.0,0.0,0.0,0.0,0.0,0.0,0.0,0.0,-1.1751,0.0,-1.1551,-1.1351,-1.176,-1.1877,0.0,0.0,0.0,0.0,0.0,0.0,0.0,0.0,0.0,0.0,0.0,0.0,0.0,0.0,0.0,0.0,0.0,0.0,0.0,0.0,0.0,0.0,0.0,0.0,0.0,0.0,0.0,0.0,0.0,0.0,0.0,0.0,0.0,0.0,0.0,0.0,0.0,0.0,0.0,0.0,0.0,0.0,0.0,0.0,0.0,0.0,0.0,0.0,0.0,0.0,0.0,0.0,0.0,0.0,0.0,0.0,0.0,0.0,0.0,0.0,0.0,0.0,0.0,0.0,0.0,0.0,0.0,0.0,0.0,0.0,0.0,0.0,0.0,0.0,0.0,0.0,0.0,0.0,0.0,0.0,0.0,0.0,0.0,0.0,0.0,0.0,0.0,0.0,0.0,0.0,0.0,0.0,0.0,0.0,0.0,0.0,0.0,0.0,0.0,0.0,0.0,0.0,0.0,0.0,0.0,0.0,0.0,0.0,-1.1701,-1.1065,-1.0771,-1.0626,-1.0618,-1.1309,-1.1678,0.0,0.0,0.0,0.0,0.0,0.0,0.0,0.0,0.0,0.0,0.0,0.0,0.0,0.0,0.0,0.0,0.0,0.0,0.0,0.0,0.0,0.0,0.0,0.0,0.0,0.0,0.0,0.0,0.0,0.0,0.0,0.0,0.0,0.0,0.0,0.0,0.0,0.0,0.0,0.0,0.0,0.0,0.0,0.0,0.0,0.0,0.0,0.0,0.0,0.0,0.0,0.0,0.0,0.0,0.0,0.0,0.0,0.0,0.0,0.0,0.0,0.0,0.0,0.0,0.0,0.0,0.0,0.0,0.0,0.0,0.0,0.0,0.0,0.0,0.0,0.0,0.0,0.0,0.0,0.0,0.0,0.0,0.0,0.0,0.0,0.0,0.0,0.0,0.0,0.0,0.0,0.0,0.0,0.0,0.0,0.0,0.0,0.0,0.0,0.0,0.0,0.0,0.0,0.0,0.0,0.0,0.0,0.0,0.0,-1.1209,-1.0525,-1.0335,-1.0621,-1.0816,-1.0953,0.0,0.0,0.0,0.0,0.0,0.0,0.0,0.0,0.0,0.0,0.0,0.0,0.0,0.0,0.0,0.0,0.0,0.0,0.0,0.0,0.0,0.0,0.0,0.0,0.0,0.0,0.0,0.0,0.0,0.0,0.0,0.0,0.0,0.0,0.0,0.0,0.0,0.0,0.0,0.0,0.0,0.0,0.0,0.0,0.0,0.0,0.0,0.0,0.0,0.0,0.0,0.0,0.0,0.0,0.0,0.0,0.0,0.0,0.0,0.0,0.0,0.0,0.0,0.0,0.0,0.0,0.0,0.0,0.0,0.0,0.0,0.0,0.0,0.0,0.0,0.0,0.0,0.0,0.0,0.0,0.0,0.0,0.0,0.0,0.0,0.0,0.0,0.0,0.0,0.0,0.0,0.0,0.0,0.0,0.0,0.0,0.0,0.0,0.0,0.0,0.0,0.0,0.0,0.0,0.0,0.0,0.0,0.0,0.0,-1.0767,-1.0227,-1.0098,-1.0539,-1.074,-1.0834,-1.0719,0.0,0.0,0.0,0.0,0.0,0.0,0.0,0.0,0.0,0.0,0.0,0.0,0.0,0.0,0.0,0.0,0.0,0.0,0.0,0.0,0.0,0.0,0.0,0.0,0.0,0.0,0.0,0.0,0.0,0.0,0.0,0.0,0.0,0.0,0.0,0.0,0.0,0.0,0.0,0.0,0.0,0.0,0.0,0.0,0.0,0.0,0.0,0.0,0.0,0.0,0.0,0.0,0.0,0.0,0.0,0.0,0.0,0.0,0.0,0.0,0.0,0.0,0.0,0.0,0.0,0.0,0.0,0.0,0.0,0.0,0.0,0.0,0.0,0.0,0.0,0.0,0.0,0.0,0.0,0.0,0.0,0.0,0.0,0.0,0.0,0.0,0.0,0.0,0.0,0.0,0.0,0.0,0.0,0.0,0.0,0.0,0.0,0.0,0.0,0.0,0.0,0.0,0.0,0.0,0.0,0.0,0.0,0.0,-1.0054,-0.9855,-1.0,-1.0372,-1.098,-1.117,0.0,0.0,0.0,0.0,0.0,0.0,0.0,0.0,0.0,0.0,0.0,0.0,0.0,0.0,0.0,0.0,0.0,0.0,0.0,0.0,0.0,0.0,0.0,0.0,0.0,0.0,0.0,0.0,0.0,0.0,0.0,0.0,0.0,0.0,0.0,0.0,0.0,0.0,0.0,0.0,0.0,0.0,0.0,0.0,0.0,0.0,0.0,0.0,0.0,0.0,0.0,0.0,0.0,0.0,0.0,0.0,0.0,0.0,0.0,0.0,0.0,0.0,0.0,0.0,0.0,0.0,0.0,0.0,0.0,0.0,0.0,0.0,0.0,0.0,0.0,0.0,0.0,0.0,0.0,0.0,0.0,0.0,0.0,0.0,0.0,0.0,0.0,0.0,0.0,0.0,0.0,0.0,0.0,0.0,0.0,0.0,0.0,0.0,0.0,0.0,0.0,0.0,0.0,0.0,0.0,0.0,0.0,0.0,0.0,-1.0656,-1.0517,-1.0358,-1.0262,-1.0356,-1.0355,0.0,0.0,0.0,0.0,0.0,0.0,0.0,0.0,0.0,0.0,0.0,0.0,0.0,0.0,0.0,0.0,0.0,0.0,0.0,0.0,0.0,0.0,0.0,0.0,0.0,0.0,0.0,0.0,0.0,0.0,0.0,0.0,0.0,0.0,0.0,0.0,0.0,0.0,0.0,0.0,0.0,0.0,0.0,0.0,0.0,0.0,0.0,0.0,0.0,0.0,0.0,0.0,0.0,0.0,0.0,0.0,0.0,0.0,0.0,0.0,0.0,0.0,0.0,0.0,0.0,0.0,0.0,0.0,0.0,0.0,0.0,0.0,0.0,0.0,0.0,0.0,0.0,0.0,0.0,0.0,0.0,0.0,0.0,0.0,0.0,0.0,0.0,0.0,0.0,0.0,0.0,0.0,0.0,0.0,0.0,0.0,0.0,0.0,0.0,0.0,0.0,0.0,0.0,0.0,0.0,0.0,0.0,0.0,-1.0377,-1.0351,-1.0543,-1.0597,-1.0434,-1.0521,-1.0513,0.0,0.0,0.0,0.0,0.0,0.0,0.0,0.0,0.0,0.0,0.0,0.0,0.0,0.0,0.0,0.0,0.0,0.0,0.0,0.0,0.0,0.0,0.0,0.0,0.0,0.0,0.0,0.0,0.0,0.0,0.0,0.0,0.0,0.0,0.0,0.0,0.0,0.0,0.0,0.0,0.0,0.0,0.0,0.0,0.0,0.0,0.0,0.0,0.0,0.0,0.0,0.0,0.0,0.0,0.0,0.0,0.0,0.0,0.0,0.0,0.0,0.0,0.0,0.0,0.0,0.0,0.0,0.0,0.0,0.0,0.0,0.0,0.0,0.0,0.0,0.0,0.0,0.0,0.0,0.0,0.0,0.0,0.0,0.0,0.0,0.0,0.0,0.0,0.0,0.0,0.0,0.0,0.0,0.0,0.0,0.0,0.0,0.0,0.0,0.0,0.0,0.0,0.0,0.0,0.0,0.0,0.0,0.0,-1.0441,-0.9639,-1.0369,-1.0743,-1.0701,-1.1073,-1.1094,0.0,0.0,0.0,0.0,0.0,0.0,0.0,0.0,0.0,0.0,0.0,0.0,0.0,0.0,0.0,0.0,0.0,0.0,0.0,0.0,0.0,0.0,0.0,0.0,0.0,0.0,0.0,0.0,0.0,0.0,0.0,0.0,0.0,0.0,0.0,0.0,0.0,0.0,0.0,0.0,0.0,0.0,0.0,0.0,0.0,0.0,0.0,0.0,0.0,0.0,0.0,0.0,0.0,0.0,0.0,0.0,0.0,0.0,0.0,0.0,0.0,0.0,0.0,0.0,0.0,0.0,0.0,0.0,0.0,0.0,0.0,0.0,0.0,0.0,0.0,0.0,0.0,0.0,0.0,0.0,0.0,0.0,0.0,0.0,0.0,0.0,0.0,0.0,0.0,0.0,0.0,0.0,0.0,0.0,0.0,0.0,0.0,0.0,0.0,0.0,0.0,0.0,0.0,0.0,0.0,0.0,0.0,0.0,-1.025,-1.0158,-1.0731,-1.093,-1.0725,-1.074,-1.0782,0.0,0.0,0.0,0.0,0.0,0.0,0.0,0.0,0.0,0.0,0.0,0.0,0.0,0.0,0.0,0.0,0.0,0.0,0.0,0.0,0.0,0.0,0.0,0.0,0.0,0.0,0.0,0.0,0.0,0.0,0.0,0.0,0.0,0.0,0.0,0.0,0.0,0.0,0.0,0.0,0.0,0.0,0.0,0.0,0.0,0.0,0.0,0.0,-1.8178,0.0,0.0,0.0,0.0,0.0,0.0,0.0,0.0,0.0,0.0,0.0,0.0,0.0,0.0,0.0,0.0,0.0,0.0,0.0,0.0,0.0,0.0,0.0,0.0,0.0,0.0,0.0,0.0,0.0,0.0,0.0,0.0,0.0,0.0,0.0,0.0,0.0,0.0,0.0,0.0,0.0,0.0,0.0,0.0,0.0,0.0,0.0,0.0,0.0,0.0,0.0,0.0,0.0,0.0,0.0,0.0,0.0,0.0,0.0,-0.9926,-0.9685,-1.019,-1.0324,-1.003,-0.9867,-1.0189,0.0,0.0,0.0,0.0,0.0,0.0,0.0,0.0,0.0,0.0,0.0,0.0,0.0,0.0,0.0,0.0,0.0,0.0,0.0,0.0,0.0,0.0,0.0,0.0,0.0,0.0,0.0,0.0,0.0,0.0,0.0,0.0,0.0,0.0,0.0,0.0,0.0,0.0,0.0,0.0,0.0,0.0,0.0,0.0,0.0,0.0,0.0,0.0,0.0,0.0,0.0,0.0,0.0,0.0,0.0,0.0,0.0,0.0,0.0,0.0,0.0,0.0,0.0,0.0,0.0,0.0,0.0,0.0,0.0,0.0,0.0,0.0,0.0,0.0,0.0,0.0,0.0,0.0,0.0,0.0,0.0,0.0,0.0,0.0,0.0,0.0,0.0,0.0,0.0,0.0,0.0,0.0,0.0,0.0,0.0,0.0,0.0,0.0,0.0,0.0,0.0,0.0,0.0,0.0,0.0,0.0,0.0,-0.9656,-0.9532,-0.9079,-0.9474,-0.955,-0.9227,-0.8964,-0.9472,-1.0877,0.0,0.0,0.0,0.0,0.0,0.0,0.0,0.0,0.0,0.0,0.0,0.0,0.0,0.0,0.0,0.0,0.0,0.0,0.0,0.0,0.0,0.0,0.0,0.0,0.0,0.0,0.0,0.0,0.0,0.0,0.0,0.0,0.0,0.0,0.0,0.0,0.0,0.0,-1.8041,-1.8123,0.0,0.0,0.0,0.0,0.0,0.0,0.0,0.0,-1.8895,0.0,0.0,0.0,0.0,0.0,0.0,0.0,0.0,0.0,0.0,0.0,0.0,0.0,0.0,0.0,0.0,0.0,0.0,0.0,0.0,0.0,0.0,0.0,0.0,0.0,0.0,0.0,0.0,0.0,0.0,0.0,0.0,0.0,0.0,0.0,0.0,0.0,0.0,0.0,0.0,0.0,0.0,0.0,0.0,0.0,0.0,0.0,0.0,0.0,0.0,0.0,0.0,0.0,0.0,0.0,0.0,-0.9426,-0.9396,-0.9355,-0.9314,-0.9347,-0.9264,-0.8999,-0.8607,-0.9124,-1.0478,0.0,0.0,0.0,0.0,0.0,0.0,0.0,0.0,0.0,0.0,0.0,0.0,0.0,0.0,0.0,0.0,0.0,0.0,0.0,0.0,0.0,0.0,0.0,0.0,0.0,0.0,0.0,0.0,0.0,0.0,0.0,0.0,0.0,0.0,0.0,0.0,0.0,0.0,0.0,-1.7723,-1.815,0.0,0.0,0.0,0.0,0.0,0.0,0.0,0.0,-1.9378,0.0,0.0,0.0,0.0,0.0,0.0,0.0,0.0,0.0,0.0,0.0,0.0,0.0,0.0,0.0,0.0,0.0,0.0,0.0,0.0,0.0,0.0,0.0,0.0,0.0,0.0,0.0,0.0,0.0,0.0,0.0,0.0,0.0,0.0,0.0,0.0,0.0,0.0,0.0,0.0,0.0,0.0,0.0,0.0,0.0,0.0,0.0,0.0,0.0,0.0,0.0,0.0,0.0,0.0,0.0,-0.9928,-0.9381,-0.9106,-0.9177,-0.9181,-0.8853,-0.8215,-0.8006,-0.8668,0.0,0.0,0.0,0.0,0.0,0.0,0.0,0.0,0.0,0.0,0.0,0.0,0.0,0.0,0.0,0.0,0.0,0.0,0.0,0.0,0.0,0.0,0.0,0.0,0.0,0.0,0.0,0.0,0.0,0.0,0.0,0.0,0.0,0.0,0.0,0.0,0.0,0.0,0.0,0.0,-1.7645,-1.7978,-1.827,0.0,0.0,0.0,0.0,0.0,0.0,-1.9681,-2.0161,0.0,0.0,0.0,0.0,0.0,0.0,0.0,0.0,0.0,0.0,0.0,0.0,0.0,0.0,0.0,0.0,0.0,0.0,0.0,0.0,0.0,0.0,0.0,0.0,0.0,0.0,0.0,0.0,0.0,0.0,0.0,0.0,0.0,0.0,0.0,0.0,0.0,0.0,0.0,0.0,0.0,0.0,0.0,0.0,0.0,0.0,0.0,0.0,0.0,0.0,0.0,0.0,0.0,0.0,0.0,-1.0436,-0.959,-0.9156,-0.918,-0.9145,-0.8753,-0.7912,-0.7912,-0.8613,0.0,0.0,0.0,0.0,0.0,0.0,0.0,0.0,0.0,0.0,0.0,0.0,0.0,0.0,0.0,0.0,0.0,0.0,0.0,0.0,0.0,0.0,0.0,0.0,0.0,0.0,0.0,0.0,0.0,0.0,0.0,0.0,0.0,0.0,0.0,0.0,0.0,0.0,0.0,0.0,0.0,-1.8072,-1.826,-1.8882,0.0,0.0,0.0,0.0,-1.9835,-2.05,0.0,0.0,0.0,0.0,0.0,0.0,0.0,0.0,0.0,0.0,0.0,0.0,0.0,0.0,0.0,0.0,0.0,0.0,0.0,0.0,0.0,0.0,0.0,0.0,0.0,0.0,0.0,0.0,0.0,0.0,0.0,0.0,0.0,0.0,0.0,0.0,0.0,0.0,0.0,0.0,0.0,0.0,0.0,0.0,0.0,0.0,0.0,0.0,0.0,0.0,0.0,0.0,0.0,0.0,0.0,0.0,-1.0515,-1.0269,-1.0023,-0.9875,-0.9582,-0.939,-0.9262,-0.9262,-0.9703,0.0,0.0,0.0,0.0,0.0,0.0,0.0,0.0,0.0,0.0,0.0,0.0,0.0,0.0,0.0,0.0,0.0,0.0,0.0,0.0,0.0,0.0,0.0,0.0,0.0,0.0,0.0,0.0,0.0,0.0,0.0,0.0,0.0,0.0,0.0,0.0,0.0,0.0,0.0,0.0,0.0,-1.8807,-1.9467,-1.942,-1.966,0.0,0.0,-2.0847,-2.1069,-2.137,0.0,0.0,0.0,0.0,0.0,0.0,0.0,0.0,0.0,0.0,0.0,0.0,0.0,0.0,0.0,0.0,0.0,0.0,0.0,0.0,0.0,0.0,0.0,0.0,0.0,0.0,0.0,0.0,0.0,0.0,0.0,0.0,0.0,0.0,0.0,0.0,0.0,0.0,0.0,0.0,0.0,0.0,0.0,0.0,0.0,0.0,0.0,0.0,0.0,0.0,0.0,0.0,0.0,0.0,0.0,-1.0368,-1.0766,-1.0429,-1.0247,-1.0275,-1.0161,-0.9907,-0.9518,-0.9518,-0.9894,0.0,0.0,0.0,0.0,0.0,0.0,0.0,0.0,0.0,0.0,0.0,0.0,0.0,0.0,0.0,0.0,0.0,0.0,0.0,0.0,0.0,0.0,0.0,0.0,0.0,0.0,0.0,0.0,0.0,0.0,0.0,0.0,0.0,0.0,0.0,0.0,0.0,0.0,0.0,0.0,0.0,0.0,-1.9733,-2.0154,0.0,0.0,0.0,-2.1272,-2.128,0.0,0.0,0.0,0.0,0.0,0.0,0.0,0.0,0.0,0.0,0.0,0.0,0.0,0.0,0.0,0.0,0.0,0.0,0.0,0.0,0.0,0.0,0.0,0.0,0.0,0.0,0.0,0.0,0.0,0.0,0.0,0.0,0.0,0.0,0.0,0.0,0.0,0.0,0.0,0.0,0.0,0.0,0.0,0.0,0.0,0.0,0.0,0.0,0.0,0.0,0.0,0.0,0.0,0.0,0.0,0.0,0.0,-1.1073,-1.0728,-1.0629,-1.0793,-1.0807,-1.0541,-1.0028,-1.0028,0.0,0.0,0.0,0.0,0.0,0.0,0.0,0.0,0.0,0.0,0.0,0.0,0.0,0.0,0.0,0.0,0.0,0.0,0.0,0.0,0.0,0.0,0.0,0.0,0.0,0.0,0.0,-1.609,0.0,0.0,0.0,0.0,0.0,0.0,0.0,0.0,0.0,0.0,0.0,0.0,0.0,0.0,-2.0183,-2.0156,-2.079,-2.1105,0.0,0.0,-2.1659,-2.1564,-2.2093,-2.2499,0.0,0.0,0.0,0.0,0.0,0.0,0.0,0.0,0.0,0.0,0.0,0.0,0.0,0.0,0.0,0.0,0.0,0.0,0.0,0.0,0.0,0.0,0.0,0.0,0.0,0.0,0.0,0.0,0.0,0.0,0.0,0.0,0.0,0.0,0.0,0.0,0.0,0.0,0.0,0.0,0.0,0.0,0.0,0.0,0.0,0.0,0.0,0.0,0.0,0.0,0.0,0.0,0.0,0.0,0.0,-1.1441,-1.1485,-1.1469,-1.149,-1.156,-1.1498,-1.1498,-1.1435,-1.1505,0.0,0.0,0.0,0.0,0.0,0.0,0.0,0.0,0.0,0.0,0.0,0.0,0.0,0.0,0.0,0.0,0.0,0.0,0.0,0.0,0.0,0.0,0.0,0.0,0.0,0.0,0.0,0.0,0.0,0.0,0.0,0.0,0.0,0.0,0.0,0.0,0.0,0.0,0.0,0.0,0.0,-2.1236,-2.1251,-2.1132,-2.1195,0.0,0.0,-2.2015,-2.2318,-2.2702,-2.2947,-2.2957,0.0,0.0,0.0,0.0,0.0,0.0,0.0,0.0,0.0,0.0,0.0,0.0,0.0,0.0,0.0,0.0,0.0,0.0,0.0,0.0,0.0,0.0,0.0,0.0,0.0,0.0,0.0,0.0,0.0,0.0,0.0,0.0,0.0,0.0,0.0,0.0,0.0,0.0,0.0,0.0,0.0,0.0,0.0,0.0,0.0,0.0,0.0,0.0,0.0,0.0,0.0,0.0,0.0,-1.135,-1.1479,-1.1576,-1.1622,-1.1622,-1.1622,-1.1655,-1.1845,-1.1853,-1.1853,0.0,0.0,0.0,0.0,0.0,0.0,0.0,0.0,0.0,0.0,0.0,0.0,0.0,0.0,0.0,0.0,0.0,0.0,0.0,0.0,0.0,0.0,0.0,0.0,0.0,0.0,0.0,0.0,-1.697,-1.7448,-1.8338,0.0,0.0,0.0,0.0,0.0,0.0,0.0,0.0,0.0,0.0,-2.1354,-2.1376,-2.1576,0.0,0.0,-2.2029,-2.2371,-2.2764,-2.2821,-2.3058,-2.3809,-2.3656,0.0,0.0,0.0,0.0,0.0,0.0,0.0,0.0,0.0,0.0,0.0,0.0,0.0,0.0,0.0,0.0,0.0,0.0,0.0,0.0,0.0,0.0,0.0,0.0,0.0,0.0,0.0,0.0,0.0,0.0,0.0,0.0,0.0,0.0,0.0,0.0,0.0,0.0,0.0,0.0,0.0,0.0,0.0,0.0,0.0,0.0,0.0,0.0,0.0,0.0,0.0,0.0,-1.1526,-1.1715,-1.1618,-1.1655,-1.1838,-1.175,-1.1853,-1.2167,-1.2109,-1.2182,0.0,0.0,0.0,0.0,0.0,0.0,0.0,0.0,0.0,0.0,0.0,0.0,0.0,0.0,0.0,0.0,0.0,0.0,0.0,0.0,0.0,0.0,0.0,0.0,0.0,0.0,0.0,0.0,-1.7791,-1.8422,-1.9411,0.0,0.0,0.0,0.0,0.0,0.0,0.0,0.0,0.0,0.0,-2.1618,-2.1544,-2.1952,-2.2244,-2.2091,-2.259,-2.3011,-2.3342,-2.3349,-2.3525,-2.4377,0.0,0.0,0.0,0.0,0.0,0.0,0.0,0.0,0.0,0.0,0.0,0.0,0.0,0.0,0.0,0.0,0.0,0.0,0.0,0.0,0.0,0.0,0.0,0.0,0.0,0.0,0.0,0.0,0.0,0.0,-1.1511,0.0,0.0,0.0,0.0,0.0,0.0,0.0,0.0,0.0,0.0,0.0,0.0,0.0,0.0,0.0,0.0,0.0,0.0,0.0,0.0,0.0,0.0,-1.163,-1.2258,-1.1855,-1.1875,-1.246,-1.2189,-1.2182,-1.2497,-1.2511,-1.2511,-1.2511,0.0,0.0,0.0,0.0,0.0,0.0,0.0,0.0,0.0,0.0,0.0,0.0,0.0,0.0,0.0,0.0,0.0,0.0,0.0,0.0,0.0,0.0,0.0,0.0,0.0,0.0,-1.8319,-1.9537,-2.06,0.0,0.0,0.0,0.0,0.0,0.0,0.0,0.0,0.0,0.0,-2.1807,-2.2014,-2.1797,-2.2335,-2.2793,-2.2783,-2.3556,-2.4162,-2.4194,-2.4274,-2.4465,0.0,0.0,0.0,0.0,0.0,0.0,0.0,0.0,0.0,0.0,0.0,0.0,0.0,0.0,0.0,0.0,0.0,0.0,0.0,0.0,0.0,0.0,0.0,0.0,0.0,0.0,0.0,-1.1665,-1.1538,0.0,0.0,0.0,0.0,0.0,0.0,0.0,0.0,0.0,0.0,0.0,-1.2166,-1.2,0.0,0.0,0.0,0.0,0.0,0.0,0.0,0.0,0.0,0.0,0.0,0.0,-1.2759,-1.2916,-1.2473,-1.2306,-1.2511,-1.2416,-1.2519,-1.2826,-1.2848,-1.2848,-1.284,0.0,0.0,0.0,0.0,0.0,0.0,0.0,0.0,0.0,0.0,0.0,0.0,0.0,0.0,0.0,0.0,0.0,0.0,0.0,0.0,0.0,0.0,0.0,0.0,0.0,-1.815,0.0,0.0,0.0,0.0,0.0,0.0,0.0,0.0,0.0,0.0,0.0,-2.257,-2.1934,-2.2126,-2.234,-2.2263,-2.2745,-2.3036,0.0,0.0,0.0,0.0,0.0,0.0,0.0,0.0,0.0,0.0,0.0,0.0,0.0,0.0,-2.5462,-2.5574,-2.6194,-2.6803,-2.6845,0.0,0.0,0.0,0.0,0.0,0.0,0.0,0.0,0.0,0.0,0.0,0.0,0.0,0.0,0.0,0.0,-1.1521,0.0,0.0,0.0,0.0,0.0,0.0,0.0,0.0,-1.1779,-1.1826,-1.2436,-1.2166,-1.2301,0.0,-1.3124,-1.2968,0.0,0.0,0.0,0.0,0.0,0.0,0.0,0.0,-1.3363,-1.322,-1.2736,-1.2636,-1.284,-1.2753,-1.284,-1.3162,-1.3177,-1.3119,-1.3009,-1.3401,-1.3763,0.0,0.0,0.0,0.0,0.0,0.0,0.0,0.0,0.0,0.0,0.0,0.0,0.0,0.0,0.0,0.0,0.0,0.0,0.0,0.0,0.0,0.0,0.0,-1.9369,0.0,0.0,0.0,0.0,0.0,0.0,0.0,0.0,0.0,-2.3704,-2.3378,-2.3079,-2.2594,-2.2621,-2.2739,-2.2739,0.0,0.0,0.0,0.0,0.0,0.0,0.0,-2.4591,-2.5284,-2.529,-2.5265,-2.5589,-2.5812,-2.5895,-2.5895,0.0,0.0,-2.5699,-2.6355,-2.6818,-2.6629,-2.6747,-2.6818,-2.6641,-2.6516,-2.6219,0.0,0.0,0.0,0.0,0.0,0.0,0.0,0.0,-1.061,-1.061,0.0,-1.1416,0.0,0.0,0.0,0.0,0.0,-1.2415,0.0,0.0,-1.1696,-1.156,-1.1648,-1.2223,-1.2555,-1.2548,-1.338,-1.3439,-1.2826,-1.2901,0.0,0.0,0.0,0.0,0.0,0.0,-1.3512,-1.3112,-1.2785,-1.2925,-1.352,-1.3248,-1.3241,-1.3542,-1.3564,-1.341,-1.3108,-1.377,-1.4223,-1.4675,-1.5643,0.0,0.0,0.0,0.0,0.0,0.0,0.0,0.0,0.0,0.0,0.0,0.0,0.0,0.0,0.0,0.0,0.0,0.0,0.0,0.0,-2.0421,0.0,0.0,0.0,0.0,0.0,0.0,0.0,0.0,0.0,0.0,-2.4323,-2.3802,-2.3416,-2.3244,0.0,0.0,0.0,0.0,-2.422,-2.4231,-2.4756,-2.5189,-2.5189,-2.5369,-2.5549,-2.557,0.0,0.0,-2.5895,-2.5895,-2.5895,-2.5895,-2.5979,-2.5979,-2.6041,-2.6637,-2.6897,-2.6371,-2.6714,-2.6967,-2.6508,-2.6136,-2.5865,-0.9411,0.0,0.0,0.0,0.0,-1.1247,-1.0809,-1.0075,-1.0075,-1.0411,-1.0805,-1.1089,0.0,0.0,0.0,0.0,0.0,0.0,-1.2779,-1.2862,-1.2793,-1.2846,-1.2913,-1.3142,-1.3214,-1.3214,-1.3971,-1.3971,-1.3364,-1.4323,-1.4765,-1.4487,0.0,0.0,0.0,0.0,-1.4142,-1.4445,-1.4166,-1.434,-1.5037,-1.501,-1.4931,-1.5037,-1.5046,-1.5059,-1.4961,-1.5093,-1.5531,-1.6183,-1.6591,0.0,0.0,0.0,0.0,0.0,0.0,0.0,0.0,0.0,0.0,0.0,0.0,0.0,0.0,0.0,0.0,0.0,0.0,0.0,-2.105,-2.1888,-2.259,0.0,0.0,0.0,0.0,0.0,0.0,0.0,0.0,0.0,-2.4944,-2.3993,-2.3577,0.0,0.0,-2.4,-2.4773,-2.4628,-2.4428,-2.4438,-2.4628,0.0,0.0,-2.5031,-2.5126,-2.5126,-2.5115,-2.52,-2.5211,-2.5475,-2.5884,-2.6423,-2.6682,-2.7021,-2.7476,-2.6857,-2.634,-2.6041,-2.6119,-2.6412,-2.6769,-2.6367,-2.6102,-0.9262,-0.9715,-1.0371,-1.0669,-1.0599,-1.0691,-1.0503,-1.0056,-1.0153,-1.0591,-1.1181,-1.1544,-1.2116,-1.2829,-1.3247,0.0,0.0,0.0,-1.3494,-1.3427,-1.3622,-1.3917,-1.4205,-1.4319,-1.4595,-1.4956,-1.5682,-1.5617,-1.4883,-1.5901,-1.6245,-1.5931,0.0,0.0,-1.5402,-1.5215,-1.5204,-1.5282,-1.5134,-1.5242,-1.5675,-1.5666,-1.5666,-1.5666,-1.5666,-1.5666,-1.5666,-1.5666,-1.6167,-1.7101,-1.7093,-1.748,0.0,0.0,0.0,0.0,0.0,0.0,0.0,0.0,0.0,0.0,0.0,-1.8411,0.0,0.0,0.0,0.0,-2.032,-2.0885,-2.1924,-2.258,0.0,0.0,0.0,0.0,0.0,0.0,0.0,-2.5662,-2.4985,-2.4884,-2.5861,-2.4695,-2.396,-2.4583,-2.4356,-2.4388,-2.5024,0.0,-2.455,-2.455,-2.455,-2.454,-2.47,-2.4775,-2.4956,-2.5115,-2.5538,-2.5779,-2.5852,-2.6268,-2.6835,-2.7302,-2.7557,-2.7799,-2.8267,-2.7557,-2.6928,-2.6928,-2.6928,-2.7092,-2.7568,-2.7244,-2.7092,-0.9322,-0.9447,-0.9849,-0.9976,-0.9997,-1.0279,-1.0439,-1.0534,-1.0754,-1.113,-1.1778,-1.2549,-1.279,-1.2822,-1.3696,0.0,-1.3953,-1.4253,-1.4231,-1.3807,-1.4416,-1.4996,-1.5444,-1.5659,-1.6253,-1.7009,-1.7794,-1.7775,-1.6949,-1.7388,-1.7585,-1.7368,-1.7189,-1.6486,-1.5386,-1.6321,-1.6578,-1.5902,-1.591,-1.591,-1.5972,-1.5972,-1.5972,-1.5981,-1.5972,-1.5981,-1.5981,-1.5947,-1.6466,-1.7576,-1.7348,-1.7455,-1.7999,0.0,0.0,0.0,0.0,0.0,0.0,0.0,0.0,0.0,0.0,0.0,0.0,0.0,0.0,0.0,-2.0545,0.0,-2.2291,-2.2867,0.0,0.0,0.0,-2.5793,-2.5793,-2.5735,-2.5878,-2.6303,0.0,0.0,-2.6905,-2.5684,-2.4711,-2.47,-2.4615,-2.47,-2.4786,-2.4861,-2.47,-2.4786,-2.4786,-2.47,-2.4946,-2.5105,-2.5359,-2.5706,-2.6528,-2.7092,-2.7092,-2.7718,-2.8267,-2.8426,-2.8426,-2.8585,-2.8585,-2.8664,-2.8585,-2.8597,-2.8414,-2.8335,-2.8426,-2.8347,-2.8267,-0.973,-1.0369,-1.0498,-1.0529,-1.0534,-1.1306,-1.1653,-1.1738,-1.1706,-1.2178,-1.2923,-1.308,-1.3521,-1.4084,-1.4307,-1.4752,-1.526,-1.5347,-1.5635,-1.6163,-1.6338,-1.6439,-1.6597,-1.6665,-1.6783,-1.7009,-1.7784,-1.764,-1.6685,-1.8136,-1.7921,-1.6289,-1.7828,-1.8109,-1.6937,-1.6643,-1.6909,-1.7578,-1.7587,-1.788,-1.8379,-1.8461,-1.8461,-1.8461,-1.8451,-1.8461,-1.8451,-1.8067,-1.8176,-1.8802,-1.8498,-1.8161,-1.8031,-1.9007,0.0,0.0,0.0,0.0,0.0,0.0,0.0,0.0,0.0,-2.1341,-2.1246,0.0,-2.0105,0.0,-2.159,-2.2423,-2.3475,-2.3851,0.0,0.0,-2.5352,-2.5984,-2.5438,-2.6575,-2.7325,-2.699,-2.7044,-2.7158,-2.7092,-2.6753,-2.6494,-2.6494,-2.5913,-2.608,-2.7487,-2.6987,-2.6494,-2.6412,-2.6412,-2.6577,-2.6648,-2.6812,-2.6823,-2.6753,-2.6999,-2.7151,-2.7151,-2.7476,-2.7947,-2.8755,-2.9081,-2.9484,-3.0177,-3.0343,-3.0343,-3.0266,-2.9303,-2.8585,-2.9225,-2.89,-2.8585,-1.0757,-1.1581,-1.1999,-1.2246,-1.2246,-1.2213,-1.2488,-1.2824,-1.2932,-1.3413,-1.4027,-1.388,-1.4294,-1.4979,-1.5064,-1.5512,-1.6261,-1.6426,-1.6716,-1.7035,-1.7295,-1.7586,-1.7819,-1.7988,-1.8222,-1.8605,-1.908,-1.8892,-1.8368,-1.9161,-1.8858,-1.7606,-1.8695,-1.9039,-1.8543,-1.799,-1.8008,-1.8701,-1.8692,-1.8922,-1.9277,-1.9277,-1.9277,-1.9277,-1.9277,-1.9277,-1.9277,-1.9053,-1.9121,-1.9531,-1.9232,-1.9092,-1.9139,-1.9565,-2.0422,0.0,0.0,0.0,0.0,0.0,0.0,0.0,0.0,0.0,0.0,0.0,-2.1145,0.0,-2.3329,-2.3742,-2.4607,-2.5058,-2.5114,-2.4716,-2.5858,-2.6484,-2.6091,-2.7,-2.7603,-2.7742,-2.7661,-2.7778,-2.8235,-2.7637,-2.7395,-2.8143,-2.7557,-2.7232,-2.781,-2.7476,-2.7139,-2.7139,-2.7139,-2.7151,-2.7313,-2.7395,-2.7464,-2.7383,-2.7706,-2.8039,-2.8119,-2.8609,-2.9147,-2.9806,-3.0037,-3.0279,-3.0898,-3.0986,-3.0986,-3.0898,-3.0266,-2.9781,-3.0177,-2.9871,-2.9704,-1.2003,-1.2936,-1.3795,-1.4139,-1.4203,-1.3201,-1.3263,-1.394,-1.4198,-1.4587,-1.5139,-1.4865,-1.5265,-1.6,-1.6008,-1.647,-1.7334,-1.7588,-1.763,-1.7512,-1.8083,-1.8619,-1.9028,-1.9284,-1.9854,-2.0566,-2.0576,-2.0537,-2.0478,-2.0156,-1.9951,-1.9824,-1.958,-1.9609,-1.9893,-1.9609,-1.9453,-1.9453,-1.9453,-1.9453,-1.9443,-1.9453,-1.9453,-1.9453,-1.9453,-1.9443,-1.9453,-1.9394,-1.9561,-1.9951,-1.9728,-1.9969,-2.0581,-2.0152,-2.0368,0.0,-2.14,0.0,0.0,0.0,0.0,0.0,0.0,0.0,0.0,-2.1459,-2.2331,-2.5706,-2.5253,-2.5038,-2.565,-2.6198,-2.6268,-2.5544,-2.64,-2.7139,-2.7221,-2.7313,-2.7637,-2.8542,-2.7971,-2.8063,-2.9456,-2.8383,-2.8051,-2.93,-2.9052,-2.8371,-2.7718,-2.7557,-2.7557,-2.7476,-2.7476,-2.773,-2.7637,-2.7718,-2.7879,-2.7959,-2.8597,-2.925,-2.9419,-3.0062,-3.0698,-3.0836,-3.0823,-3.0911,-3.0986,-3.0986,-3.0986,-3.0986,-3.0898,-3.0898,-3.0898,-3.0911,-3.0986,-1.3021,-1.388,-1.4048,-1.4489,-1.5166,-1.4935,-1.4913,-1.5087,-1.5144,-1.5621,-1.6359,-1.6296,-1.6742,-1.7544,-1.7544,-1.8021,-1.8828,-1.891,-1.9284,-1.9927,-2.009,-2.0129,-2.0285,-2.0362,-2.0479,-2.0566,-2.0576,-2.0381,-2.0049,-2.0312,-2.0088,-1.9434,-2.0019,-2.0185,-1.9941,0.0,0.0,0.0,-2.0322,-2.0322,-2.0322,-2.0322,-2.0332,-2.0322,-2.0399,0.0,-2.0312,-1.998,-1.999,-2.04,-2.0029,0.0,0.0,0.0,0.0,0.0,0.0,0.0,0.0,0.0,0.0,0.0,-2.4835,-2.4419,-2.3536,-2.3623,-2.4601,-2.6644,-2.6434,-2.6188,-2.6267,-2.6714,-2.6932,-2.678,-2.693,-2.7395,-2.8131,-2.8223,-2.8554,-2.9456,-2.9378,-2.9378,-2.9624,-2.9456,-2.9378,-2.9714,-2.9624,-2.9456,-2.9287,-2.9209,-2.9287,-2.93,-2.9131,-2.9209,-2.93,-2.93,-2.9275,-2.9599,-2.9741,-2.9921,-2.9985,-3.0216,-3.0444,-3.052,-3.0609,-3.0849,-3.0986,-3.0986,-3.0986,-3.0986,-3.0986,-3.0986,-3.0986,-3.0986,-3.0986,-1.388,0.0,-1.4741,-1.4999,0.0,-1.5431,-1.5431,-1.5431,-1.5431,-1.5906,-1.669,-1.718,-1.7836,-1.8647,-1.8647,-1.9125,-1.9932,-1.9932,-2.0177,-2.0566,-2.0576,-2.0576,-2.0576,-2.0576,-2.0789,-2.1155,-2.1165,-2.1263,-2.1435,-2.1642,-2.1528,-2.1167,-2.1538,-2.1642,-2.1424,-2.1642,-2.1385,-2.0566,-2.0576,-2.0576,-2.0576,-2.0576,-2.0576,-2.0576,0.0,0.0,0.0,0.0,0.0,0.0,0.0,0.0,0.0,0.0,0.0,-2.4082,-2.4158,-2.4551,-2.5233,-2.5344,-2.5371,-2.5701,-2.5865,-2.5629,-2.4635,-2.5083,-2.6274,-2.8169,-2.7831,-2.7502,-2.7514,-2.8068,-2.8291,-2.7891,-2.8131,-2.8633,-2.9052,-2.9118,-2.93,-2.9702,-2.9779,-2.9779,-2.9779,-2.9779,-2.9779,-2.9779,-2.9779,-2.9779,-2.9779,-2.9779,-2.9779,-2.9779,-2.9779,-2.9779,-2.9779,-2.9779,-2.9792,-2.9946,-2.9934,-3.0011,-3.0088,-3.0305,-3.0444,-3.0533,-3.0685,-3.0911,-3.0986,-3.0986,-3.0986,-3.0986,-3.0986,-3.0986,-3.0986,-3.0986,-3.0986,-1.4769,-1.5504,-1.5369,-1.5431,-1.5431,-1.559,-1.5756,-1.5831,0.0,0.0,0.0,-1.7917,-1.8727,-1.9539,-1.9539,-1.9942,-2.0566,-2.0576,-2.0576,-2.0576,-2.0576,-2.0644,-2.0789,-2.0789,-2.1242,-2.1993,-2.1983,-2.236,-2.3032,-2.3032,-2.3032,-2.3032,-2.3032,-2.3032,-2.3032,-2.3108,-2.2477,-2.1208,-2.1051,-2.1021,-2.1011,-2.1091,-2.1131,-2.1121,-2.1211,-2.1328,-2.1318,-2.1328,-2.1318,-2.1396,-2.23,-2.3221,-2.3951,-2.4489,-2.5535,-2.6895,-2.6163,-2.5681,-2.5939,-2.5951,-2.6051,-2.6221,-2.6784,-2.6694,-2.587,-2.6445,-2.7668,-2.9666,-2.9172,-2.8712,-2.8712,-2.9378,-2.9546,-2.8791,-2.9378,-2.9779,-2.9779,-2.9779,-2.9792,-2.9779,-2.9779,-2.9779,-2.9779,-2.9779,-2.9779,-2.9779,-2.9779,-2.9779,-2.9779,-2.9779,-2.9779,-2.9779,-2.9779,-2.9779,-2.9779,-2.9779,-2.9792,-2.9869,-2.9869,-2.9934,-3.0075,-3.0305,-3.0457,-3.0609,-3.0836,-3.0986,-3.0986,-3.0986,-3.0986,-3.0986,-3.0986,-3.0986,-3.0986,-3.0986,-3.0986,-1.543,-1.5818,-1.5548,-1.5431,-1.5431,-1.6221,-1.6952,-1.7594,-1.687,-1.7432,-1.8975,-1.9054,-1.9608,-2.0411,-2.0401,-2.0489,-2.0576,-2.0576,-2.0576,0.0,-2.0576,-2.0934,-2.1614,-2.1614,-2.2069,-2.2809,-2.2798,-2.2872,-2.3032,-2.3032,-2.3032,-2.3032,-2.3032,-2.3043,-2.3065,-2.3426,-2.3547,-2.3329,-2.295,-2.266,-2.266,-2.3037,-2.3231,-2.3252,-2.3729,-2.3956,-2.3967,-2.3946,-2.4035,-2.4259,-2.4493,-2.4815,-2.5271,-2.5358,-2.5893,-2.6919,-2.624,-2.5919,-2.6357,-2.638,-2.6892,-2.8028,-2.8893,-2.8786,-2.7609,-2.7951,-2.8627,-2.9702,-2.9624,-2.9624,-2.9624,-2.9702,-2.9702,-2.9624,-2.9714,-2.9779,-2.9779,-2.9779,-2.9779,-2.9779,-2.9779,-2.9779,-2.9779,-2.9779,-2.9779,-2.9779,-2.9779,-2.9779,-2.9779,-2.9779,-2.9779,-2.9779,-2.9779,-2.9779,-2.9779,-2.9779,-2.9869,-3.0011,-3.0011,-3.0011,-3.0075,-3.0381,-3.0533,-3.0444,-3.0761,-3.0986,-3.0986,-3.0986,-3.0986,-3.0986,-3.0986,-3.0986,-3.0986,-3.0986,-3.0986,-1.6023,-1.6227,-1.6581,-1.6684,-1.6769,-1.7684,-1.8605,-1.9359,-1.9029,-1.8947,-1.9311,-1.9775,-2.0245,-2.0566,-2.0576,-2.0576,-2.0634,-2.1021,-2.1242,-2.1308,-2.169,-2.2059,-2.2456,-2.268,-2.3112,-2.3559,-2.388,-2.4101,-2.4227,-2.4288,-2.4276,-2.4299,-2.4542,-2.4842,-2.5131,-2.535,-2.5466,-2.5466,-2.439,-2.381,-2.3821,-2.4018,-2.4127,-2.4127,-2.4357,-2.4478,-2.4478,-2.4624,-2.4781,-2.4937,-2.547,-2.607,-2.6628,-2.7079,-2.7678,-2.8448,-2.8171,-2.8094,-2.8258,-2.8282,-2.8548,-2.9184,-2.9534,-2.9537,-2.8929,-2.9061,-2.9378,-2.9779,-2.9779,-2.9779,-2.9779,-2.9779,-2.9779,-2.9779,-2.9779,-2.9779,-2.9779,-2.9779,-2.9779,-2.9779,-2.9779,-2.9779,-2.9779,-2.9779,-2.9779,-2.9779,-2.9779,-2.9779,-2.9779,-2.9779,-2.9779,-2.9779,-2.9779,-2.9779,-2.9779,-2.9779,-2.9869,-2.9934,-2.9934,-3.0011,-3.0075,-3.0381,-3.052,-3.0609,-3.0836,-3.0986,-3.0986,-3.0986,-3.0986,-3.0986,-3.0986,-3.0986,-3.0986,-3.0986,-3.0986,-1.6757,-1.6906,-1.7771,-1.8251,-1.851,-1.929,-2.0063,-2.0848,-2.0838,-2.0484,-2.0024,-2.0622,-2.0752,-2.0576,-2.0664,-2.0869,-2.1103,-2.1691,-2.2126,-2.245,-2.3059,-2.3425,-2.3608,-2.3962,-2.4382,-2.4692,-2.5164,-2.546,-2.5637,-2.5673,-2.5673,-2.5709,-2.6081,-2.6514,-2.6935,-2.698,-2.7103,-2.7028,-2.5945,-2.5251,-2.5038,-2.5139,-2.5195,-2.5206,-2.5397,-2.5363,-2.5442,-2.5599,-2.5745,-2.5812,-2.6653,-2.7404,-2.7944,-2.8645,-2.9327,-2.9729,-2.9779,-2.9779,-2.9779,-2.9779,-2.9779,-2.9779,-2.9779,-2.9779,-2.9779,-2.9779,-2.9779,-2.9779,-2.9779,-2.9779,-2.9779,-2.9779,-2.9779,-2.9779,-2.9779,-2.9779,-2.9779,-2.9779,-2.9779,-2.9779,-2.9779,-2.9779,-2.9779,-2.9779,-2.9779,-2.9779,-2.9779,-2.9779,-2.9779,-2.9779,-2.9779,-2.9779,-2.9779,-2.9779,-2.9779,-2.9779,-2.9792,-2.9779,-2.9779,-2.9869,-3.0011,-3.0228,-3.0368,-3.0546,-3.0761,-3.0911,-3.0911,-3.0986,-3.0986,-3.0986,-3.0986,-3.0986,-3.0986,-3.0986,-3.0986,-1.7842,-1.8233,-1.8849,-1.963,-2.0352,-2.0437,-2.1043,-2.1738,-2.1802,-2.1763,-2.1656,-2.1768,-2.1399,-2.0684,-2.0996,-2.164,-2.2408,-2.2496,-2.3154,-2.4113,-2.4346,-2.4737,-2.5386,-2.5489,-2.5884,-2.6518,-2.6665,-2.6641,-2.662,-2.6707,-2.6692,-2.6779,-2.6839,-2.6887,-2.6995,-2.7416,-2.7645,-2.7657,-2.7956,-2.7651,-2.6792,-2.7162,-2.7412,-2.74,-2.7854,-2.8104,-2.7965,-2.8195,-2.8263,-2.8409,-2.8609,-2.8971,-2.9164,-2.9537,-2.9729,-2.9779,-2.9779,-2.9779,-2.9779,-2.9779,-2.9779,-2.9779,-2.9779,-2.9779,-2.9779,-2.9779,-2.9779,-2.9779,-2.9779,-2.9779,-2.9779,-2.9779,-2.9779,-2.9779,-2.9779,-2.9779,-2.9779,-2.9779,-2.9779,-2.9779,-2.9779,-2.9779,-2.9779,-2.9779,-2.9779,-2.9779,-2.9779,-2.9856,-2.9934,-2.9921,-2.9998,-2.9934,-2.9856,-2.9869,-2.9869,-2.9779,-2.9779,-2.9779,-2.9779,-2.9869,-2.9946,-3.0011,-3.0152,-3.0381,-3.0546,-3.0773,-3.0911,-3.0836,-3.1061,-3.1334,-3.1272,-3.1136,-3.1061,-3.1123,-3.1198,-1.9329,-1.9544,-2.0377,-2.12,-2.1997,-2.2093,-2.2265,-2.2627,-2.2627,-2.2735,-2.3029,-2.3335,-2.296,-2.2149,-2.2311,-2.2863,-2.3724,-2.4193,-2.4681,-2.526,-2.567,-2.6142,-2.6406,-2.6777,-2.693,-2.692,-2.7248,-2.7236,-2.6896,-2.6923,-2.7079,-2.7368,-2.7404,-2.756,-2.7861,-2.8077,-2.8186,-2.8198,-2.8402,-2.8294,-2.7945,-2.8077,-2.8186,-2.821,-2.8402,-2.851,-2.851,-2.8578,-2.8724,-2.8803,-2.9106,-2.9341,-2.9419,-2.9689,-2.9779,-2.9779,-2.9779,-2.9779,-2.9779,-2.9779,-2.9779,-2.9779,-2.9779,-2.9779,-2.9779,-2.9779,-2.9779,-2.9779,-2.9779,-2.9779,-2.9779,-2.9779,-2.9779,-2.9779,-2.9779,-2.9779,-2.9779,-2.9779,-2.9779,-2.9779,-2.9779,-2.9779,-2.9779,-2.9779,-2.9779,-2.9779,-2.9779,-2.9998,-3.0343,-3.0482,-3.0633,-3.1009,-3.1158,-3.0722,-3.0075,-2.9779,-2.9779,-2.9779,-2.9779,-2.9792,-3.0011,-3.0011,-3.0152,-3.0381,-3.0685,-3.1048,-3.1529,-3.1603,-3.175,-3.1955,-3.2318,-3.2318,-3.2318,-3.2318,-3.2318,-2.0602,-2.0773,-2.1686,-2.2501,-2.3047,-2.3144,-2.3222,-2.3484,-2.3484,-2.3801,-2.4378,-2.4682,-2.464,-2.4281,-2.3949,-2.4196,-2.5071,-2.5631,-2.6112,-2.6461,-2.7038,-2.7368,-2.7404,-2.7741,-2.7741,-2.7488,-2.7765,-2.7741,-2.7404,-2.7368,-2.756,-2.7885,-2.7933,-2.8126,-2.8474,-2.851,-2.851,-2.851,-2.851,-2.851,-2.8498,-2.851,-2.851,-2.851,-2.851,-2.851,-2.851,-2.8657,-2.8724,-2.8803,-2.9106,-2.9353,-2.9419,-2.9611,-2.9779,-2.9779,-2.9779,-2.9779,-2.9779,-2.9779,-2.9779,-2.9779,-2.9779,-2.9779,-2.9779,-2.9779,-2.9779,-2.9779,-2.9779,-2.9779,-2.9779,-2.9779,-2.9779,-2.9779,-2.9779,-2.9779,-2.9779,-2.9934,-3.0139,-3.0152,-3.0432,-3.0444,-3.0368,-3.0279,-3.0216,-3.0508,-3.0508,-3.057,-3.1057,-3.1254,-3.1489,-3.2001,-3.2087,-3.1649,-3.0659,-3.0583,-3.0444,-3.0444,-3.0583,-3.057,-3.0646,-3.0646,-3.0709,-3.1294,-3.1185,-3.1408,-3.1969,-3.2318,-3.2506,-3.3017,-3.3227,-3.3227,-3.3017,-3.3157,-3.3157,-2.1606,-2.1784,-2.2599,-2.3047,-2.3135,-2.3144,-2.3647,-2.4327,-2.4413,-2.4893,-2.5597,-2.5724,-2.6224,-2.678,-2.568,-2.5583,-2.6393,-2.6461,-2.7179,-2.8148,-2.8311,-2.8426,-2.8426,-2.8474,-2.845,-2.8306,-2.8354,-2.839,-2.8366,-2.839,-2.845,-2.8462,-2.8426,-2.8462,-2.859,-2.859,-2.851,-2.8669,-2.8657,-2.859,-2.859,-2.859,-2.859,-2.859,-2.851,-2.851,-2.851,-2.851,-2.8578,-2.8803,-2.904,-2.9197,-2.9419,-2.9702,-2.9792,-2.9856,-2.9792,-2.9779,-2.9856,-2.9856,-2.9856,-2.9856,-3.0011,-2.9856,-3.0011,-2.9985,-2.9973,-2.9869,-3.0023,-3.0023,-2.9921,-2.9856,-2.9869,-2.9856,-2.9792,-2.9779,-2.9856,-3.0482,-3.0833,-3.097,-3.1429,-3.1736,-3.1869,-3.1341,-3.1267,-3.1649,-3.1942,-3.1928,-3.2015,-3.2074,-3.2146,-3.2232,-3.229,-3.2074,-3.2015,-3.1649,-3.1723,-3.1663,-3.1516,-3.1783,-3.1942,-3.2015,-3.206,-3.2132,-3.2173,-3.2345,-3.2618,-3.2889,-3.3227,-3.3437,-3.3575,-3.3506,-3.3782,-3.3367,-3.3437,-2.2599,-2.2599,-2.296,-2.3144,-2.3135,-2.3734,-2.4155,-2.4584,-2.5073,-2.583,-2.6588,-2.667,-2.7174,-2.7995,-2.7566,-2.7484,-2.7735,-2.7802,-2.808,-2.8546,-2.8859,-2.8835,-2.8558,-2.8847,-2.8811,-2.8546,-2.851,-2.851,-2.851,-2.851,-2.851,-2.851,-2.851,-2.8657,-2.904,-2.9118,-2.9275,-2.9651,-2.9639,-2.9639,-2.9639,-2.9639,-2.9639,-2.9639,-2.8895,-2.851,-2.851,-2.851,-2.8578,-2.8803,-2.8973,-2.9197,-2.9419,-2.9611,-2.9998,-3.0419,-3.0075,-2.9998,-3.0419,-3.0482,-3.0784,-3.122,-3.1294,-3.122,-3.1206,-3.1027,-3.09,-3.1206,-3.1601,-3.1615,-3.111,-3.0444,-3.0011,-3.0343,-3.0139,-3.0216,-3.0934,-3.1044,-3.0979,-3.1256,-3.2015,-3.2495,-3.2228,-3.1856,-3.1769,-3.2001,-3.2087,-3.2403,-3.272,-3.2804,-3.2974,-3.3409,-3.3534,-3.3534,-3.3534,-3.2591,-3.2074,-3.2087,-3.2087,-3.2074,-3.216,-3.2304,-3.229,-3.2591,-3.2761,-3.2974,-3.3241,-3.3879,-3.4085,-3.4288,-3.437,-3.4356,-3.4706,-3.4356,-3.4423,-2.3309,-2.356,-2.356,-2.3724,-2.4069,-2.4659,-2.5084,-2.5421,-2.5997,-2.6753,-2.751,-2.7603,-2.7926,-2.8431,-2.851,-2.8619,-2.8751,-2.8775,-2.8763,-2.8787,-2.9367,-2.9423,-2.9156,-2.9413,-2.9487,-2.9155,-2.9118,-2.904,-2.9106,-2.9118,-2.9118,-2.9106,-2.9118,-2.9275,-2.9639,-2.9716,-2.9947,-3.0254,-3.033,-3.033,-3.033,-3.033,-3.0393,-3.0393,-2.9704,-2.925,-2.925,-2.925,-2.9394,-2.9704,-2.9871,-3.0088,-3.0241,-3.0419,-3.0784,-3.1206,-3.0859,-3.0722,-3.1193,-3.1254,-3.1489,-3.2015,-3.2087,-3.2087,-3.2074,-3.1766,-3.1793,-3.2087,-3.2368,-3.2468,-3.2036,-3.1316,-3.0979,-3.1185,-3.0846,-3.0947,-3.1942,-3.1856,-3.192,-3.2382,-3.2971,-3.3237,-3.3209,-3.298,-3.298,-3.3096,-3.332,-3.3633,-3.3804,-3.3888,-3.4141,-3.477,-3.451,-3.4481,-3.4398,-3.3677,-3.3129,-3.3101,-3.296,-3.2804,-3.2662,-3.2662,-3.2804,-3.2974,-3.3269,-3.3534,-3.4016,-3.4654,-3.5016,-3.5148,-3.5148,-3.5067,-3.5279,-3.5359,-3.5243,-2.3647,-2.4498,-2.4488,-2.4904,-2.5495,-2.5746,-2.6329,-2.6928,-2.7185,-2.7684,-2.8259,-2.8431,-2.8431,-2.851,-2.859,-2.8843,-2.9169,-2.9334,-2.9371,-2.9383,-2.9893,-3.0201,-3.0065,-3.0199,-3.0215,-3.0101,-3.0254,-3.0254,-3.0177,-3.0101,-3.0101,-3.0165,-3.0101,-3.0165,-3.033,-3.033,-3.0317,-3.0482,-3.0558,-3.0482,-3.0317,-3.0545,-3.0758,-3.097,-3.0957,-3.0895,-3.0895,-3.0882,-3.0957,-3.1502,-3.1649,-3.1869,-3.1928,-3.1928,-3.2087,-3.2114,-3.2087,-3.2015,-3.2074,-3.2074,-3.2146,-3.2376,-3.2232,-3.2376,-3.2434,-3.2277,-3.2277,-3.2376,-3.239,-3.2304,-3.2386,-3.2709,-3.2657,-3.2209,-3.2036,-3.2158,-3.2386,-3.2832,-3.3465,-3.4063,-3.428,-3.4651,-3.4977,-3.4541,-3.437,-3.4981,-3.5438,-3.5597,-3.5235,-3.5204,-3.5563,-3.5807,-3.5328,-3.482,-3.4849,-3.4864,-3.4535,-3.4264,-3.4128,-3.3977,-3.3756,-3.3756,-3.3756,-3.3908,-3.3908,-3.4182,-3.4235,-3.4868,-3.5001,-3.5148,-3.5344,-3.5504,-3.5489,-3.5519,-3.5594,-2.4573,-2.5326,-2.5411,-2.5495,-2.5913,-2.6505,-2.6928,-2.7267,-2.7846,-2.8271,-2.851,-2.851,-2.851,-2.859,-2.8882,-2.9217,-2.9468,-3.0119,-3.0306,-3.0066,-3.0545,-3.0671,-3.0405,-3.0649,-3.0624,-3.0381,-3.033,-3.033,-3.033,-3.0343,-3.033,-3.033,-3.033,-3.0558,-3.0921,-3.0934,-3.1084,-3.1542,-3.1823,-3.1955,-3.1955,-3.2245,-3.2376,-3.2519,-3.2519,-3.2676,-3.2804,-3.1915,-3.1476,-3.1869,-3.1796,-3.2046,-3.2508,-3.2335,-3.2643,-3.3437,-3.2643,-3.2376,-3.2791,-3.2861,-3.3087,-3.3534,-3.3687,-3.3673,-3.3687,-3.3604,-3.3618,-3.3687,-3.3687,-3.3687,-3.3787,-3.4242,-3.4115,-3.303,-3.3147,-3.3657,-3.403,-3.4115,-3.4369,-3.4886,-3.4675,-3.492,-3.5635,-3.5453,-3.5337,-3.5896,-3.6243,-3.6243,-3.6083,-3.6025,-3.604,-3.6185,-3.5517,-3.5111,-3.5212,-3.5053,-3.4661,-3.4457,-3.4414,-3.4414,-3.4414,-3.4414,-3.4481,-3.4481,-3.4481,-3.4549,-3.475,-3.4957,-3.5134,-3.5222,-3.5448,-3.5499,-3.5504,-3.5594,-3.5759,-2.5495,-2.6329,-2.634,-2.6494,-2.6835,-2.7429,-2.7672,-2.7765,-2.8259,-2.851,-2.851,-2.8736,-2.8803,-2.8961,-2.9484,-2.9842,-3.0096,-3.083,-3.1035,-3.0902,-3.1241,-3.1358,-3.1254,-3.1368,-3.1326,-3.114,-3.1232,-3.1206,-3.1035,-3.1219,-3.1219,-3.1061,-3.1022,-3.122,-3.1736,-3.1823,-3.2055,-3.2588,-3.2789,-3.2917,-3.2988,-3.3199,-3.3339,-3.3479,-3.3479,-3.3701,-3.3908,-3.3087,-3.2648,-3.2733,-3.2747,-3.2989,-3.3366,-3.3227,-3.3424,-3.3929,-3.3634,-3.3171,-3.3589,-3.3659,-3.3811,-3.4264,-3.4414,-3.4414,-3.4414,-3.4414,-3.4414,-3.4414,-3.4346,-3.4516,-3.4791,-3.5343,-3.5249,-3.4497,-3.4635,-3.4992,-3.5293,-3.4824,-3.4725,-3.5218,-3.5689,-3.611,-3.6373,-3.6431,-3.6228,-3.662,-3.6881,-3.6852,-3.678,-3.6678,-3.6736,-3.6548,-3.5909,-3.5691,-3.5662,-3.5285,-3.4748,-3.4545,-3.4414,-3.4414,-3.4414,-3.4414,-3.4414,-3.4414,-3.4414,-3.4481,-3.4631,-3.5154,-3.5488,-3.5518,-3.5591,-3.5857,-3.6013,-3.5968,-3.6103,-2.6412,-2.7267,-2.7301,-2.7754,-2.8435,-2.8595,-2.8607,-2.8662,-2.8657,-2.8736,-2.8816,-2.9263,-2.9406,-2.9561,-3.0101,-3.056,-3.101,-3.1209,-3.1691,-3.1945,-3.2114,-3.218,-3.2405,-3.2158,-3.2071,-3.2239,-3.2691,-3.2766,-3.2421,-3.2779,-3.2853,-3.2331,-3.2296,-3.2372,-3.2561,-3.2704,-3.2846,-3.3143,-3.3269,-3.3339,-3.3339,-3.3409,-3.3563,-3.3839,-3.3839,-3.3991,-3.4264,-3.4196,-3.4196,-3.4346,-3.4196,-3.4196,-3.4332,-3.4414,-3.4278,-3.439,-3.4346,-3.4264,-3.4346,-3.4264,-3.4346,-3.4346,-3.4414,-3.4414,-3.4414,-3.4414,-3.4472,-3.4574,-3.4559,-3.4777,-3.5372,-3.5996,-3.6229,-3.6402,-3.6245,-3.6057,-3.5549,-3.5025,-3.5139,-3.5737,-3.699,-3.7956,-3.739,-3.7244,-3.7215,-3.7404,-3.7738,-3.768,-3.7506,-3.7404,-3.7636,-3.7215,-3.6548,-3.6315,-3.6315,-3.5851,-3.5357,-3.5227,-3.498,-3.4777,-3.4632,-3.4574,-3.4806,-3.4762,-3.4675,-3.4603,-3.4797,-3.5409,-3.5707,-3.5754,-3.6015,-3.638,-3.6432,-3.6261,-3.6462,-2.7348,-2.8134,-2.8595,-2.8843,-2.9169,-2.9548,-2.9776,-2.9727,-2.9802,-2.9716,-2.9871,-3.0024,-3.0024,-3.0101,-3.0696,-3.1026,-3.1329,-3.171,-3.238,-3.3009,-3.2668,-3.244,-3.2354,-3.2299,-3.2472,-3.2826,-3.3353,-3.3721,-3.3955,-3.3956,-3.3793,-3.367,-3.3167,-3.3016,-3.3129,-3.3143,-3.3199,-3.3339,-3.3563,-3.3701,-3.3701,-3.3977,-3.4128,-3.4196,-3.4196,-3.4278,-3.4414,-3.4414,-3.4414,-3.4414,-3.4414,-3.4414,-3.4414,-3.4414,-3.4414,-3.4414,-3.4414,-3.4414,-3.4414,-3.4414,-3.4414,-3.4414,-3.4414,-3.4414,-3.4414,-3.4414,-3.4646,-3.4965,-3.5125,-3.5386,-3.6011,-3.6649,-3.7172,-3.7564,-3.7288,-3.6939,-3.6678,-3.6286,-3.6051,-3.6794,-3.7609,-3.7974,-3.7944,-3.7622,-3.752,-3.7839,-3.8043,-3.8159,-3.7897,-3.7868,-3.7984,-3.7868,-3.7418,-3.7143,-3.6852,-3.6388,-3.6083,-3.6011,-3.5749,-3.5386,-3.5154,-3.4922,-3.5343,-3.5706,-3.5546,-3.5459,-3.5583,-3.5981,-3.6006,-3.6148,-3.6109,-3.6372,-3.6335,-3.6261,-3.6656,-2.8419,-2.8871,-2.9172,-2.9588,-3.0012,-2.993,-3.0173,-3.0486,-3.0355,-3.033,-3.0317,-3.0545,-3.0696,-3.0771,-3.1516,-3.1809,-3.1896,-3.2431,-3.2911,-3.3362,-3.3362,-3.3137,-3.2814,-3.2674,-3.2853,-3.3211,-3.3942,-3.4325,-3.4478,-3.4769,-3.4843,-3.452,-3.3958,-3.3818,-3.3945,-3.3648,-3.3632,-3.377,-3.3991,-3.4059,-3.4059,-3.4278,-3.4346,-3.4414,-3.4414,-3.4414,-3.4414,-3.4414,-3.4414,-3.4414,-3.4414,-3.4414,-3.4414,-3.4414,-3.4414,-3.4414,-3.4414,-3.4414,-3.4414,-3.4414,-3.4414,-3.4414,-3.4414,-3.4414,-3.4414,-3.4428,-3.469,-3.5241,-3.5769,-3.6266,-3.6736,-3.7317,-3.7796,-3.8028,-3.7897,-3.7593,-3.736,-3.7152,-3.7166,-3.7417,-3.7827,-3.8237,-3.8188,-3.7868,-3.7897,-3.8072,-3.8159,-3.8202,-3.8159,-3.8202,-3.8188,-3.8043,-3.781,-3.7418,-3.7244,-3.6896,-3.6562,-3.6504,-3.6431,-3.6069,-3.5865,-3.5561,-3.5822,-3.6228,-3.6272,-3.6272,-3.6312,-3.6412,-3.6816,-3.6814,-3.6501,-3.6438,-3.665,-3.6556,-3.6936,-2.9371,-2.9383,-2.9431,-3.0155,-3.0891,-3.0202,-3.0519,-3.1164,-3.0842,-3.0633,-3.0771,-3.1158,-3.1442,-3.1442,-3.2318,-3.2775,-3.2775,-3.2988,-3.3368,-3.3691,-3.3988,-3.4072,-3.3861,-3.3648,-3.3732,-3.397,-3.4801,-3.5043,-3.5243,-3.585,-3.5925,-3.5461,-3.4737,-3.4555,-3.4554,-3.4209,-3.4088,-3.4264,-3.4278,-3.4346,-3.4346,-3.4414,-3.4414,-3.4414,-3.4414,-3.4414,-3.4414,-3.4414,-3.4414,-3.4414,-3.4414,-3.4414,-3.4414,-3.4414,-3.4414,-3.4414,-3.4414,-3.4414,-3.4414,-3.4414,-3.4414,-3.4428,-3.4501,-3.4501,-3.4588,-3.4646,-3.4965,-3.5764,-3.6461,-3.6948,-3.7361,-3.7897,-3.8101,-3.8188,-3.8173,-3.7926,-3.7665,-3.7883,-3.7999,-3.752,-3.7926,-3.8144,-3.8202,-3.8202,-3.8202,-3.813,-3.8202,-3.8202,-3.8202,-3.8202,-3.8202,-3.8173,-3.7868,-3.7506,-3.7447,-3.7404,-3.7114,-3.6925,-3.6939,-3.678,-3.6736,-3.6548,-3.6489,-3.662,-3.6968,-3.691,-3.6577,-3.6909,-3.7361,-3.7316,-3.6892,-3.7195,-3.7443,-3.7216,-3.7331,-3.0125,-3.0163,-3.0502,-3.1086,-3.1669,-3.1526,-3.1811,-3.2463,-3.1969,-3.1909,-3.2114,-3.2331,-3.2547,-3.2832,-3.3086,-3.3199,-3.3269,-3.3452,-3.3649,-3.4512,-3.4893,-3.5408,-3.5425,-3.508,-3.5057,-3.5441,-3.6003,-3.6507,-3.6792,-3.6802,-3.7024,-3.6705,-3.5655,-3.5148,-3.516,-3.4625,-3.4278,-3.4414,-3.4414,-3.4414,-3.4414,-3.4414,-3.4414,-3.4414,-3.4414,-3.4414,-3.4414,-3.4414,-3.4414,-3.4414,-3.4414,-3.4414,-3.4414,-3.4414,-3.4414,-3.4414,-3.4414,-3.4414,-3.4414,-3.4414,-3.4414,-3.4443,-3.4835,-3.5154,-3.5238,-3.5296,-3.5863,-3.6619,-3.6967,-3.7345,-3.787,-3.8086,-3.8188,-3.8202,-3.8202,-3.8159,-3.8043,-3.8101,-3.8086,-3.8072,-3.8086,-3.8202,-3.8202,-3.8202,-3.8202,-3.8202,-3.8202,-3.8202,-3.8202,-3.8202,-3.8202,-3.8202,-3.8072,-3.7781,-3.7781,-3.7781,-3.7622,-3.7418,-3.7418,-3.7404,-3.7375,-3.7331,-3.7201,-3.7433,-3.7839,-3.7593,-3.7143,-3.7404,-3.787,-3.7565,-3.7376,-3.7478,-3.7535,-3.7504,-3.7676,-3.0945,-3.0778,-3.1316,-3.1873,-3.2306,-3.2064,-3.2377,-3.3063,-3.2841,-3.2789,-3.2917,-3.2988,-3.3129,-3.3382,-3.3776,-3.4002,-3.4143,-3.4526,-3.4967,-3.5553,-3.6027,-3.6475,-3.678,-3.6603,-3.6596,-3.6396,-3.6687,-3.7195,-3.7442,-3.7632,-3.7664,-3.7622,-3.6431,-3.5894,-3.5619,-3.4922,-3.4457,-3.4414,-3.4414,-3.4414,-3.4414,-3.4414,-3.4414,-3.4414,-3.4414,-3.4414,-3.4414,-3.4414,-3.4414,-3.4414,-3.4414,-3.4414,-3.4414,-3.4414,-3.4414,-3.4414,-3.4414,-3.4414,-3.4414,-3.4414,-3.4414,-3.4428,-3.4994,-3.5256,-3.5543,-3.5732,-3.6387,-3.7099,-3.7448,-3.7813,-3.819,-3.8202,-3.8202,-3.8202,-3.8202,-3.8202,-3.8202,-3.8202,-3.8202,-3.8202,-3.8188,-3.8202,-3.8202,-3.8202,-3.8202,-3.8202,-3.8202,-3.8202,-3.8202,-3.8202,-3.8202,-3.8202,-3.8202,-3.8144,-3.8144,-3.813,-3.8086,-3.797,-3.7912,-3.7912,-3.7897,-3.7854,-3.7825,-3.8014,-3.813,-3.8101,-3.7796,-3.8115,-3.8144,-3.7897,-3.7739,-3.7666,-3.7638,-3.7682,-3.7944,-3.185,-3.1384,-3.1928,-3.2568,-3.2954,-3.2368,-3.27,-3.3564,-3.3395,-3.3269,-3.3339,-3.3339,-3.3409,-3.3662,-3.4241,-3.4695,-3.5109,-3.5725,-3.6128,-3.6418,-3.6881,-3.7201,-3.7476,-3.7649,-3.7562,-3.6722,-3.7157,-3.7475,-3.762,-3.7912,-3.8072,-3.797,-3.7201,-3.6647,-3.6256,-3.5648,-3.5034,-3.4772,-3.4797,-3.4583,-3.4428,-3.4414,-3.4414,-3.4414,-3.4414,-3.4414,-3.4414,-3.4414,-3.4414,-3.4414,-3.4414,-3.4414,-3.4414,-3.4414,-3.4414,-3.4414,-3.4414,-3.4414,-3.4414,-3.4414,-3.4414,-3.4443,-3.4994,-3.5401,-3.5619,-3.6297,-3.6938,-3.7361,-3.7827,-3.812,-3.8173,-3.8202,-3.8202,-3.8202,-3.8202,-3.8202,-3.8202,-3.8202,-3.8202,-3.8202,-3.8202,-3.8202,-3.8202,-3.8202,-3.8202,-3.8202,-3.8202,-3.8202,-3.8202,-3.8202,-3.8202,-3.8202,-3.8202,-3.8202,-3.8202,-3.8202,-3.8202,-3.8277,-3.8277,-3.8277,-3.8277,-3.813,-3.8043,-3.8115,-3.8173,-3.8144,-3.813,-3.8173,-3.8159,-3.8115,-3.8028,-3.7854,-3.7841,-3.793,-3.8223,-3.2491,-3.2482,-3.2938,-3.3442,-3.3848,-3.3294,-3.3393,-3.3912,-3.3522,-3.3493,-3.3701,-3.3701,-3.3908,-3.4185,-3.4351,-3.481,-3.5491,-3.6228,-3.6794,-3.7128,-3.7507,-3.7682,-3.8178,-3.8295,-3.8162,-3.7984,-3.8044,-3.8104,-3.8074,-3.8159,-3.8263,-3.8177,-3.7842,-3.7546,-3.734,-3.7159,-3.6424,-3.5624,-3.5657,-3.5421,-3.4859,-3.4563,-3.4601,-3.4601,-3.4601,-3.4534,-3.4467,-3.4467,-3.4414,-3.4414,-3.4414,-3.4399,-3.4385,-3.4385,-3.4414,-3.4414,-3.4414,-3.4414,-3.4414,-3.4414,-3.4414,-3.4559,-3.4994,-3.5633,-3.6254,-3.711,-3.7696,-3.7929,-3.8117,-3.8234,-3.8188,-3.8202,-3.8202,-3.8202,-3.8202,-3.8202,-3.8202,-3.8277,-3.8277,-3.8277,-3.8277,-3.8202,-3.8202,-3.8202,-3.8202,-3.8202,-3.8202,-3.8202,-3.8202,-3.8202,-3.8202,-3.8202,-3.8202,-3.8202,-3.8202,-3.8277,-3.8277,-3.8427,-3.8427,-3.8501,-3.8427,-3.8277,-3.8202,-3.8352,-3.8277,-3.8188,-3.8188,-3.8202,-3.8188,-3.8159,-3.8115,-3.8072,-3.8088,-3.8178,-3.8385,-3.328,-3.3086,-3.355,-3.3747,-3.3691,-3.362,-3.3733,-3.3945,-3.3913,-3.3991,-3.4059,-3.4128,-3.4196,-3.4433,-3.4806,-3.5415,-3.6357,-3.7373,-3.79,-3.8267,-3.85,-3.8718,-3.9045,-3.9045,-3.9045,-3.9103,-3.903,-3.8914,-3.8634,-3.8352,-3.8546,-3.8824,-3.8478,-3.8109,-3.8102,-3.7963,-3.7609,-3.6843,-3.6678,-3.6349,-3.571,-3.5377,-3.5234,-3.5335,-3.5285,-3.5285,-3.54,-3.5219,-3.5169,-3.5169,-3.5037,-3.4721,-3.4596,-3.4566,-3.4616,-3.4481,-3.4481,-3.4414,-3.4414,-3.4414,-3.4414,-3.4472,-3.4994,-3.5633,-3.6401,-3.7331,-3.8194,-3.8428,-3.8516,-3.8427,-3.8366,-3.8366,-3.8292,-3.8277,-3.8277,-3.8337,-3.8337,-3.8397,-3.8457,-3.8472,-3.8352,-3.8277,-3.8202,-3.8202,-3.8202,-3.8202,-3.8202,-3.8202,-3.8277,-3.8337,-3.8412,-3.8546,-3.862,-3.8694,-3.8679,-3.8752,-3.8752,-3.8767,-3.8841,-3.8914,-3.8914,-3.8914,-3.8782,-3.8782,-3.8575,-3.8486,-3.8202,-3.8202,-3.8202,-3.8277,-3.8308,-3.8354,-3.8412,-3.8516,-3.8797,-3.3818,-3.3452,-3.3974,-3.396,-3.3605,-3.377,-3.3922,-3.3991,-3.4399,-3.4534,-3.4534,-3.4668,-3.4721,-3.4926,-3.5639,-3.6535,-3.752,-3.8614,-3.913,-3.9218,-3.9561,-3.9874,-3.9945,-4.003,-3.9945,-3.9999,-3.9999,-3.9819,-3.9277,-3.8914,-3.919,-3.9444,-3.8908,-3.8782,-3.9123,-3.9241,-3.8744,-3.8264,-3.787,-3.7487,-3.6914,-3.6407,-3.6212,-3.6446,-3.6197,-3.6197,-3.6306,-3.6134,-3.6087,-3.5961,-3.5788,-3.5368,-3.4733,-3.4916,-3.5052,-3.503,-3.4817,-3.4735,-3.4735,-3.4787,-3.4861,-3.4908,-3.5234,-3.5787,-3.6458,-3.7447,-3.8297,-3.8782,-3.8797,-3.8708,-3.8575,-3.859,-3.8501,-3.8501,-3.8649,-3.8782,-3.8811,-3.884,-3.8883,-3.8767,-3.8531,-3.8427,-3.8427,-3.8292,-3.8366,-3.8352,-3.8427,-3.8486,-3.8486,-3.8841,-3.8899,-3.9088,-3.916,-3.9247,-3.9376,-3.9489,-3.9505,-3.9535,-3.9662,-3.9718,-3.9748,-3.9819,-3.9621,-3.9406,-3.9262,-3.9103,-3.8679,-3.8412,-3.856,-3.8708,-3.8634,-3.8826,-3.9305,-3.9448,-3.9606,-3.3842,-3.3785,-3.4214,-3.4336,-3.4264,-3.4332,-3.4346,-3.4385,-3.4854,-3.5103,-3.5103,-3.5479,-3.5672,-3.5914,-3.6975,-3.7594,-3.8167,-3.9137,-3.9829,-3.9945,-4.01,-4.0363,-4.0347,-4.0363,-4.0675,-4.0863,-4.0847,-4.0401,-4.0015,-3.9819,-3.9819,-4.0039,-4.037,-4.0408,-4.0359,-4.0805,-4.0988,-3.9953,-3.9487,-3.8543,-3.7172,-3.6831,-3.686,-3.6783,-3.6783,-3.6783,-3.6904,-3.6859,-3.6798,-3.6737,-3.6661,-3.603,-3.5217,-3.5455,-3.6258,-3.6506,-3.635,-3.5721,-3.5721,-3.5608,-3.5618,-3.5644,-3.5781,-3.6192,-3.6626,-3.7445,-3.8457,-3.9269,-3.9062,-3.8929,-3.8855,-3.8782,-3.8708,-3.8987,-3.9277,-3.955,-3.9647,-3.9657,-3.9682,-3.9602,-3.9535,-3.906,-3.887,-3.8664,-3.8441,-3.8516,-3.8575,-3.8782,-3.8899,-3.9305,-3.9576,-3.9758,-3.9969,-4.0054,-4.0069,-4.0178,-4.0332,-4.0363,-4.0485,-4.0607,-4.069,-4.0706,-4.0293,-4.0085,-3.9999,-3.9718,-3.9145,-3.903,-3.9133,-3.932,-3.9505,-4.0024,-4.056,-4.0591,-4.0432,-3.5008,-3.5008,-3.5169,-3.5219,-3.5219,-3.4986,-3.5037,-3.5234,-3.5234,-3.535,-3.5657,-3.6024,-3.6259,-3.6599,-3.743,-3.8095,-3.8654,-3.9796,-4.0634,-4.1013,-4.1178,-4.1444,-4.1641,-4.1641,-4.1755,-4.1739,-4.1869,-4.1836,-4.1311,-4.0878,-4.0659,-4.1311,-4.1409,-4.1509,-4.1509,-4.2126,-4.2013,-4.1469,-4.0892,-3.9706,-3.8387,-3.8089,-3.8195,-3.7927,-3.7812,-3.7796,-3.7838,-3.778,-3.7738,-3.7679,-3.7546,-3.7306,-3.6908,-3.687,-3.6995,-3.7234,-3.735,-3.6964,-3.6492,-3.615,-3.6228,-3.6274,-3.6179,-3.5878,-3.6239,-3.7489,-3.914,-4.0436,-3.9661,-3.9337,-3.9364,-3.9162,-3.9205,-3.9478,-3.996,-4.0278,-4.0538,-4.0628,-4.0597,-4.0523,-4.0447,-4.01,-3.9748,-3.9606,-3.9591,-3.9718,-3.9844,-3.9969,-4.0039,-4.0232,-4.0492,-4.0613,-4.0779,-4.0863,-4.0878,-4.0946,-4.1229,-4.1327,-4.1393,-4.1525,-4.1641,-4.1575,-4.1229,-4.1111,-4.1095,-4.0607,-3.9829,-3.9829,-4.0124,-4.0317,-4.0492,-4.0966,-4.1314,-4.1111,-4.1049,-3.618,-3.6305,-3.6039,-3.5913,-3.5849,-3.5529,-3.5544,-3.5849,-3.577,-3.5913,-3.6275,-3.6707,-3.7055,-3.7411,-3.8149,-3.892,-3.9408,-4.0578,-4.1358,-4.2045,-4.2396,-4.2506,-4.2585,-4.2648,-4.271,-4.2851,-4.2756,-4.2772,-4.2569,-4.2141,-4.1997,-4.2569,-4.2126,-4.2253,-4.2569,-4.2694,-4.258,-4.2346,-4.1955,-4.0847,-3.9658,-3.9707,-3.9576,-3.9273,-3.9028,-3.889,-3.8909,-3.8711,-3.8616,-3.8544,-3.8399,-3.8286,-3.8351,-3.7895,-3.7799,-3.7955,-3.8084,-3.7994,-3.7515,-3.7163,-3.6909,-3.696,-3.7157,-3.7,-3.6689,-3.824,-3.9778,-4.1186,-4.0375,-4.0106,-4.027,-4.006,-4.0115,-4.0378,-4.0721,-4.1111,-4.1412,-4.1512,-4.1496,-4.1478,-4.1377,-4.1362,-4.1028,-4.0826,-4.0811,-4.0914,-4.1033,-4.11,-4.1233,-4.1233,-4.1512,-4.1707,-4.1933,-4.2013,-4.2029,-4.2045,-4.2206,-4.2206,-4.2285,-4.2285,-4.2317,-4.238,-4.2253,-4.2173,-4.2045,-4.1901,-4.138,-4.1264,-4.1198,-4.133,-4.1462,-4.1674,-4.182,-4.1736,-4.2192,-3.6968,-3.7285,-3.6305,-3.5976,-3.5913,-3.5834,-3.5849,-3.615,-3.6646,-3.6935,-3.7191,-3.7812,-3.8132,-3.8585,-3.9398,-4.0151,-4.0441,-4.1827,-4.2342,-4.2504,-4.2569,-4.2851,-4.2974,-4.3096,-4.3157,-4.3432,-4.3372,-4.3432,-4.3432,-4.3174,-4.2896,-4.2648,-4.2648,-4.2772,-4.2974,-4.3035,-4.2829,-4.2637,-4.2417,-4.203,-4.1205,-4.1024,-4.0849,-4.0393,-4.0178,-4.0001,-3.9338,-3.9181,-3.911,-3.911,-3.904,-3.8985,-3.8925,-3.8567,-3.8453,-3.8707,-3.858,-3.859,-3.8479,-3.8173,-3.8147,-3.8349,-3.8623,-3.8865,-3.8882,-3.9045,-4.0215,-4.1355,-4.0898,-4.082,-4.1142,-4.1327,-4.106,-4.1327,-4.1591,-4.1981,-4.2237,-4.2364,-4.2411,-4.2364,-4.2301,-4.2237,-4.2221,-4.2029,-4.182,-4.1853,-4.1869,-4.1997,-4.2205,-4.2348,-4.2678,-4.2958,-4.3157,-4.3295,-4.3312,-4.3251,-4.299,-4.2912,-4.2974,-4.2851,-4.271,-4.2789,-4.2912,-4.2851,-4.271,-4.2772,-4.2818,-4.2348,-4.2141,-4.2285,-4.2443,-4.2618,-4.3005,-4.3249,-4.3994,-3.7389,-3.7669,-3.7266,-3.7042,-3.6831,-3.6507,-3.6677,-3.7087,-3.7131,-3.7546,-3.8141,-3.8544,-3.9028,-3.9631,-4.0081,-4.0968,-4.169,-4.22,-4.2731,-4.3136,-4.3235,-4.3312,-4.3432,-4.3432,-4.3492,-4.3568,-4.3645,-4.3645,-4.3568,-4.3645,-4.3509,-4.3295,-4.3174,-4.3295,-4.3372,-4.3339,-4.3063,-4.2841,-4.285,-4.2651,-4.1707,-4.1872,-4.174,-4.1094,-4.0498,-4.0299,-3.9934,-3.9487,-3.9355,-3.9288,-3.9288,-3.9288,-3.9288,-3.8969,-3.9023,-3.9272,-3.8952,-3.9023,-3.911,-3.8711,-3.8332,-3.8597,-3.9345,-4.0309,-4.0846,-4.0887,-4.1514,-4.1962,-4.1733,-4.1475,-4.1981,-4.1787,-4.1525,-4.2061,-4.2459,-4.2789,-4.2974,-4.3035,-4.3035,-4.2912,-4.2974,-4.3035,-4.3096,-4.3157,-4.2958,-4.2818,-4.2818,-4.2834,-4.2974,-4.3096,-4.3312,-4.3432,-4.3568,-4.3645,-4.3645,-4.3568,-4.3568,-4.3492,-4.3492,-4.3295,-4.3113,-4.3251,-4.3372,-4.3312,-4.3235,-4.3235,-4.3174,-4.3096,-4.2974,-4.2974,-4.3195,-4.3493,-4.3998,-4.4591,-4.5386,-3.7876,-3.8075,-3.8059,-3.796,-3.77,-3.7389,-3.7535,-3.7943,-3.7738,-3.8084,-3.8931,-3.9002,-3.9303,-4.0017,-4.063,-4.1127,-4.2014,-4.2609,-4.3105,-4.3403,-4.3568,-4.3645,-4.3645,-4.3568,-4.3568,-4.3645,-4.3645,-4.3645,-4.3645,-4.3645,-4.3568,-4.3568,-4.3645,-4.3568,-4.3568,-4.3595,-4.3346,-4.3131,-4.3164,-4.3247,-4.227,-4.2535,-4.2485,-4.1773,-4.1127,-4.058,-4.0199,-3.9686,-3.9322,-3.9288,-3.9288,-3.9288,-3.9288,-3.9288,-3.9288,-3.9288,-3.9288,-3.9288,-3.9197,-3.9194,-3.917,-3.9978,-4.0518,-4.159,-4.214,-4.2158,-4.2334,-4.3127,-4.2525,-4.2126,-4.2772,-4.2585,-4.2443,-4.2912,-4.2912,-4.3174,-4.3312,-4.3432,-4.3449,-4.3449,-4.3509,-4.3449,-4.3449,-4.3432,-4.3372,-4.3218,-4.3235,-4.3235,-4.3312,-4.3432,-4.3509,-4.3568,-4.3585,-4.3645,-4.3645,-4.3568,-4.3568,-4.3568,-4.3568,-4.3568,-4.3509,-4.3645,-4.3645,-4.3509,-4.3509,-4.3568,-4.3608,-4.3619,-4.3597,-4.3585,-4.3701,-4.3817,-4.4726,-4.5309,-4.6099,-3.8408,-3.8391,-3.8391,-3.8408,-3.8391,-3.8335,-3.8319,-3.8432,-3.8583,-3.886,-3.9218,-3.9272,-3.9338,-3.9719,-4.0663,-4.1326,-4.1905,-4.2883,-4.3495,-4.3578,-4.3645,-4.3645,-4.3645,-4.3628,-4.3645,-4.3628,-4.3628,-4.3628,-4.3645,-4.3645,-4.3645,-4.3704,-4.3704,-4.3628,-4.3645,-4.3645,-4.3611,-4.3611,-4.3611,-4.3479,-4.338,-4.338,-4.3015,-4.2518,-4.1624,-4.0978,-4.0547,-3.9702,-3.9375,-3.9288,-3.9288,-3.9288,-3.9288,-3.9288,-3.9288,-3.9288,-3.9338,-3.9371,-3.9421,-4.0017,-4.0727,-4.142,-4.153,-4.2397,-4.3065,-4.3019,-4.2789,-4.3476,-4.2945,-4.2912,-4.3251,-4.3492,-4.3432,-4.3355,-4.3372,-4.3432,-4.3568,-4.3645,-4.3645,-4.3645,-4.3645,-4.3585,-4.3585,-4.3585,-4.3568,-4.3568,-4.3568,-4.3645,-4.3645,-4.3645,-4.3645,-4.3645,-4.3645,-4.3645,-4.3645,-4.3645,-4.3585,-4.3645,-4.3645,-4.3645,-4.3645,-4.3645,-4.3645,-4.3645,-4.381,-4.3976,-4.4092,-4.4208,-4.4291,-4.434,-4.3893,-4.4108,-4.5086,-4.598,-4.6643,-3.8504,-3.8639,-3.8639,-3.8821,-3.8947,-3.856,-3.8488,-3.8711,-3.8985,-3.9218,-3.9272,-3.9288,-3.9603,-4.0083,-4.0481,-4.1226,-4.2137,-4.2386,-4.3015,-4.3611,-4.3645,-4.3645,-4.3645,-4.3763,-4.3763,-4.3822,-4.3822,-4.3864,-4.3923,-4.3822,-4.3864,-4.3923,-4.3864,-4.3805,-4.3687,-4.3645,-4.3628,-4.3628,-4.3628,-4.3628,-4.3645,-4.3611,-4.3495,-4.3148,-4.2071,-4.1293,-4.0928,-3.9989,-3.9375,-3.9342,-3.9342,-3.9325,-3.9342,-3.9342,-3.9325,-3.9475,-3.962,-4.0514,-4.1094,-4.169,-4.1442,-4.1707,-4.2121,-4.2684,-4.2841,-4.3201,-4.3333,-4.3492,-4.3372,-4.3372,-4.3492,-4.3568,-4.3509,-4.3509,-4.3568,-4.3568,-4.3645,-4.3645,-4.3645,-4.3645,-4.3645,-4.3645,-4.3645,-4.3645,-4.3645,-4.3645,-4.3645,-4.3645,-4.3645,-4.3645,-4.3645,-4.3645,-4.3645,-4.3645,-4.3645,-4.3645,-4.3645,-4.3645,-4.3645,-4.3645,-4.3645,-4.3645,-4.3711,-4.3761,-4.4059,-4.4357,-4.4655,-4.4937,-4.5152,-4.5102,-4.4771,-4.4705,-4.55,-4.6311,-4.6957,-3.8821,-3.8985,-3.8969,-3.9094,-3.9218,-3.8892,-3.8838,-3.8985,-3.9218,-3.9288,-3.9288,-3.9288,-3.9471,-3.9934,-4.0365,-4.0912,-4.2104,-4.2452,-4.3007,-4.3621,-4.3704,-4.3763,-4.3822,-4.3881,-4.3939,-4.4015,-4.3998,-4.3998,-4.4039,-4.3998,-4.3998,-4.4039,-4.4097,-4.3981,-4.3864,-4.3805,-4.3805,-4.3805,-4.3805,-4.3805,-4.3805,-4.3805,-4.3747,-4.3298,-4.2501,-4.1504,-4.1139,-4.0358,-3.9432,-3.9432,-3.9432,-3.9432,-3.9432,-3.9432,-3.9432,-3.9631,-4.0126,-4.0906,-4.151,-4.2401,-4.2003,-4.1783,-4.2451,-4.2875,-4.2949,-4.3413,-4.3545,-4.3628,-4.3628,-4.3628,-4.3628,-4.3628,-4.3645,-4.3645,-4.3645,-4.3645,-4.3645,-4.3645,-4.3645,-4.3645,-4.3645,-4.3645,-4.3645,-4.3645,-4.3645,-4.3645,-4.3645,-4.3645,-4.3645,-4.3645,-4.3678,-4.3727,-4.3678,-4.3661,-4.3661,-4.3645,-4.3645,-4.3645,-4.3727,-4.3843,-4.3645,-4.3645,-4.3761,-4.3943,-4.4324,-4.4771,-4.5351,-4.5698,-4.5814,-4.5897,-4.5847,-4.5897,-4.6146,-4.6609,-4.7222,-3.9325,-3.9325,-3.9325,-3.9325,-3.9288,-3.9218,-3.9272,-3.9272,-3.9288,-3.9288,-3.9288,-3.9288,-3.9355,-3.9471,-4.0017,-4.0801,-4.1531,-4.2137,-4.2999,-4.3623,-4.3881,-4.3939,-4.4039,-4.4114,-4.4097,-4.4097,-4.408,-4.4155,-4.4155,-4.4155,-4.4155,-4.4172,-4.4229,-4.4172,-4.4155,-4.4097,-4.4097,-4.4023,-4.3981,-4.3981,-4.3981,-4.4039,-4.3898,-4.3372,-4.2505,-4.1772,-4.1171,-4.0374,-3.9809,-3.9677,-3.9677,-3.9677,-3.9677,-3.9677,-3.9677,-4.0012,-4.0471,-4.1042,-4.1593,-4.2639,-4.2872,-4.2796,-4.3413,-4.3672,-4.3697,-4.3739,-4.3789,-4.3747,-4.3747,-4.3687,-4.3687,-4.3687,-4.3704,-4.3704,-4.3645,-4.3645,-4.3645,-4.3645,-4.3645,-4.3645,-4.3645,-4.3645,-4.3645,-4.3645,-4.3645,-4.3645,-4.3645,-4.3645,-4.3645,-4.3645,-4.3711,-4.3893,-4.3827,-4.3711,-4.3711,-4.3876,-4.3694,-4.3727,-4.4108,-4.4241,-4.3959,-4.3876,-4.4191,-4.4489,-4.4721,-4.5251,-4.6212,-4.6477,-4.6378,-4.6493,-4.6692,-4.656,-4.6643,-4.6891,-4.7388,-3.9935,-3.9729,-3.9729,-3.959,-3.9325,-3.9342,-3.9288,-3.9288,-3.9288,-3.9288,-3.9288,-3.9288,-3.9342,-3.9322,-3.952,-4.0475,-4.1278,-4.1959,-4.2889,-4.3514,-4.4023,-4.4039,-4.4097,-4.4212,-4.4253,-4.4253,-4.4253,-4.4327,-4.4384,-4.444,-4.444,-4.4457,-4.44,-4.44,-4.4457,-4.444,-4.427,-4.4212,-4.4155,-4.4155,-4.4155,-4.4155,-4.3863,-4.3227,-4.249,-4.1787,-4.1033,-4.0263,-3.9796,-3.9729,-3.9729,-3.9729,-3.9677,-3.9744,-3.9912,-4.1234,-4.1916,-4.2551,-4.3093,-4.3471,-4.3729,-4.3736,-4.4037,-4.403,-4.4039,-4.3981,-4.3998,-4.3939,-4.3881,-4.3881,-4.3864,-4.3864,-4.3881,-4.3822,-4.3822,-4.3747,-4.3747,-4.3687,-4.3687,-4.3645,-4.3645,-4.3645,-4.3645,-4.3645,-4.3645,-4.3645,-4.3661,-4.3678,-4.3661,-4.3678,-4.3711,-4.3893,-4.4059,-4.3959,-4.4208,-4.4406,-4.4042,-4.386,-4.4291,-4.4638,-4.4556,-4.4572,-4.4821,-4.5202,-4.5665,-4.646,-4.7404,-4.7388,-4.709,-4.7371,-4.7554,-4.7305,-4.7156,-4.7355,-4.752,-4.0269,-4.0104,-4.0104,-3.9969,-3.9799,-3.9833,-3.9901,-3.985,-3.9468,-3.9342,-3.9379,-3.9395,-3.9448,-3.9484,-3.9568,-4.0171,-4.1276,-4.1744,-4.2518,-4.3434,-4.4095,-4.4236,-4.4327,-4.4384,-4.4384,-4.4423,-4.444,-4.4457,-4.457,-4.457,-4.457,-4.457,-4.457,-4.457,-4.457,-4.457,-4.4457,-4.44,-4.4344,-4.4286,-4.4286,-4.4253,-4.3816,-4.3105,-4.2366,-4.1644,-4.0889,-4.015,-3.9883,-3.9884,-3.9867,-3.9884,-3.9884,-3.9934,-4.0253,-4.1396,-4.2081,-4.2824,-4.3412,-4.391,-4.4128,-4.427,-4.4327,-4.44,-4.436,-4.4337,-4.4205,-4.4131,-4.4114,-4.4114,-4.4097,-4.4097,-4.4056,-4.4015,-4.3939,-4.3923,-4.3864,-4.3805,-4.3805,-4.3763,-4.3704,-4.3704,-4.3645,-4.3645,-4.3645,-4.3645,-4.3744,-4.3893,-4.3843,-4.3794,-4.3761,-4.3827,-4.4092,-4.4257,-4.4556,-4.4821,-4.4655,-4.4456,-4.4572,-4.4854,-4.497,-4.5251,-4.5516,-4.6113,-4.6792,-4.7421,-4.7885,-4.7934,-4.7819,-4.8001,-4.8001,-4.7752,-4.757,-4.7686,-4.7835,-4.0546,-4.0497,-4.0449,-4.0431,-4.0497,-4.0689,-4.0737,-4.0707,-3.9885,-3.9537,-3.959,-3.9554,-3.959,-3.9625,-3.9659,-4.0247,-4.1134,-4.1737,-4.2567,-4.3373,-4.4231,-4.4558,-4.4648,-4.4682,-4.4759,-4.4665,-4.457,-4.457,-4.457,-4.457,-4.457,-4.457,-4.457,-4.457,-4.457,-4.457,-4.457,-4.4514,-4.4514,-4.4514,-4.4514,-4.4468,-4.4125,-4.3153,-4.25,-4.1861,-4.098,-4.0442,-4.0087,-4.0087,-4.0087,-4.0087,-4.0257,-4.0476,-4.0865,-4.1439,-4.226,-4.2934,-4.3664,-4.4131,-4.4373,-4.4497,-4.457,-4.457,-4.4491,-4.4508,-4.4377,-4.4303,-4.4303,-4.4286,-4.4286,-4.427,-4.4229,-4.4155,-4.408,-4.4023,-4.3981,-4.3981,-4.3923,-4.3881,-4.3881,-4.3822,-4.3822,-4.3822,-4.3805,-4.3687,-4.377,-4.4029,-4.4003,-4.392,-4.4009,-4.3959,-4.3976,-4.4324,-4.4887,-4.5135,-4.5268,-4.5202,-4.5268,-4.5433,-4.5798,-4.603,-4.6212,-4.6692,-4.7156,-4.7603,-4.7984,-4.8001,-4.8001,-4.8001,-4.8001,-4.8001,-4.7984,-4.7968,-4.7968,-4.1683,-4.1383,-4.1059,-4.0949,-4.0967,-4.1013,-4.1059,-4.1013,-4.081,-4.048,-4.017,-3.985,-3.9713,-3.9867,-3.9867,-4.0508,-4.157,-4.2117,-4.2989,-4.3888,-4.4685,-4.49,-4.5074,-4.4988,-4.5056,-4.4981,-4.4852,-4.472,-4.4776,-4.472,-4.4626,-4.4626,-4.4609,-4.4665,-4.457,-4.457,-4.457,-4.457,-4.457,-4.457,-4.457,-4.4367,-4.4028,-4.3027,-4.2252,-4.1711,-4.0949,-4.0358,-4.0121,-4.0087,-4.0087,-4.0375,-4.0882,-4.139,-4.2066,-4.2743,-4.2858,-4.3382,-4.3922,-4.4328,-4.4519,-4.4553,-4.457,-4.457,-4.457,-4.4604,-4.4547,-4.4474,-4.4474,-4.4474,-4.4474,-4.4457,-4.44,-4.431,-4.4236,-4.4196,-4.4155,-4.4097,-4.4097,-4.4039,-4.4039,-4.4039,-4.3981,-4.3981,-4.3981,-4.3981,-4.3981,-4.4081,-4.4106,-4.4081,-4.462,-4.4511,-4.3943,-4.4241,-4.5019,-4.5616,-4.5877,-4.6179,-4.6344,-4.6493,-4.6626,-4.6858,-4.704,-4.7073,-4.7371,-4.7769,-4.8001,-4.8001,-4.8001,-4.8001,-4.8001,-4.8001,-4.8001,-4.7984,-4.8001,-4.1825,-4.1924,-4.1717,-4.163,-4.163,-4.17,-4.1743,-4.1743,-4.1639,-4.142,-4.1122,-4.0672,-4.0449,-4.0497,-4.0497,-4.0756,-4.1936,-4.2602,-4.3236,-4.4147,-4.482,-4.5008,-4.5144,-4.5161,-4.5092,-4.5026,-4.5304,-4.5284,-4.5213,-4.5249,-4.5232,-4.4944,-4.4889,-4.4797,-4.4665,-4.4626,-4.4626,-4.457,-4.4626,-4.457,-4.457,-4.4418,-4.4028,-4.3081,-4.2574,-4.1982,-4.1559,-4.1052,-4.1068,-4.0916,-4.0849,-4.0443,-4.0815,-4.1204,-4.2033,-4.2675,-4.3166,-4.3741,-4.4299,-4.457,-4.457,-4.457,-4.457,-4.457,-4.457,-4.4587,-4.4587,-4.4514,-4.4514,-4.4514,-4.4514,-4.4514,-4.4514,-4.444,-4.444,-4.44,-4.44,-4.44,-4.427,-4.4196,-4.4138,-4.4155,-4.4097,-4.4039,-4.4039,-4.4039,-4.4097,-4.4365,-4.4323,-4.4223,-4.4799,-4.519,-4.4747,-4.5042,-4.6105,-4.652,-4.6653,-4.6971,-4.7303,-4.7239,-4.7222,-4.762,-4.7868,-4.7669,-4.762,-4.7835,-4.8001,-4.8001,-4.8001,-4.8001,-4.8001,-4.8001,-4.8001,-4.8001,-4.8001,-4.1475,-4.2172,-4.2315,-4.2369,-4.2409,-4.2552,-4.2591,-4.2591,-4.2378,-4.2279,-4.2198,-4.1717,-4.1569,-4.1481,-4.1499,-4.1552,-4.1901,-4.2701,-4.3436,-4.3955,-4.4571,-4.4776,-4.4917,-4.4987,-4.5168,-4.5387,-4.5673,-4.5848,-4.5918,-4.5868,-4.5716,-4.5459,-4.532,-4.5232,-4.4906,-4.472,-4.4776,-4.4703,-4.4703,-4.4626,-4.457,-4.4519,-4.3927,-4.3555,-4.3301,-4.2946,-4.2439,-4.2117,-4.21,-4.2049,-4.1627,-4.1374,-4.1035,-4.1374,-4.2068,-4.2746,-4.298,-4.3656,-4.4316,-4.457,-4.457,-4.457,-4.457,-4.457,-4.457,-4.457,-4.457,-4.457,-4.457,-4.457,-4.457,-4.457,-4.457,-4.4587,-4.4587,-4.4587,-4.457,-4.457,-4.444,-4.431,-4.431,-4.427,-4.4212,-4.4155,-4.4155,-4.4155,-4.4306,-4.4549,-4.4775,-4.4666,-4.485,-4.5496,-4.5747,-4.6296,-4.6924,-4.7162,-4.7178,-4.7578,-4.778,-4.7782,-4.7817,-4.795,-4.8049,-4.8033,-4.8049,-4.8066,-4.8066,-4.8066,-4.8066,-4.8066,-4.8066,-4.8049,-4.8001,-4.8001,-4.8001,-4.1088,-4.1883,-4.2515,-4.2768,-4.2768,-4.2824,-4.2862,-4.2862,-4.2786,-4.2768,-4.2729,-4.2634,-4.2279,-4.1525,-4.1481,-4.1745,-4.2353,-4.2986,-4.3307,-4.3769,-4.4316,-4.452,-4.4663,-4.4929,-4.5552,-4.5794,-4.5875,-4.6042,-4.6194,-4.6121,-4.6098,-4.595,-4.595,-4.585,-4.5767,-4.5528,-4.5178,-4.5125,-4.4906,-4.4776,-4.4682,-4.4372,-4.3656,-4.3318,-4.3098,-4.2439,-4.183,-4.1441,-4.1762,-4.2033,-4.2117,-4.2035,-4.1764,-4.156,-4.2187,-4.2831,-4.3102,-4.3606,-4.4198,-4.4502,-4.457,-4.457,-4.457,-4.457,-4.457,-4.457,-4.457,-4.457,-4.457,-4.457,-4.457,-4.457,-4.457,-4.457,-4.457,-4.457,-4.457,-4.457,-4.457,-4.4497,-4.4497,-4.4497,-4.444,-4.4457,-4.444,-4.444,-4.4384,-4.467,-4.4589,-4.4714,-4.4923,-4.563,-4.6389,-4.6421,-4.6525,-4.7333,-4.7617,-4.8035,-4.8256,-4.8175,-4.8111,-4.8177,-4.8163,-4.8179,-4.8131,-4.8131,-4.8131,-4.8179,-4.8179,-4.8163,-4.8163,-4.8163,-4.8049,-4.8066,-4.8066]}]]